     2              OBSERVATION DATA    GPS                 RINEX VERSION / TYPE
ASHTORIN 17 - APR - 99 10:02                                PGM / RUN BY / DATE
                                                            COMMENT
Original Marker Name: SIO4                                  COMMENT
Campaign Name: rose canyon fault                            COMMENT
4-Character Station Name: SIO4                              COMMENT
6-Character Antenna Code: DMRCHT                            COMMENT
Vertical Measurement Point: BPA                             COMMENT
Vertical Offset to Rinex Ref. Point: 0.0000                 COMMENT
Radial Measurement Point: RRP                               COMMENT
Radial Offset to Rinex Ref. Point: 0.0000                   COMMENT
Antenna Height from Field Measurement: 0.0000 m             COMMENT
Additional Antenna Identification Info.:                    COMMENT
Turborogue and Ashtech Choke Ring                           COMMENT
Original XYZ: 0.0000 0.0000 0.0000                          COMMENT
New XYZ position is based on association with SCEC monument COMMENT
E1C8P4W3+0501. Position of that monument is believed to be  COMMENT
valid to within 1 m horizontally; vertical accuracy         COMMENT
should be no worse than 3-times this value.                 COMMENT
                                                            COMMENT
Revised Rinex header created by UCSD GPS archive for        COMMENT
GSAC on 04-Sep-1999 (1999:247) 19:51:33 GMT                 COMMENT
For assistance contact dagnew@ucsd.edu or hjohnson@ucsd.edu COMMENT
                                                            COMMENT
SIO LIBRARY WALL - SOUTH                                    MARKER NAME
                                                            MARKER NUMBER
SJB SCRIPPS INSTITUTION OF OCEANOGRAPHY                     OBSERVER / AGENCY
386 ASHTECH Z12-XII3 1E951D0                                REC # / TYPE / VERS
738 DORNE-MARGOL. TYPE T                                    ANT # / TYPE
 -2455542.0000 -4767225.0000  3441626.0000                  APPROX POSITION XYZ
        0.0000        0.0000        0.0000                  ANTENNA: DELTA H/E/N
     1     1     0                                          WAVELENGTH FACT L1/2
     7    L1    L2    C1    P1    P2    D1    D2            # / TYPES OF OBSERV
    30                                                      INTERVAL
  1999     4    13     0     0   30.000000                  TIME OF FIRST OBS
  1999     4    13    23    59   30.000000                  TIME OF LAST OBS
                                                            END OF HEADER
 99  4 13  0  0 30.0000000  0  8 22  6 17 10 23  5 30 26             0.000000000
  -3949024.828 8  -2875801.18845  24357381.044    24357381.3174   24357394.4964
        -0.000          -0.000
 -23312338.550 9 -17560020.17949  20507148.086    20507147.9474   20507155.9584
        -0.000          -0.000
 -16740608.729 9 -13025978.67148  21986766.893    21986766.4294   21986776.2114
        -0.000          -0.000
  -5441377.422 9  -2838496.44545  23378517.127    23378516.2104   23378527.1524
        -0.000          -0.000
 -10886127.502 9  -8228415.34447  22988718.308    22988717.6624   22988729.8544
        -0.000          -0.000
   9222050.668 8   7194548.65445  24474292.067    24474291.6994   24474310.0514
        -0.000          -0.000
  -6238416.720 9  -4839567.42147  22207611.862    22207612.1104   22207622.2644
        -0.000          -0.000
  -3912266.570 9  -3037664.59846  23046882.163    23046882.3964   23046895.2754
        -0.000          -0.000
 99  4 13  0  1  0.0000000  0  8 22  6 17 10 23  5 30 26             0.000581721
  -4005698.462 8  -2919962.39145  24346596.306    24346596.7824   24346609.3514
        -0.000          -0.000
 -23323954.358 9 -17569071.44749  20504937.517    20504937.4074   20504945.5514
        -0.000          -0.000
 -16775073.934 9 -13052834.60048  21980208.187    21980207.7794   21980217.5814
        -0.000          -0.000
  -5337075.029 9  -2757221.91645  23398365.266    23398364.4394   23398375.1354
        -0.000          -0.000
 -10967551.308 9  -8291862.25247  22973223.908    22973223.1994   22973235.4194
        -0.000          -0.000
   9336996.423 8   7284116.48045  24496166.009    24496165.4374   24496183.4384
        -0.000          -0.000
  -6143725.627 9  -4765782.24547  22225631.050    22225631.3554   22225641.4684
        -0.000          -0.000
  -3974250.460 9  -3085963.51046  23035086.736    23035087.0914   23035099.6874
        -0.000          -0.000
 99  4 13  0  1 30.0000000  0  8 22  6 17 10 23  5 30 26             0.000587049
  -4061996.886 8  -2963831.19945  24335883.837    24335883.8874   24335895.5044
        -0.000          -0.000
 -23335208.992 9 -17577841.28449  20502795.804    20502795.7704   20502803.8364
        -0.000          -0.000
 -16809385.364 9 -13079570.69948  21973678.877    21973678.4294   21973688.3024
        -0.000          -0.000
  -5232570.637 9  -2675790.00745  23418251.877    23418250.9024   23418261.7164
        -0.000          -0.000
 -11048715.319 9  -8355106.73747  22957778.656    22957777.9424   22957790.4474
        -0.000          -0.000
   9451867.980 9   7373626.48645  24518025.700    24518025.0444   24518042.8194
        -0.000          -0.000
  -6048723.331 9  -4691754.55848  22243709.426    22243709.8404   22243719.9604
        -0.000          -0.000
  -4035960.112 9  -3134048.76046  23023343.742    23023344.0714   23023356.5084
        -0.000          -0.000
 99  4 13  0  2  0.0000000  0  8 22  6 17 10 23  5 30 26             0.000592367
  -4117888.342 9  -3007382.85945  24325248.590    24325248.3314   24325259.3044
        -0.000          -0.000
 -23346097.670 9 -17586325.94649  20500723.908    20500723.8044   20500731.7574
        -0.000          -0.000
 -16843519.715 9 -13106168.83248  21967183.078    21967182.7464   21967192.7794
        -0.000          -0.000
  -5127853.938 9  -2594192.65545  23438179.100    23438178.1174   23438188.8584
        -0.000          -0.000
 -11129614.354 9  -8418144.75447  22942383.220    22942382.8994   22942395.7534
        -0.000          -0.000
   9566673.361 8   7463084.94945  24539872.627    24539871.9804   24539889.8834
        -0.000          -0.000
  -5953409.595 9  -4617484.22447  22261847.071    22261847.4944   22261857.6694
        -0.000          -0.000
  -4097391.454 9  -3181917.09246  23011653.549    23011653.8344   23011666.2754
        -0.000          -0.000
 99  4 13  0  2 30.0000000  0  8 22  6 17 10 23  5 30 26             0.000597688
  -4173346.544 8  -3050596.91645  24314695.126    24314694.7174   24314705.8074
        -0.000          -0.000
 -23356607.185 9 -17594515.16649  20498723.962    20498723.8394   20498731.7434
        -0.000          -0.000
 -16877440.727 9 -13132600.72348  21960728.050    21960727.7254   21960737.7874
        -0.000          -0.000
  -5022915.418 9  -2512422.44745  23458148.614    23458147.5414   23458158.2194
        -0.000          -0.000
 -11210236.123 9  -8480966.70747  22927040.850    22927040.8314   22927053.6614
        -0.000          -0.000
   9681425.627 8   7552502.00045  24561709.456    24561708.8224   24561726.8964
        -0.000          -0.000
  -5857781.749 9  -4542969.11647  22280044.265    22280044.7864   22280055.1524
        -0.000          -0.000
  -4158516.359 9  -3229546.63646  23000021.957    23000022.2364   23000034.3824
        -0.000          -0.000
 99  4 13  0  3  0.0000000  0  8 22  6 17 10 23  5 30 26             0.000603016
  -4228360.594 8  -3093464.90245  24304226.416    24304225.9454   24304236.9044
        -0.000          -0.000
 -23366738.604 9 -17602409.76249  20496795.956    20496795.8644   20496803.7804
        -0.000          -0.000
 -16911151.449 9 -13158868.75648  21954313.121    21954312.7454   21954322.7624
        -0.000          -0.000
  -4917763.427 8  -2430485.91145  23478158.636    23478157.5594   23478168.1024
        -0.000          -0.000
 -11290578.149 9  -8543570.66047  22911752.300    22911752.0944   22911764.8434
        -0.000          -0.000
   9796132.095 9   7641883.37845  24583537.652    24583537.1414   24583555.1794
        -0.000          -0.000
  -5761861.330 9  -4468226.03747  22298297.268    22298297.8304   22298308.2724
        -0.000          -0.000
  -4219356.041 9  -3276954.00446  22988444.529    22988444.6724   22988456.8044
        -0.000          -0.000
 99  4 13  0  3 30.0000000  0  8 22  6 17 10 23  5 30 26             0.000608349
  -4282944.340 8  -3135997.51745  24293839.293    24293838.6764   24293849.8404
        -0.000          -0.000
 -23376488.230 9 -17610006.85649  20494940.613    20494940.5284   20494948.4344
        -0.000          -0.000
 -16944659.585 9 -13184978.92748  21947936.947    21947936.4304   21947946.3724
        -0.000          -0.000
  -4812391.941 8  -2348378.33845  23498210.379    23498209.2584   23498219.7044
        -0.000          -0.000
 -11370639.987 9  -8605956.30047  22896517.124    22896516.7624   22896529.4004
        -0.000          -0.000
   9910807.406 8   7731240.48645  24605359.779    24605359.3444   24605377.6604
        -0.000          -0.000
  -5665651.674 9  -4393257.57947  22316605.617    22316605.9554   22316616.3804
        -0.000          -0.000
  -4279921.990 9  -3324148.03246  22976918.813    22976918.8814   22976931.2414
        -0.000          -0.000
 99  4 13  0  4  0.0000000  0  8 22  6 17 10 23  5 30 26             0.000613695
  -4337084.379 8  -3178184.44245  24283536.270    24283535.8204   24283547.8654
        -0.000          -0.000
 -23385846.377 9 -17617298.90549  20493159.741    20493159.6814   20493167.5894
        -0.000          -0.000
 -16977954.394 9 -13210922.86748  21941601.224    21941600.7064   21941610.4724
        -0.000          -0.000
  -4706803.057 8  -2266101.33145  23518303.580    23518302.4184   23518312.7644
        -0.000          -0.000
 -11450394.898 9  -8668102.77347  22881340.231    22881339.7884   22881352.2774
        -0.000          -0.000
  10025460.179 8   7820580.03245  24627177.423    24627177.0904   24627195.8214
        -0.000          -0.000
  -5569138.425 9  -4318052.54847  22334971.642    22334971.9314   22334982.3534
        -0.000          -0.000
  -4340176.130 9  -3371099.06546  22965452.611    22965452.6984   22965465.0324
        -0.000          -0.000
 99  4 13  0  4 30.0000000  0  8 22  6 17 10 23  5 30 26             0.000619040
  -4390813.402 8  -3220051.09845  24273311.744    24273311.3664   24273324.2304
        -0.000          -0.000
 -23394815.831 9 -17624288.06349  20491452.863    20491452.7834   20491460.6594
        -0.000          -0.000
 -17011071.168 9 -13236728.09048  21935299.398    21935298.8194   21935308.6654
        -0.000          -0.000
  -4601017.394 8  -2183670.99345  23538434.153    23538432.7944   23538443.3124
        -0.000          -0.000
 -11529843.621 9  -8730010.66247  22866221.626    22866220.9754   22866233.4624
        -0.000          -0.000
  10140075.447 8   7909890.32245  24648988.138    24648987.7414   24649006.7854
        -0.000          -0.000
  -5472332.820 9  -4242619.70847  22353393.254    22353393.6274   22353404.0074
        -0.000          -0.000
  -4400123.128 9  -3417810.83046  22954044.698    22954044.8564   22954057.2814
        -0.000          -0.000
 99  4 13  0  5  0.0000000  0  8 22  6 17 10 23  5 30 26             0.000624373
  -4444143.208 8  -3261606.69545  24263163.965    24263163.1414   24263176.5504
        -0.000          -0.000
 -23403405.242 9 -17630981.09349  20489818.257    20489818.1944   20489826.1814
        -0.000          -0.000
 -17044034.504 9 -13262413.73948  21929026.615    21929026.1014   21929035.8814
        -0.000          -0.000
  -4495054.271 8  -2101102.40545  23558598.258    23558596.9534   23558607.6054
        -0.000          -0.000
 -11608997.658 9  -8791688.95847  22851158.725    22851158.1434   22851170.7544
        -0.000          -0.000
  10254633.678 8   7999156.18545  24670788.141    24670787.5484   24670806.5534
        -0.000          -0.000
  -5375252.501 9  -4166972.80947  22371867.288    22371867.5884   22371877.8034
        -0.000          -0.000
  -4459770.954 9  -3464289.46846  22942693.722    22942694.0634   22942706.1764
        -0.000          -0.000
 99  4 13  0  5 30.0000000  0  8 22  6 17 10 23  5 30 26             0.000629702
  -4497052.118 8  -3302834.34545  24253096.607    24253095.3904   24253108.7824
        -0.000          -0.000
 -23411591.497 9 -17637359.98049  20488260.375    20488260.3034   20488268.4404
        -0.000          -0.000
 -17076815.396 9 -13287957.21448  21922788.530    21922788.0904   21922797.7064
        -0.000          -0.000
  -4388910.925 8  -2018393.38744  23578796.602    23578795.5204   23578806.2724
        -0.000          -0.000
 -11687842.337 9  -8853126.18347  22836154.653    22836154.2104   22836166.9394
        -0.000          -0.000
  10369144.022 8   8088384.72845  24692578.974    24692578.2934   24692597.0454
        -0.000          -0.000
  -5277868.167 9  -4091089.00547  22390399.014    22390399.3694   22390409.4454
        -0.000          -0.000
  -4519083.665 9  -3510506.97146  22931406.947    22931407.2074   22931419.0714
        -0.000          -0.000
 99  4 13  0  6  0.0000000  0  8 22  6 17 10 23  5 30 26             0.000635005
  -4549558.338 8  -3343748.20145  24243105.362    24243104.3774   24243116.8304
        -0.000          -0.000
 -23419406.932 9 -17643449.91349  20486773.101    20486773.0124   20486781.2304
        -0.000          -0.000
 -17109444.063 9 -13313382.08948  21916579.549    21916579.0284   21916588.6134
        -0.000          -0.000
  -4282635.467 8  -1935581.46154  23599020.306    23599019.3384   23599029.4375
        -0.000          -0.000
 -11766407.027 9  -8914345.22747  22821203.956    22821203.5504   22821216.3014
        -0.000          -0.000
  10483568.590 8   8177546.44445  24714353.532    24714352.8194   24714371.4574
        -0.000          -0.000
  -5180229.912 9  -4015007.34847  22408978.954    22408979.4064   22408989.5764
        -0.000          -0.000
  -4578093.695 9  -3556488.63746  22920177.655    22920177.8914   22920190.0054
        -0.000          -0.000
 99  4 13  0  6 30.0000000  0  8 22  6 17 10 23  5 30 26             0.000640297
  -4601632.217 8  -3384325.20245  24233196.308    24233195.3874   24233207.1544
        -0.000          -0.000
 -23426820.794 9 -17649226.93149  20485362.294    20485362.1894   20485370.4414
        -0.000          -0.000
 -17141891.124 9 -13338665.44248  21910405.169    21910404.5634   21910414.0244
        -0.000          -0.000
  -4176205.331 8  -1852648.97154  23619273.585    23619272.3784          0.0005
        -0.000          -0.000
 -11844689.600 9  -8975344.42447  22806306.964    22806306.6234   22806319.3184
        -0.000          -0.000
  10597939.614 8   8266666.44045  24736117.523    24736117.2014   24736135.8094
        -0.000          -0.000
  -5082320.873 9  -3938714.70047  22427610.531    22427610.9684   22427621.1904
        -0.000          -0.000
  -4636794.548 9  -3602229.34646  22909007.032    22909007.3154   22909019.4604
        -0.000          -0.000
 99  4 13  0  7  0.0000000  0  8 22  6 17 10 23  5 30 26             0.000645586
  -4653256.306 8  -3424551.72745  24223373.222    24223371.7104   24223382.6924
        -0.000          -0.000
 -23433832.155 9 -17654690.31749  20484028.177    20484028.0824   20484036.3414
        -0.000          -0.000
 -17174139.994 9 -13363794.37148  21904268.370    21904267.7614   21904276.9794
        -0.000          -0.000
  -4069616.464 8  -1769592.83254  23639557.181    23639555.5664          0.0005
        -0.000          -0.000
 -11922702.189 9  -9036133.27047  22791461.569    22791461.2304   22791473.6894
        -0.000          -0.000
  10712260.322 8   8355747.23045  24757872.407    24757872.3804   24757890.7454
        -0.000          -0.000
  -4984139.760 9  -3862210.04047  22446294.021    22446294.3644   22446304.6184
        -0.000          -0.000
  -4695198.526 9  -3647738.74746  22897892.847    22897893.1294   22897905.3024
        -0.000          -0.000
 99  4 13  0  7 30.0000000  0  8 22  6 17 10 23  5 30 26             0.000650873
  -4704429.240 8  -3464426.67245  24213635.009    24213633.4014   24213644.1804
        -0.000          -0.000
 -23440436.613 9 -17659836.62749  20482771.491    20482771.3624   20482779.6164
        -0.000          -0.000
 -17206208.288 9 -13388782.58848  21898166.106    21898165.4264   21898174.5594
        -0.000          -0.000
  -3962862.984 7  -1686408.39354  23659871.646    23659870.1744          0.0005
        -0.000          -0.000
 -12000443.066 9  -9096710.37847  22776668.014    22776667.5414   22776679.7424
        -0.000          -0.000
  10826534.406 8   8444791.71545  24779618.698    24779618.6264   24779636.8624
        -0.000          -0.000
  -4885692.459 9  -3785497.95447  22465027.875    22465028.2854   22465038.6444
        -0.000          -0.000
  -4753305.071 9  -3693016.41046  22886835.561    22886835.7744   22886847.9634
        -0.000          -0.000
 99  4 13  0  8  0.0000000  0  8 22  6 17 10 23  5 30 26             0.000656167
  -4755144.550 8  -3503945.01045  24203983.319    24203981.9624   24203992.8714
        -0.000          -0.000
 -23446621.532 9 -17664656.02949  20481594.573    20481594.4174   20481602.6364
        -0.000          -0.000
 -17238103.417 9 -13413635.87548  21892096.520    21892095.8184   21892105.0994
        -0.000          -0.000
  -3855919.600 7  -1603075.94354  23680221.437    23680219.1784          0.0005
        -0.000          -0.000
 -12077886.064 9  -9157055.37247  22761930.972    22761930.3344   22761942.5134
        -0.000          -0.000
  10940774.831 8   8533809.98945  24801358.327    24801358.2164   24801376.7354
        -0.000          -0.000
  -4786980.445 9  -3708579.61547  22483812.094    22483812.5414   22483823.0024
        -0.000          -0.000
  -4811097.993 9  -3738049.66046  22875837.955    22875838.1974   22875850.2144
        -0.000          -0.000
 99  4 13  0  8 30.0000000  0  8 22  6 17 10 23  5 30 26             0.000661462
  -4805424.938 8  -3543124.45445  24194415.264    24194413.8874   24194424.9894
        -0.000          -0.000
 -23452404.933 9 -17669162.54949  20480493.967    20480493.8294   20480501.9884
        -0.000          -0.000
 -17269843.190 9 -13438368.10648  21886056.436    21886055.8594   21886065.1154
        -0.000          -0.000
  -3748801.43017      3555.93952         0.000           0.0005          0.0005
        -0.000          -0.000
 -12155050.786 9  -9217183.55347  22747246.510    22747246.1294   22747258.2934
        -0.000          -0.000
  11054958.807 8   8622784.22745  24823087.073    24823087.0454   24823105.9544
        -0.000          -0.000
  -4688012.508 9  -3631461.84647  22502645.084    22502645.6034   22502655.9184
        -0.000          -0.000
  -4868576.668 9  -3782838.07446  22864899.927    22864900.1904   22864912.1604
        -0.000          -0.000
 99  4 13  0  9  0.0000000  0  8 22  6 17 10 23  5 30 26             0.000666789
  -4855226.366 9  -3581930.69245  24184938.852    24184937.1454   24184948.2704
        -0.000          -0.000
 -23457745.935 9 -17673324.35449  20479477.563    20479477.4434   20479485.5174
        -0.000          -0.000
 -17301399.523 9 -13462957.39348  21880051.297    21880050.7474   21880059.9664
        -0.000          -0.000
  -3641463.008 7     87208.81342         0.000           0.0004          0.0004
        -0.000          -0.000
 -12231865.330 9  -9277038.86847  22732629.280    22732628.8484   22732640.7894
        -0.000          -0.000
  11169126.908 8   8711746.12345  24844812.905    24844812.6534   24844831.5314
        -0.000          -0.000
  -4588760.821 9  -3554122.96747  22521532.312    22521532.7174   22521542.7294
        -0.000          -0.000
  -4925680.844 9  -3827334.69246  22854033.236    22854033.5424   22854045.4624
        -0.000          -0.000
 99  4 13  0  9 30.0000000  0  8 22  6 17 10 23  5 30 26             0.000672124
  -4904588.551 9  -3620394.61945  24175546.307    24175544.4574   24175555.0384
        -0.000          -0.000
 -23462686.283 9 -17677173.96049  20478537.365    20478537.2544   20478545.3374
        -0.000          -0.000
 -17332803.571 9 -13487428.02548  21874074.981    21874074.6044   21874083.9214
        -0.000          -0.000
  -3533950.757 8    171047.79952         0.000           0.0004          0.0005
        -0.000          -0.000
 -12308352.900 9  -9336639.38247  22718074.441    22718073.7754   22718085.6584
        -0.000          -0.000
  11283239.020 8   8800664.38645  24866528.182    24866527.7694   24866546.4234
        -0.000          -0.000
  -4489262.661 9  -3476592.02947  22540466.367    22540466.7794   22540476.6214
        -0.000          -0.000
  -4982417.152 9  -3871544.64146  22843236.612    22843236.7674   22843248.7204
        -0.000          -0.000
 99  4 13  0 10  0.0000000  0  8 22  6 17 10 23  5 30 26             0.000677466
  -4953524.671 8  -3658526.59845  24166233.944    24166232.6064   24166242.8614
        -0.000          -0.000
 -23467239.827 9 -17680722.16849  20477670.813    20477670.7634   20477678.7644
        -0.000          -0.000
 -17364041.226 9 -13511768.99448  21868130.534    21868130.1694   21868139.5624
        -0.000          -0.000
  -3426281.566 8    171047.799 1         0.000           0.000           0.000
        -0.000          -0.000
 -12384520.609 9  -9395990.67847  22703580.292    22703579.5794   22703591.3274
        -0.000          -0.000
  11397279.464 8   8889526.79745  24888229.753    24888229.3574   24888247.5564
        -0.000          -0.000
  -4389522.037 9  -3398872.17147  22559446.512    22559446.8504   22559456.8554
        -0.000          -0.000
  -5038794.668 9  -3915475.01546  22832507.963    22832508.1054   22832520.3344
        -0.000          -0.000
 99  4 13  0 10 30.0000000  0  8 22  6 17 10 23  5 30 26             0.000682794
  -5002003.211 8  -3696302.01945  24157008.412    24157007.2544   24157017.6744
        -0.000          -0.000
 -23471385.450 9 -17683952.50749  20476881.930    20476881.8404   20476889.7844
        -0.000          -0.000
 -17395083.530 9 -13535957.74748  21862223.492    21862222.9684   21862232.4434
        -0.000          -0.000
  -3318440.05918     80622.74152         0.000           0.0005          0.0005
        -0.000          -0.000
 -12460363.717 9  -9455089.03047  22689147.899    22689147.1204   22689158.6834
        -0.000          -0.000
  11511263.280 8   8978345.09145  24909920.629    24909920.1204   24909937.9454
        -0.000          -0.000
  -4289525.068 9  -3320952.56747  22578475.214    22578475.5774   22578485.7024
        -0.000          -0.000
  -5094796.812 9  -3959112.90746  22821850.888    22821851.0224   22821863.2484
        -0.000          -0.000
 99  4 13  0 11  0.0000000  0  8 22  6 17 10 23  5 30 26             0.000688142
  -5050035.805 8  -3733729.86545  24147867.165    24147866.1424   24147877.3684
        -0.000          -0.000
 -23475146.674 9 -17686883.32049  20476166.207    20476166.1254   20476174.0134
        -0.000          -0.000
 -17425945.444 9 -13560005.92948  21856350.681    21856350.0844   21856359.5374
        -0.000          -0.000
  -3210440.350 8    164776.07552         0.000           0.0004          0.0005
        -0.000          -0.000
 -12535897.684 9  -9513946.48347  22674774.467    22674773.5214   22674784.8414
        -0.000          -0.000
  11625162.852 8   9067097.74845  24931595.441    24931595.0054   24931612.3374
        -0.000          -0.000
  -4189299.023 9  -3242854.45647  22597547.390    22597547.8744   22597558.0874
        -0.000          -0.000
  -5150451.133 9  -4002479.76646  22811260.185    22811260.3534   22811272.4244
        -0.000          -0.000
 99  4 13  0 11 30.0000000  0  8 22  6 17 10 23  5 30 26             0.000693492
  -5097629.619 8  -3770815.85945  24138809.918    24138808.7514   24138820.4344
        -0.000          -0.000
 -23478541.240 9 -17689528.42049  20475520.262    20475520.2024   20475527.9834
        -0.000          -0.000
 -17456631.562 9 -13583917.14048  21850511.335    21850510.7164   21850520.1094
        -0.000          -0.000
  -3102291.814 8    249045.39452         0.000           0.0004          0.0005
        -0.000          -0.000
 -12611149.468 9  -9572584.05747  22660454.245    22660453.3854   22660464.6964
        -0.000          -0.000
  11738954.327 8   9155766.13945  24953249.353    24953249.1164   24953266.4224
        -0.000          -0.000
  -4088840.234 9  -3164575.00347  22616664.113    22616664.5194   22616674.7764
        -0.000          -0.000
  -5205776.143 9  -4045590.01446  22800732.352    22800732.4924   22800744.3014
        -0.000          -0.000
 99  4 13  0 12  0.0000000  0  8 22  6 17 10 23  5 30 26             0.000698856
  -5144747.656 8  -3807531.17545  24129843.536    24129842.2684   24129854.2414
        -0.000          -0.000
 -23481516.598 9 -17691846.87049  20474954.183    20474954.1144   20474961.8444
        -0.000          -0.000
 -17487115.861 9 -13607671.10148  21844710.362    21844709.7624   21844718.9354
        -0.000          -0.000
  -2993952.19118     75345.30452         0.000           0.0005          0.0005
        -0.000          -0.000
 -12686087.215 9  -9630976.94047  22646193.880    22646193.0974   22646204.2854
        -0.000          -0.000
  11852668.779 8   9244374.55445  24974888.587    24974888.4154   24974905.8344
        -0.000          -0.000
  -3988114.675 9  -3086087.67547  22635831.532    22635831.9694   22635842.3814
        -0.000          -0.000
  -5260752.167 9  -4088428.31646  22790270.702    22790270.7544   22790282.3844
        -0.000          -0.000
 99  4 13  0 12 30.0000000  0  8 22  6 17 10 23  5 30 26             0.000704228
  -5191404.775 8  -3843887.31445  24120964.736    24120963.6754   24120975.5914
        -0.000          -0.000
 -23484083.391 9 -17693846.95249  20474465.836    20474465.7424   20474473.5164
        -0.000          -0.000
 -17517408.321 9 -13631275.57848  21838945.845    21838945.3334   21838954.2454
        -0.000          -0.000
  -2885434.044 8    159902.19452         0.000           0.0004          0.0005
        -0.000          -0.000
 -12760720.680 9  -9689132.72647  22631991.206    22631990.6494   22632001.6884
        -0.000          -0.000
  11966296.789 8   9332915.58345  24996511.177    24996510.8374   24996528.6514
        -0.000          -0.000
  -3887133.160 9  -3007400.89547  22655047.899    22655048.3164   22655058.8174
        -0.000          -0.000
  -5315383.037 9  -4130997.65046  22779874.724    22779874.8404   22779886.2924
        -0.000          -0.000
 99  4 13  0 13  0.0000000  0  8 22  6 17 10 23  5 30 26             0.000709577
  -5237656.549 8  -3879927.55645  24112162.540    24112161.8984   24112174.3914
        -0.000          -0.000
 -23486289.089 9 -17695565.66149  20474046.114    20474046.0034   20474053.8764
        -0.000          -0.000
 -17547564.606 9 -13654773.93248  21833207.317    21833206.8654   21833215.5974
        -0.000          -0.000
  -2776791.024 8    244556.52452         0.000           0.0004          0.0005
        -0.000          -0.000
 -12835089.432 9  -9747082.22747  22617839.054    22617838.4774   22617849.5224
        -0.000          -0.000
  12079796.510 8   9421356.66445  25018109.277    25018108.8134   25018127.3054
        -0.000          -0.000
  -3785935.132 9  -2928545.39747  22674305.550    22674305.9044   22674316.4494
        -0.000          -0.000
  -5369717.391 9  -4173335.92246  22769535.367    22769535.3894   22769546.6284
        -0.000          -0.000
 99  4 13  0 13 30.0000000  0  8 22  6 17 10 23  5 30 26             0.000714917
  -5283469.293 8  -3915625.70545  24103444.274    24103443.7044   24103456.5944
        -0.000          -0.000
 -23488067.224 9 -17696951.21449  20473707.717    20473707.6174   20473715.5794
        -0.000          -0.000
 -17577548.777 9 -13678138.18048  21827501.505    21827501.0254   21827509.8244
        -0.000          -0.000
  -2667989.60418     68630.35952         0.000           0.0005          0.0005
        -0.000          -0.000
 -12909159.716 9  -9804799.17347  22603743.621    22603742.9854   22603754.1164
        -0.000          -0.000
  12193226.581 8   9509743.48945  25039694.483    25039694.0794   25039712.5594
        -0.000          -0.000
  -3684476.371 9  -2849486.74447  22693612.734    22693612.9894   22693623.4774
        -0.000          -0.000
  -5423712.225 9  -4215409.66646  22759260.229    22759260.2924   22759271.5764
        -0.000          -0.000
 99  4 13  0 14  0.0000000  0  8 22  6 17 10 23  5 30 26             0.000720229
  -5328856.288 8  -3950992.11745  24094807.188    24094806.3934   24094819.2624
        -0.000          -0.000
 -23489409.824 9 -17697997.38149  20473452.225    20473452.1144   20473460.0394
        -0.000          -0.000
 -17607371.626 9 -13701376.72748  21821826.286    21821825.8844   21821834.7944
        -0.000          -0.000
  -2559051.689 8    153519.39252         0.000           0.0004          0.0005
        -0.000          -0.000
 -12982940.341 9  -9862290.41047  22589703.233    22589702.8744   22589713.9294
        -0.000          -0.000
  12306580.459 8   9598070.93045  25061265.412    25061265.0174   25061283.7394
        -0.000          -0.000
  -3582786.630 9  -2770248.11247  22712963.731    22712963.9924   22712974.3434
        -0.000          -0.000
  -5477370.713 9  -4257221.32946  22749049.239    22749049.3014   22749060.6884
        -0.000          -0.000
 99  4 13  0 14 30.0000000  0  8 22  6 17 10 23  5 30 26             0.000725507
  -5373821.491 8  -3986029.85945  24086250.634    24086249.9154   24086262.5924
        -0.000          -0.000
 -23490331.052 9 -17698715.21449  20473276.918    20473276.8254   20473284.6714
        -0.000          -0.000
 -17637048.694 9 -13724501.65948  21816178.979    21816178.4744   21816187.3954
        -0.000          -0.000
  -2450002.971 8    238494.53052         0.000           0.0004          0.0005
        -0.000          -0.000
 -13056434.156 9  -9919558.15047  22575717.780    22575717.3674   22575728.4364
        -0.000          -0.000
  12419855.928 8   9686337.24445  25082821.197    25082820.7634   25082839.5924
        -0.000          -0.000
  -3480889.087 9  -2690847.53947  22732354.286    22732354.4594   22732364.7644
        -0.000          -0.000
  -5530702.384 9  -4298778.29246  22738900.501    22738900.5474   22738911.8904
        -0.000          -0.000
 99  4 13  0 15  0.0000000  0  8 22  6 17 10 23  5 30 26             0.000730766
  -5418328.116 9  -4020710.29245  24077781.766    24077781.2674   24077792.9804
        -0.000          -0.000
 -23490797.680 9 -17699078.80849  20473188.244    20473188.0874   20473195.8604
        -0.000          -0.000
 -17666562.804 9 -13747499.62148  21810562.587    21810562.1224   21810571.0704
        -0.000          -0.000
  -2340824.02018     61780.75052         0.000           0.0005          0.0005
        -0.000          -0.000
 -13129611.435 9  -9976579.24947  22561792.425    22561792.1364   22561803.2674
        -0.000          -0.000
  12533072.132 8   9774557.40345  25104365.597    25104365.1494   25104384.4144
        -0.000          -0.000
  -3378775.787 9  -2611278.85947  22751785.669    22751785.9564   22751796.5264
        -0.000          -0.000
  -5583678.882 9  -4340058.51246  22728819.310    22728819.3464   22728830.7144
        -0.000          -0.000
 99  4 13  0 15 30.0000000  0  8 22  6 17 10 23  5 30 26             0.000736038
  -5462322.418 8  -4054991.49145  24069410.699    24069409.8634   24069420.8274
        -0.000          -0.000
 -23490746.795 9 -17699039.14649  20473197.903    20473197.7504   20473205.6074
        -0.000          -0.000
 -17695849.212 9 -13770320.14848  21804989.686    21804989.1604   21804998.1144
        -0.000          -0.000
  -2231462.666 8    146996.43252         0.000           0.0004          0.0005
        -0.000          -0.000
 -13202413.622 9 -10033308.06447  22547938.582    22547938.2184   22547949.4664
        -0.000          -0.000
  12646261.149 8   9862756.37345  25125904.973    25125904.1994   25125924.2234
        -0.000          -0.000
  -3276411.200 9  -2531514.36947  22771265.166    22771265.3414   22771276.2304
        -0.000          -0.000
  -5636225.685 9  -4381003.88846  22718819.744    22718819.7794   22718831.1564
        -0.000          -0.000
 99  4 13  0 16  0.0000000  0  8 22  6 17 10 23  5 30 26             0.000741306
  -5505849.847 8  -4088908.91345  24061128.283    24061127.0974   24061137.5454
        -0.000          -0.000
 -23490265.879 9 -17698664.39649  20473289.416    20473289.2674   20473297.1224
        -0.000          -0.000
 -17724965.201 9 -13793007.88148  21799449.135    21799448.5464   21799457.6024
        -0.000          -0.000
  -2121975.960 7    232309.56852         0.000           0.0004          0.0005
        -0.000          -0.000
 -13274877.100 9 -10089772.95047  22534149.014    22534148.6144   22534160.1454
        -0.000          -0.000
  12759350.916 8   9950878.02145  25147425.387    25147424.6604   25147445.0574
        -0.000          -0.000
  -3173855.563 9  -2451601.02047  22790780.995    22790781.1504   22790792.2394
        -0.000          -0.000
  -5688382.252 9  -4421645.20546  22708894.648    22708894.7104   22708905.7814
        -0.000          -0.000
 99  4 13  0 16 30.0000000  0  8 22  6 17 10 23  5 30 26             0.000746571
  -5548935.747 8  -4122482.24945  24052929.237    24052928.1954   24052938.6684
        -0.000          -0.000
 -23489408.791 9 -17697996.52749  20473452.400    20473452.2644   20473460.1094
        -0.000          -0.000
 -17753930.477 9 -13815578.17948  21793937.273    21793936.6224   21793945.6634
        -0.000          -0.000
  -2012378.83717     54897.46952         0.000           0.0005          0.0005
        -0.000          -0.000
 -13347024.210 9 -10145991.34447  22520419.645    22520419.2894   22520430.9854
        -0.000          -0.000
  12872306.003 8  10038894.71645  25168920.186    25168919.3694   25168940.2254
        -0.000          -0.000
  -3071121.923 9  -2371548.97347  22810330.694    22810330.8164   22810342.0374
        -0.000          -0.000
  -5740169.011 9  -4461998.35547  22699039.956    22699039.9824   22699050.9714
        -0.000          -0.000
 99  4 13  0 17  0.0000000  0  8 22  6 17 10 23  5 30 26             0.000751850
  -5591573.906 8  -4155706.68945  24044815.508    24044814.3914   24044825.0954
        -0.000          -0.000
 -23488176.231 9 -17697036.08149  20473686.819    20473686.7124   20473694.5214
        -0.000          -0.000
 -17782737.856 9 -13838025.43848  21788455.333    21788454.7464   21788463.6874
        -0.000          -0.000
  -1902650.964 7    140390.01452         0.000           0.0004          0.0005
        -0.000          -0.000
 -13418846.399 9 -10201956.53947  22506752.105    22506751.8104   22506763.6074
        -0.000          -0.000
  12985110.860 8  10126794.37945  25190386.468    25190385.7184   25190406.5414
        -0.000          -0.000
  -2968198.949 9  -2291349.38247  22829916.503    22829916.6374   22829927.7614
        -0.000          -0.000
  -5791559.469 9  -4502042.71547  22689260.659    22689260.6034   22689271.7354
        -0.000          -0.000
 99  4 13  0 17 30.0000000  0  8 22  6 17 10 23  5 30 26             0.000757174
  -5633723.429 8  -4188550.38245  24036794.603    24036793.4064   24036804.4944
        -0.000          -0.000
 -23486534.736 9 -17695756.98849  20473999.152    20473999.0654   20474006.8464
        -0.000          -0.000
 -17811366.571 9 -13860333.46648  21783007.679    21783006.9384   21783015.7154
        -0.000          -0.000
  -1792753.31417    226012.41352         0.000           0.0005          0.0005
        -0.000          -0.000
 -13490304.035 9 -10257637.66647  22493154.204    22493153.8344   22493165.4544
        -0.000          -0.000
  13097801.808 8  10214605.23745  25211831.451    25211830.6914   25211850.7444
        -0.000          -0.000
  -2865034.548 9  -2210961.65947  22849548.313    22849548.4864   22849559.4264
        -0.000          -0.000
  -5842514.486 9  -4541747.78247  22679563.923    22679563.9554   22679574.9454
        -0.000          -0.000
 99  4 13  0 18  0.0000000  0  8 22  6 17 10 23  5 30 26             0.000762541
  -5675391.247 8  -4221018.70845  24028864.785    24028863.6254   24028875.4134
        -0.000          -0.000
 -23484503.573 9 -17694174.26449  20474385.663    20474385.5684   20474393.3424
        -0.000          -0.000
 -17839829.743 9 -13882512.51148  21777591.153    21777590.4184   21777599.2104
        -0.000          -0.000
  -1682705.84617     47979.23652         0.000           0.0005          0.0005
        -0.000          -0.000
 -13561402.478 9 -10313038.90947  22479624.642    22479624.0414   22479635.6914
        -0.000          -0.000
  13210384.954 8  10302332.10245  25233255.729    25233254.6614   25233274.5414
        -0.000          -0.000
  -2761625.361 9  -2130383.20847  22869226.644    22869226.8234   22869237.8004
        -0.000          -0.000
  -5893056.287 9  -4581130.86247  22669945.931    22669945.9934   22669956.9004
        -0.000          -0.000
 99  4 13  0 18 30.0000000  0  8 22  6 17 10 23  5 30 26             0.000767917
  -5716607.775 8  -4253135.39945  24021021.053    24021020.0344   24021032.2084
        -0.000          -0.000
 -23482074.413 9 -17692281.40949  20474847.905    20474847.7884   20474855.6004
        -0.000          -0.000
 -17868146.593 9 -13904577.52248  21772202.398    21772201.7094   21772210.5824
        -0.000          -0.000
  -1572546.410 7    133839.36752         0.000           0.0004          0.0005
        -0.000          -0.000
 -13632170.022 9 -10368182.31747  22466157.416    22466157.0244   22466168.9164
        -0.000          -0.000
  13322839.571 8  10389958.83645  25254655.822    25254654.4344   25254674.1164
        -0.000          -0.000
  -2657996.933 9  -2049633.92447  22888946.721    22888946.8714   22888957.8504
        -0.000          -0.000
  -5943214.607 9  -4620215.13147  22660400.962    22660401.0214   22660411.9754
        -0.000          -0.000
 99  4 13  0 19  0.0000000  0  8 22  6 17 10 23  5 30 26             0.000773292
  -5757357.086 8  -4284888.05445  24013266.734    24013265.6414   24013277.8744
        -0.000          -0.000
 -23479214.955 9 -17690053.25249  20475392.059    20475391.9414   20475399.7014
        -0.000          -0.000
 -17896306.190 9 -13926520.02048  21766843.587    21766842.9394   21766852.0234
        -0.000          -0.000
  -1462287.812 7    219785.26052         0.000           0.0004          0.0005
        -0.000          -0.000
 -13702595.976 9 -10423059.54447  22452755.654    22452755.2414   22452767.2454
        -0.000          -0.000
  13435182.466 8  10477498.51045  25276034.688    25276033.4564   25276052.4944
        -0.000          -0.000
  -2554156.255 9  -1968719.23947  22908707.058    22908707.2814   22908718.1474
        -0.000          -0.000
  -5992976.334 9  -4658990.37047  22650931.393    22650931.4964   22650942.5334
        -0.000          -0.000
 99  4 13  0 19 30.0000000  0  8 22  6 17 10 23  5 30 26             0.000778648
  -5797648.281 8  -4316283.72945  24005599.481    24005598.8604   24005610.7284
        -0.000          -0.000
 -23475929.742 9 -17687493.35049  20476017.239    20476017.1084   20476024.8774
        -0.000          -0.000
 -17924308.023 9 -13948339.57248  21761514.931    21761514.2884   21761523.5114
        -0.000          -0.000
  -1351957.17318     40933.97252         0.000           0.0005          0.0005
        -0.000          -0.000
 -13772701.386 9 -10477687.00647  22439415.162    22439414.5974   22439426.4944
        -0.000          -0.000
  13547418.012 8  10564954.56345  25297392.868    25297391.4304   25297410.1874
        -0.000          -0.000
  -2450119.592 9  -1887651.83747  22928504.589    22928504.8574   22928515.5894
        -0.000          -0.000
  -6042362.818 9  -4697473.22547  22641533.634    22641533.6824   22641544.5144
        -0.000          -0.000
 99  4 13  0 20  0.0000000  0  8 22  6 17 10 23  5 30 26             0.000783989
  -5837468.558 8  -4347312.45445  23998022.509    23998021.5954   23998033.7484
        -0.000          -0.000
 -23472195.048 9 -17684583.20349  20476727.935    20476727.8064   20476735.5674
        -0.000          -0.000
 -17952106.874 9 -13970000.96948  21756224.885    21756224.3094   21756233.6274
        -0.000          -0.000
  -1241531.870 7    126960.42452         0.000           0.0004          0.0005
        -0.000          -0.000
 -13842467.583 9 -10532050.13947  22426138.943    22426138.5374   22426150.2414
        -0.000          -0.000
  13659562.693 8  10652339.81945  25318733.466    25318732.0374   25318750.8174
        -0.000          -0.000
  -2345886.137 9  -1806431.09247  22948339.598    22948339.8744   22948350.5334
        -0.000          -0.000
  -6091349.946 9  -4735644.86147  22632211.546    22632211.6264   22632222.6324
        -0.000          -0.000
 99  4 13  0 20 30.0000000  0  8 22  6 17 10 23  5 30 26             0.000789305
  -5876819.103 8  -4377975.12145  23990534.468    23990533.5994   23990545.5294
        -0.000          -0.000
 -23468019.794 9 -17681329.75849  20477522.555    20477522.4064   20477530.1174
        -0.000          -0.000
 -17979721.255 9 -13991518.61748  21750970.194    21750969.5974   21750978.6964
        -0.000          -0.000
  -1131017.812 7    213044.95552         0.000           0.0004          0.0005
        -0.000          -0.000
 -13911915.977 9 -10586165.62647  22412923.323    22412922.9174   22412934.4274
        -0.000          -0.000
  13771587.781 8  10739631.87945  25340051.050    25340049.5784   25340068.7684
        -0.000          -0.000
  -2241489.334 9  -1725083.06547  22968205.690    22968206.0224   22968216.4874
        -0.000          -0.000
  -6139947.722 9  -4773513.11847  22622963.546    22622963.7294   22622974.7964
        -0.000          -0.000
 99  4 13  0 21  0.0000000  0  8 22  6 17 10 23  5 30 26             0.000794589
  -5915714.452 8  -4408283.05845  23983132.700    23983131.9334   23983143.4814
        -0.000          -0.000
 -23463431.463 9 -17677754.44049  20478395.615    20478395.4624   20478403.2974
        -0.000          -0.000
 -18007184.490 9 -14012918.48048  21745744.275    21745743.5654   21745752.4734
        -0.000          -0.000
  -1020430.45217     33851.64952         0.000           0.0005          0.0005
        -0.000          -0.000
 -13981071.377 9 -10640052.80947  22399763.310    22399762.9774   22399774.4254
        -0.000          -0.000
  13883458.212 8  10826803.45445  25361339.301    25361337.9614   25361357.2924
        -0.000          -0.000
  -2136962.613 9  -1643633.79847  22988096.463    22988096.8214   22988107.3774
        -0.000          -0.000
  -6188178.706 9  -4811095.57847  22613785.394    22613785.5334   22613796.5624
        -0.000          -0.000
 99  4 13  0 21 30.0000000  0  8 22  6 17 10 23  5 30 26             0.000799878
  -5954102.009 8  -4438195.40045  23975827.818    23975826.9614   23975838.3314
        -0.000          -0.000
 -23458363.526 9 -17673805.39149  20479360.003    20479359.9044   20479367.6874
        -0.000          -0.000
 -18034445.407 9 -14034160.70148  21740556.801    21740556.0864   21740564.9434
        -0.000          -0.000
   -909699.97317    120078.71552         0.000           0.0005          0.0005
        -0.000          -0.000
 -14049870.227 9 -10693662.17047  22386671.314    22386670.9114   22386682.2964
        -0.000          -0.000
  13995225.613 8  10913894.71545  25382607.865    25382606.4974   25382626.3794
        -0.000          -0.000
  -2032244.974 9  -1562035.76947  23008023.630    23008023.9264   23008034.5084
        -0.000          -0.000
  -6235985.374 9  -4848347.37647  22604688.050    22604688.1514   22604699.1574
        -0.000          -0.000
 99  4 13  0 22  0.0000000  0  8 22  6 17 10 23  5 30 26             0.000805185
  -5991963.208 8  -4467697.60945  23968622.963    23968622.1194   23968633.2024
        -0.000          -0.000
 -23452808.556 9 -17669476.84749  20480417.217    20480417.0924   20480424.8174
        -0.000          -0.000
 -18061492.706 9 -14055236.47048  21735409.973    21735409.2494   21735417.8944
        -0.000          -0.000
   -798815.404 7    206379.74652         0.000           0.0004          0.0005
        -0.000          -0.000
 -14118298.297 9 -10746982.61347  22373649.715    22373649.4554   22373660.7644
        -0.000          -0.000
  14106893.054 8  11000908.13345  25403857.575    25403856.2264   25403876.2094
        -0.000          -0.000
  -1927325.460 9  -1480280.44247  23027989.290    23027989.5344   23028000.2344
        -0.000          -0.000
  -6283355.269 9  -4885258.84647  22595673.495    22595673.6814   22595684.7364
        -0.000          -0.000
 99  4 13  0 22 30.0000000  0  8 22  6 17 10 23  5 30 26             0.000810483
  -6029337.104 8  -4496820.00845  23961510.743    23961509.5724   23961520.8464
        -0.000          -0.000
 -23446810.291 9 -17664802.88049  20481558.673    20481558.5024   20481566.2224
        -0.000          -0.000
 -18088380.396 9 -14076187.85948  21730293.510    21730292.6824   21730301.3344
        -0.000          -0.000
   -687832.60818     26764.96752         0.000           0.0005          0.0005
        -0.000          -0.000
 -14186405.504 9 -10800053.01547  22360689.229    22360688.9674   22360700.0794
        -0.000          -0.000
  14218415.578 8  11087808.59945  25425079.643    25425078.4244   25425098.4934
        -0.000          -0.000
  -1822238.263 9  -1398394.45447  23047987.136    23047987.2504   23047997.9214
        -0.000          -0.000
  -6330331.773 9  -4921863.77747  22586734.054    22586734.2794   22586745.1184
        -0.000          -0.000
 99  4 13  0 23  0.0000000  0  8 22  6 17 10 23  5 30 26             0.000815792
  -6066208.462 8  -4525550.83645  23954494.609    23954493.4794   23954504.7624
        -0.000          -0.000
 -23440336.794 9 -17659758.59849  20482790.330    20482790.2404   20482798.0994
        -0.000          -0.000
 -18115070.890 9 -14096985.60548  21725214.255    21725213.4584   21725222.3264
        -0.000          -0.000
   -576722.929 8    113326.68252         0.000           0.0004          0.0005
        -0.000          -0.000
 -14254167.636 9 -10852854.54548  22347794.550    22347794.3544   22347805.0424
        -0.000          -0.000
  14329827.143 8  11174622.61845  25446280.246    25446279.3484   25446299.4714
        -0.000          -0.000
  -1716945.199 9  -1316348.05047  23068023.910    23068024.0194   23068034.6334
        -0.000          -0.000
  -6376878.646 9  -4958133.93047  22577876.359    22577876.5624   22577887.2134
        -0.000          -0.000
 99  4 13  0 23 30.0000000  0  8 22  6 17 10 23  5 30 26             0.000821115
  -6102579.056 8  -4553891.48245  23947573.837    23947572.4014   23947583.5664
        -0.000          -0.000
 -23433408.639 9 -17654360.03649  20484108.662    20484108.6064   20484116.4274
        -0.000          -0.000
 -18141562.325 9 -14117628.22748  21720172.966    21720172.2584   21720181.1084
        -0.000          -0.000
   -465485.174 8    199968.48352         0.000           0.0004          0.0005
        -0.000          -0.000
 -14321588.225 9 -10905389.93048  22334965.167    22334964.8154   22334975.1234
        -0.000          -0.000
  14441129.289 8  11261351.41145  25467460.053    25467459.5444   25467480.0904
        -0.000          -0.000
  -1611451.589 9  -1234145.37547  23088098.671    23088098.8124   23088109.4304
        -0.000          -0.000
  -6422991.613 9  -4994065.97447  22569101.185    22569101.4464   22569111.9304
        -0.000          -0.000
 99  4 13  0 24  0.0000000  0  8 22  6 17 10 23  5 30 26             0.000826445
  -6138463.729 8  -4581853.49745  23940744.533    23940743.5684   23940754.5914
        -0.000          -0.000
 -23426056.429 9 -17648631.04649  20485507.824    20485507.7584   20485515.4834
        -0.000          -0.000
 -18167884.274 9 -14138138.79348  21715163.860    21715163.1764   21715171.9744
        -0.000          -0.000
   -354149.74718     19604.88252         0.000           0.0005          0.0005
        -0.000          -0.000
 -14388678.175 9 -10957667.66548  22322198.619    22322198.1844   22322208.3244
        -0.000          -0.000
  14552296.568 8  11347975.10045  25488614.601    25488614.0994   25488634.9314
        -0.000          -0.000
  -1505779.519 9  -1151803.64647  23108207.554    23108207.7414   23108218.1744
        -0.000          -0.000
  -6468690.174 9  -5029675.11247  22560405.056    22560405.2774   22560415.6914
        -0.000          -0.000
 99  4 13  0 24 30.0000000  0  8 22  6 17 10 23  5 30 26             0.000831785
  -6173862.031 8  -4609436.47945  23934008.008    23934006.9524   23934018.0104
        -0.000          -0.000
 -23418251.234 9 -17642549.07949  20486993.226    20486993.1204   20487000.7734
        -0.000          -0.000
 -18194039.369 9 -14158519.33948  21710186.444    21710185.9014   21710194.6864
        -0.000          -0.000
   -242703.506 8    106448.87052         0.000           0.0004          0.0005
        -0.000          -0.000
 -14455407.542 9 -11009664.42448  22309500.473    22309499.9154   22309510.1044
        -0.000          -0.000
  14663331.839 8  11434495.91445  25509743.848    25509743.3514   25509764.2834
        -0.000          -0.000
  -1399928.548 9  -1069322.51247  23128350.523    23128350.5864   23128361.0444
        -0.000          -0.000
  -6513948.864 9  -5064941.52047  22551792.549    22551792.7684   22551803.1264
        -0.000          -0.000
 99  4 13  0 25  0.0000000  0  8 22  6 17 10 23  5 30 26             0.000837114
  -6208803.411 8  -4636663.47745  23927359.307    23927358.2334   23927369.0304
        -0.000          -0.000
 -23410019.233 9 -17636134.52849  20488559.731    20488559.6254   20488567.2384
        -0.000          -0.000
 -18220058.706 9 -14178794.09248  21705235.099    21705234.5194   21705243.2874
        -0.000          -0.000
   -131175.832 8    193360.69152         0.000           0.0004          0.0005
        -0.000          -0.000
 -14521792.346 9 -11061392.69948  22296867.612    22296867.1704   22296877.3604
        -0.000          -0.000
  14774206.663 8  11520891.71945  25530842.707    25530842.1564   25530863.2114
        -0.000          -0.000
  -1293942.985 9   -986736.49547  23148518.904    23148519.0844   23148529.7384
        -0.000          -0.000
  -6558801.749 9  -5099891.68547  22543257.366    22543257.5084   22543267.6554
        -0.000          -0.000
 99  4 13  0 25 30.0000000  0  8 22  6 17 10 23  5 30 26             0.000842448
  -6243270.427 8  -4663520.84345  23920800.699    23920799.7264   23920810.2904
        -0.000          -0.000
 -23401345.545 9 -17629375.80849  20490210.334    20490210.1934   20490217.8184
        -0.000          -0.000
 -18245930.362 9 -14198953.76748  21700311.778    21700311.2674   21700320.0474
        -0.000          -0.000
    -19556.64118     12400.70252         0.000           0.0005          0.0005
        -0.000          -0.000
 -14587782.447 9 -11112813.40748  22284310.026    22284309.4844   22284319.7434
        -0.000          -0.000
  14884933.164 8  11607171.96545  25551913.398    25551912.9604   25551934.2394
        -0.000          -0.000
  -1187797.563 9   -904025.92747  23168717.684    23168717.9004   23168728.9054
        -0.000          -0.000
  -6603224.864 9  -5134506.96447  22534803.721    22534803.9204   22534813.8824
        -0.000          -0.000
 99  4 13  0 26  0.0000000  0  8 22  6 17 10 23  5 30 26             0.000847750
  -6277310.487 8  -4690045.46445  23914322.280    23914321.5814   23914332.6074
        -0.000          -0.000
 -23392253.588 9 -17622291.16149  20491940.531    20491940.3854   20491948.0264
        -0.000          -0.000
 -18271685.808 9 -14219022.89748  21695410.818    21695410.1704   21695419.0394
        -0.000          -0.000
     92104.715 8     99410.27742         0.000           0.0004          0.0004
        -0.000          -0.000
 -14653415.563 9 -11163955.95748  22271820.103    22271819.6214   22271830.1074
        -0.000          -0.000
  14995479.429 8  11693311.76245  25572949.828    25572948.9574   25572970.3984
        -0.000          -0.000
  -1081524.184 9   -821215.64947  23188940.937    23188941.1504   23188952.2744
        -0.000          -0.000
  -6647254.494 9  -5168815.65047  22526425.062    22526425.2604   22526435.2364
        -0.000          -0.000
 99  4 13  0 26 30.0000000  0  8 22  6 17 10 23  5 30 26             0.000853042
  -6310884.392 8  -4716206.86045  23907933.034    23907932.4334   23907943.3224
        -0.000          -0.000
 -23382708.444 9 -17614853.39249  20493756.897    20493756.7774   20493764.4254
        -0.000          -0.000
 -18297269.589 9 -14238958.25648  21690542.335    21690541.7204   21690550.5354
        -0.000          -0.000
    203843.42917    186481.75652         0.000           0.0005          0.0005
        -0.000          -0.000
 -14718679.873 9 -11214811.12248  22259400.403    22259400.0184   22259410.6904
        -0.000          -0.000
  15105889.873 8  11779345.67445  25593960.531    25593959.3114   25593981.1374
        -0.000          -0.000
   -975102.510 9   -738289.82647  23209192.397    23209192.5304   23209203.7724
        -0.000          -0.000
  -6690854.763 9  -5202789.75447  22518128.111    22518128.2644   22518138.2744
        -0.000          -0.000
 99  4 13  0 27  0.0000000  0  8 22  6 17 10 23  5 30 26             0.000858330
  -6343983.891 8  -4741998.60145  23901634.087    23901633.5334   23901644.4564
        -0.000          -0.000
 -23372726.444 9 -17607075.20849  20495656.405    20495656.2534   20495663.9464
        -0.000          -0.000
 -18322667.706 9 -14258748.94448  21685709.245    21685708.5674   21685717.4024
        -0.000          -0.000
    315661.54117      5163.00852         0.000           0.0005          0.0005
        -0.000          -0.000
 -14783586.096 9 -11265387.26448  22247049.225    22247048.7294   22247059.3844
        -0.000          -0.000
  15216175.470 8  11865282.33145  25614947.314    25614946.3914   25614967.7214
        -0.000          -0.000
   -868526.461 9   -655243.72547  23229473.466    23229473.5194   23229484.5014
        -0.000          -0.000
  -6734028.641 9  -5236431.61347  22509912.231    22509912.3724   22509922.5504
        -0.000          -0.000
 99  4 13  0 27 30.0000000  0  8 22  6 17 10 23  5 30 26             0.000863624
  -6376587.611 8  -4767404.11145  23895430.021    23895429.4794   23895440.0864
        -0.000          -0.000
 -23362295.292 9 -17598947.02449  20497641.389    20497641.2484   20497648.9104
        -0.000          -0.000
 -18347882.621 9 -14278396.89048  21680910.839    21680910.2094   21680919.2444
        -0.000          -0.000
    427566.41216     92385.66842         0.000           0.0005          0.0004
        -0.000          -0.000
 -14848138.764 9 -11315687.91348  22234765.285    22234764.7934   22234775.2004
        -0.000          -0.000
  15326345.976 7  11951129.32844  25635912.266    25635911.7184   25635932.3964
        -0.000          -0.000
   -761792.051 9   -572074.22147  23249784.727    23249784.5994   23249795.3094
        -0.000          -0.000
  -6776757.477 9  -5269726.67647  22501781.236    22501781.3414   22501791.4214
        -0.000          -0.000
 99  4 13  0 28  0.0000000  0  8 22  6 17 10 23  5 30 26             0.000868918
  -6408665.340 8  -4792399.63345  23889325.482    23889324.9964   23889336.2544
        -0.000          -0.000
 -23351392.139 9 -17590451.05249  20499716.214    20499716.0324   20499723.7324
        -0.000          -0.000
 -18372910.278 9 -14297898.91848  21676148.143    21676147.5454   21676156.5764
        -0.000          -0.000
    539558.37816    179762.89752         0.000           0.0005          0.0005
        -0.000          -0.000
 -14912348.271 9 -11365721.16348  22222546.510    22222546.0624   22222556.3954
        -0.000          -0.000
  15436406.38217  12036890.52654  25656856.277    25656855.4595          0.0005
        -0.000          -0.000
   -654922.998 9   -488799.78247  23270121.166    23270121.2504   23270131.9514
        -0.000          -0.000
  -6819029.691 9  -5302665.94547  22493737.198    22493737.2304   22493747.3124
        -0.000          -0.000
 99  4 13  0 28 30.0000000  0  7 22  6 17 23  5 30 26                0.000874150
  -6440225.912 8  -4816992.22545  23883319.377    23883318.8834   23883330.3764
        -0.000          -0.000
 -23340036.214 9 -17581602.27749  20501877.127    20501876.9564   20501884.7834
        -0.000          -0.000
 -18397786.508 9 -14317282.94448  21671414.361    21671413.7724   21671422.6284
        -0.000          -0.000
 -14976219.460 9 -11415490.79348  22210391.964    22210391.6364   22210402.0234
        -0.000          -0.000
  15546308.30716  12122528.28753         0.000           0.0005          0.0005
        -0.000          -0.000
   -547945.645 9   -405440.95847  23290478.491    23290478.5864   23290489.3854
        -0.000          -0.000
  -6860863.680 9  -5335263.73747  22485776.109    22485776.2324   22485786.5654
        -0.000          -0.000
 99  4 13  0 29  0.0000000  0  6 22  6 17 23 30 26                   0.000879449
  -6471259.021 8  -4841173.79345  23877413.412    23877413.2814   23877425.0154
        -0.000          -0.000
 -23328203.054 9 -17572381.62449  20504128.849    20504128.7074   20504136.5264
        -0.000          -0.000
 -18422515.764 9 -14336552.45548  21666708.612    21666707.9804   21666716.7374
        -0.000          -0.000
 -15039718.509 9 -11464970.43848  22198308.474    22198307.9714   22198318.3114
        -0.000          -0.000
   -440826.849 9   -321971.90947  23310862.830    23310862.8954   23310873.7994
        -0.000          -0.000
  -6902233.877 9  -5367500.15847  22477903.346    22477903.4924   22477913.8244
        -0.000          -0.000
 99  4 13  0 29 30.0000000  0  6 22  6 17 23 30 26                   0.000884767
  -6501778.215 9  -4864954.91145  23871605.614    23871605.4414   23871617.5714
        -0.000          -0.000
 -23315898.078 9 -17562793.32849  20506470.440    20506470.3164   20506478.0884
        -0.000          -0.000
 -18447114.188 9 -14355720.01548  21662027.541    21662026.9214   21662035.7484
        -0.000          -0.000
 -15102854.305 9 -11514167.03748  22186294.053    22186293.4894   22186303.7714
        -0.000          -0.000
   -333578.274 9   -238401.76447  23331271.771    23331271.7974   23331282.7624
        -0.000          -0.000
  -6943135.608 9  -5399371.52047  22470119.820    22470119.9504   22470130.2644
        -0.000          -0.000
 99  4 13  0 30  0.0000000  0  6 22  6 17 23 30 26                   0.000890096
  -6531803.774 9  -4888351.38745  23865892.052    23865891.7764   23865903.8284
        -0.000          -0.000
 -23303132.889 9 -17552846.41649  20508899.639    20508899.5144   20508907.2804
        -0.000          -0.000
 -18471561.751 9 -14374770.03348  21657375.039    21657374.5424   21657383.4774
        -0.000          -0.000
 -15165626.148 9 -11563080.03248  22174348.824    22174348.2694   22174358.4944
        -0.000          -0.000
   -226192.563 9   -154724.76347  23351706.480    23351706.5704   23351717.7344
        -0.000          -0.000
  -6983562.412 9  -5430872.80947  22462426.843    22462427.0154   22462437.3414
        -0.000          -0.000
 99  4 13  0 30 30.0000000  0  6 22  6 17 23 30 26                   0.000895436
  -6561348.412 9  -4911373.13445  23860269.945    23860269.6594   23860281.4904
        -0.000          -0.000
 -23289913.017 9 -17542545.21049  20511415.342    20511415.1934   20511422.8884
        -0.000          -0.000
 -18495847.384 9 -14393693.86348  21652753.535    21652753.1614   21652762.0884
        -0.000          -0.000
 -15228041.328 9 -11611715.12048  22162471.269    22162470.8414   22162481.1844
        -0.000          -0.000
   -118648.818 9    -70924.62547  23372171.217    23372171.3734   23372182.7984
        -0.000          -0.000
  -7023510.039 9  -5462000.69647  22454825.105    22454825.2384   22454835.5704
        -0.000          -0.000
 99  4 13  0 31  0.0000000  0  6 22  6 17 23 30 26                   0.000900786
  -6590415.626 8  -4934022.85445  23854738.711    23854738.2584   23854749.8994
        -0.000          -0.000
 -23276240.794 9 -17531891.51949  20514017.020    20514016.8924   20514024.5944
        -0.000          -0.000
 -18519959.380 9 -14412482.39648  21648165.221    21648164.8274   21648173.7484
        -0.000          -0.000
 -15290113.092 9 -11660082.61048  22150659.255    22150658.9784   22150669.3554
        -0.000          -0.000
    -10959.835 9     12988.69747  23392663.726    23392663.9864   23392675.4574
        -0.000          -0.000
  -7062973.338 9  -5492751.20847  22447315.236    22447315.3484   22447325.8564
        -0.000          -0.000
 99  4 13  0 31 30.0000000  0  6 22  6 17 23 30 26                   0.000906126
  -6619025.042 9  -4956315.83445  23849294.541    23849294.2174   23849305.5884
        -0.000          -0.000
 -23262140.402 9 -17520904.19249  20516700.226    20516700.1344   20516707.7924
        -0.000          -0.000
 -18543920.892 9 -14431153.65848  21643605.815    21643605.3144   21643613.9594
        -0.000          -0.000
 -15351859.114 9 -11708196.27048  22138909.444    22138909.0424   22138919.5054
        -0.000          -0.000
     96831.648 9     96981.88347  23413175.856    23413176.2454   23413187.5954
        -0.000          -0.000
  -7101977.408 9  -5523143.87247  22439892.493    22439892.7864   22439903.4234
        -0.000          -0.000
 99  4 13  0 32  0.0000000  0  6 22  6 17 23 30 26                   0.000911445
  -6647165.171 8  -4978243.16445  23843940.034    23843939.4744   23843950.5654
        -0.000          -0.000
 -23247597.617 9 -17509572.15049  20519467.726    20519467.6184   20519475.1834
        -0.000          -0.000
 -18567736.721 9 -14449711.40348  21639073.896    21639073.2524   21639081.8874
        -0.000          -0.000
 -15413270.484 9 -11756049.16248  22127223.018    22127222.6634   22127233.1984
        -0.000          -0.000
    204710.377 9    181043.07847  23433704.679    23433704.9944   23433716.4754
        -0.000          -0.000
  -7140543.790 9  -5553195.46847  22432553.464    22432553.7264   22432564.4724
        -0.000          -0.000
 99  4 13  0 32 30.0000000  0  7 22  6 17 23 30 26 21                0.000916743
  -6674811.942 8  -4999786.01245  23838678.953    23838678.1874   23838689.4554
        -0.000          -0.000
 -23232592.717 9 -17497880.01249  20522323.129    20522322.9824   20522330.4584
        -0.000          -0.000
 -18591400.894 9 -14468150.98248  21634570.422    21634569.8794   21634578.6584
        -0.000          -0.000
 -15474307.849 9 -11803610.62048  22115607.849    22115607.5044   22115617.9934
        -0.000          -0.000
    312682.296 9    265176.85546  23454250.981    23454251.3704   23454263.0654
        -0.000          -0.000
  -7178667.093 9  -5582901.85347  22425298.802    22425299.0194   22425309.8014
        -0.000          -0.000
   -274113.16618   -195862.00954         0.000           0.0005   25539001.6485
        -0.000          -0.000
 99  4 13  0 33  0.0000000  0  7 22  6 17 23 30 26 21                0.000922031
  -6701939.611 9  -5020924.39745  23833516.936    23833516.0604   23833526.9494
        -0.000          -0.000
 -23217105.843 9 -17485812.31949  20525270.196    20525270.0414   20525277.4064
        -0.000          -0.000
 -18614893.284 9 -14486456.68948  21630099.879    21630099.3244   21630108.1144
        -0.000          -0.000
 -15534929.193 9 -11850847.91848  22104071.838    22104071.5404   22104081.8974
        -0.000          -0.000
    420762.182 9    349394.78946  23474817.724    23474818.2624   23474830.0674
        -0.000          -0.000
  -7216326.026 9  -5612246.37747  22418132.418    22418132.6804   22418143.3004
        -0.000          -0.000
   -361351.15418   -263839.12945  25522387.766    25522384.7615   25522401.9094
        -0.000          -0.000
 99  4 13  0 33 30.0000000  0  7 22  6 17 23 30 26 21                0.000927304
  -6728559.514 9  -5041667.12645  23828451.885    23828450.8654   23828461.2274
        -0.000          -0.000
 -23201148.978 9 -17473378.39549  20528306.605    20528306.4594   20528313.8624
        -0.000          -0.000
 -18638223.781 9 -14504636.25548  21625660.155    21625659.6174   21625668.5994
        -0.000          -0.000
 -15595145.030 9 -11897769.23648  22092613.035    22092612.7734   22092623.0934
        -0.000          -0.000
    528954.670 9    433700.43346  23495405.945    23495406.6284   23495418.4264
        -0.000          -0.000
  -7253535.490 9  -5641240.64547  22411051.909    22411052.1014   22411062.3624
        -0.000          -0.000
   -448505.753 8   -331751.28145  25505801.660    25505801.5314   25505818.8634
        -0.000          -0.000
 99  4 13  0 34  0.0000000  0  7 22  6 17 23 30 26 21                0.000932569
  -6754667.716 9  -5062011.13245  23823484.267    23823483.0954   23823493.1554
        -0.000          -0.000
 -23184732.394 9 -17460586.25549  20531430.539    20531430.3974   20531437.8514
        -0.000          -0.000
 -18661370.473 9 -14522672.59548  21621255.715    21621255.1364   21621263.9744
        -0.000          -0.000
 -15654965.180 9 -11944382.24048  22081229.725    22081229.3834   22081239.5154
        -0.000          -0.000
    637264.542 9    518097.55846  23516017.008    23516017.5394   23516029.1924
        -0.000          -0.000
  -7290287.591 9  -5669878.52447  22404058.378    22404058.4634   22404068.6074
        -0.000          -0.000
   -535563.076 8   -399587.66245  25489234.785    25489234.7104   25489252.2114
        -0.000          -0.000
 99  4 13  0 34 30.0000000  0  7 22  6 17 23 30 26 21                0.000937849
  -6780247.774 8  -5081943.56945  23818616.982    23818615.6154   23818625.4994
        -0.000          -0.000
 -23167848.516 9 -17447429.98149  20534643.397    20534643.2624   20534650.6684
        -0.000          -0.000
 -18684311.889 9 -14540548.95848  21616890.277    21616889.6194   21616898.2384
        -0.000          -0.000
 -15714376.259 9 -11990676.48248  22069924.159    22069923.7804   22069933.8324
        -0.000          -0.000
    745716.486 9    602605.39246  23536655.227    23536655.5724   23536666.8444
        -0.000          -0.000
  -7326549.532 9  -5698134.49247  22397157.680    22397157.8514   22397167.9874
        -0.000          -0.000
   -622497.880 8   -467328.56945  25472691.540    25472691.1844   25472708.8464
        -0.000          -0.000
 99  4 13  0 35  0.0000000  0  7 22  6 17 23 30 26 21                0.000943137
  -6805322.080 9  -5101481.90845  23813845.367    23813843.9294   23813854.0984
        -0.000          -0.000
 -23150515.330 9 -17433923.60349  20537941.732    20537941.5894   20537949.0204
        -0.000          -0.000
 -18707075.639 9 -14558286.89648  21612558.329    21612557.7284   21612566.4024
        -0.000          -0.000
 -15773429.018 9 -12036691.49948  22058686.847    22058686.4494   22058696.4574
        -0.000          -0.000
    854283.818 9    687203.13046  23557315.080    23557315.3494   23557326.5634
        -0.000          -0.000
  -7362333.745 9  -5726018.19147  22390347.936    22390348.1854   22390358.2744
        -0.000          -0.000
   -709312.929 8   -534976.14045  25456171.270    25456170.5394   25456188.3004
        -0.000          -0.000
 99  4 13  0 35 30.0000000  0  7 22  6 17 23 30 26 21                0.000948429
  -6829894.728 9  -5120629.38245  23809169.563    23809168.1254   23809177.9364
        -0.000          -0.000
 -23132733.338 9 -17420067.50549  20541325.359    20541325.2274   20541332.7784
        -0.000          -0.000
 -18729673.780 9 -14575895.79648  21608257.911    21608257.3154   21608266.0094
        -0.000          -0.000
 -15832142.590 9 -12082442.22448  22047514.090    22047513.6744   22047523.5644
        -0.000          -0.000
    962949.311 9    771877.35946  23577993.622    23577993.8054   23578005.0834
        -0.000          -0.000
  -7397652.530 9  -5753539.21347  22383626.949    22383627.2084   22383637.3024
        -0.000          -0.000
   -796012.022 8   -602533.37845  25439672.542    25439671.8044   25439689.7684
        -0.000          -0.000
 99  4 13  0 36  0.0000000  0  7 22  6 17 23 30 26 21                0.000953729
  -6853952.364 9  -5139375.54145  23804591.640    23804590.0854   23804599.5174
        -0.000          -0.000
 -23114479.574 9 -17405843.79549  20544798.737    20544798.6424   20544806.3584
        -0.000          -0.000
 -18752111.813 9 -14593379.93248  21603987.800    21603987.3514   21603995.9534
        -0.000          -0.000
 -15890494.277 9 -12127910.95548  22036410.277    22036409.6914   22036419.5624
        -0.000          -0.000
   1071706.333 9    856622.88746  23598689.415    23598689.5774   23598700.9564
        -0.000          -0.000
  -7432482.428 9  -5780679.30847  22376998.943    22376999.2464   22377009.3124
        -0.000          -0.000
   -882594.216 8   -669999.50445  25423195.832    25423195.2694   25423213.5474
        -0.000          -0.000
 99  4 13  0 36 30.0000000  0  7 22  6 17 23 30 26 21                0.000959032
  -6877502.840 8  -5157726.51245  23800109.689    23800108.3794   23800118.0134
        -0.000          -0.000
 -23095745.747 9 -17391246.01949  20548363.625    20548363.5244   20548371.2614
        -0.000          -0.000
 -18774410.582 9 -14610755.54848  21599744.521    21599744.0684   21599752.6304
        -0.000          -0.000
 -15948479.620 9 -12173094.24148  22025375.899    22025375.3604   22025385.2984
        -0.000          -0.000
   1180556.825 9    941441.27046  23619402.969    23619403.2574   23619414.7584
        -0.000          -0.000
  -7466820.759 9  -5807436.34947  22370464.587    22370464.8794   22370474.8004
        -0.000          -0.000
   -969071.898 8   -737384.22145  25406739.504    25406738.7814   25406757.1804
        -0.000          -0.000
 99  4 13  0 37  0.0000000  0  7 22  6 17 23 30 26 21                0.000964328
  -6900565.285 8  -5175697.16445  23795720.249    23795719.4284   23795729.3764
        -0.000          -0.000
 -23076547.462 9 -17376286.32049  20552016.901    20552016.7854   20552024.6054
        -0.000          -0.000
 -18796590.991 9 -14628038.93148  21595523.874    21595523.3304   21595531.8074
        -0.000          -0.000
 -16006114.557 9 -12218004.46848  22014408.290    22014407.7134   22014417.7014
        -0.000          -0.000
   1289487.031 9   1026321.75846  23640131.574    23640131.9574   23640143.8964
        -0.000          -0.000
  -7500681.768 9  -5833821.46847  22364021.060    22364021.3904   22364031.0134
        -0.000          -0.000
  -1055470.138 8   -804707.04545  25390298.082    25390297.6244   25390315.9404
        -0.000          -0.000
 99  4 13  0 37 30.0000000  0  7 22  6 17 23 30 26 21                0.000969630
  -6923122.428 8  -5193274.09145  23791427.425    23791426.5294   23791436.8484
        -0.000          -0.000
 -23056873.053 9 -17360955.60649  20555760.813    20555760.7134   20555768.4964
        -0.000          -0.000
 -18818641.137 9 -14645220.81748  21591327.821    21591327.2364   21591335.8304
        -0.000          -0.000
 -16063364.894 9 -12262615.01648  22003513.590    22003513.0854   22003523.1954
        -0.000          -0.000
   1398510.211 9   1111274.70146  23660877.956    23660878.4754   23660890.6644
        -0.000          -0.000
  -7534045.848 9  -5859819.38247  22357672.273    22357672.4854   22357681.9504
        -0.000          -0.000
  -1141774.452 8   -871956.71145  25373874.081    25373874.0134   25373892.7254
        -0.000          -0.000
 99  4 13  0 38  0.0000000  0  7 22  6 17 23 30 26 21                0.000974927
  -6945200.444 8  -5210477.71145  23787225.277    23787224.9084   23787235.2694
        -0.000          -0.000
 -23036761.065 9 -17345283.92949  20559588.026    20559587.9234   20559595.6924
        -0.000          -0.000
 -18840583.699 9 -14662318.88548  21587152.076    21587151.5664   21587160.3724
        -0.000          -0.000
 -16120243.162 9 -12306935.64148  21992689.788    21992689.3284   21992699.3794
        -0.000          -0.000
   1507599.661 9   1196279.27546  23681636.941    23681637.5144   23681650.0624
        -0.000          -0.000
  -7566921.008 9  -5885436.29847  22351416.346    22351416.4874   22351425.9024
        -0.000          -0.000
  -1227986.459 8   -939134.50145  25357468.242    25357468.3504   25357486.8184
        -0.000          -0.000
 99  4 13  0 38 30.0000000  0  7 22  6 17 23 30 26 21                0.000980232
  -6966772.031 8  -5227286.67545  23783119.585    23783119.3114   23783130.2624
        -0.000          -0.000
 -23016197.936 9 -17329260.72049  20563501.040    20563500.9454   20563508.7824
        -0.000          -0.000
 -18862372.006 9 -14679296.73948  21583005.876    21583005.3864   21583014.1804
        -0.000          -0.000
 -16176733.228 9 -12350953.76648  21981940.076    21981939.5404   21981949.4144
        -0.000          -0.000
   1616774.066 9   1281350.03946  23702412.592    23702412.9714   23702425.5694
        -0.000          -0.000
  -7599296.764 9  -5910664.07647  22345255.380    22345255.5314   22345264.8914
        -0.000          -0.000
  -1314069.060 8  -1006211.44145  25341087.523    25341087.2314   25341104.7874
        -0.000          -0.000
 99  4 13  0 39  0.0000000  0  7 22  6 17 23 30 26 21                0.000985548
  -6987812.562 8  -5243681.87345  23779115.518    23779114.9924   23779126.3424
        -0.000          -0.000
 -22995162.729 9 -17312869.66249  20567503.768    20567503.7534   20567511.6194
        -0.000          -0.000
 -18883983.765 9 -14696137.02848  21578893.346    21578892.8434   21578901.5824
        -0.000          -0.000
 -16232814.157 9 -12394653.08848  21971268.228    21971267.6184   21971277.3654
        -0.000          -0.000
   1726032.495 9   1366486.24346  23723204.066    23723204.3074   23723217.1664
        -0.000          -0.000
  -7631164.978 9  -5935496.34647  22339191.193    22339191.2894   22339200.5024
        -0.000          -0.000
  -1399994.161 8  -1073165.62145  25324735.867    25324735.4134   25324752.7274
        -0.000          -0.000
 99  4 13  0 39 30.0000000  0  7 22  6 17 23 30 26 21                0.000990855
  -7008339.360 8  -5259676.71945  23775208.924    23775208.5164   23775220.2234
        -0.000          -0.000
 -22973657.751 9 -17296112.54149  20571596.141    20571596.1204   20571603.8744
        -0.000          -0.000
 -18905422.666 9 -14712842.62348  21574813.928    21574813.3174   21574821.8344
        -0.000          -0.000
 -16288493.260 9 -12438039.30248  21960672.496    21960671.9934   21960681.8384
        -0.000          -0.000
   1835357.003 9   1451673.99446  23744007.647    23744007.9764   23744021.3514
        -0.000          -0.000
  -7662534.903 9  -5959940.35147  22333221.716    22333221.7634   22333230.9874
        -0.000          -0.000
  -1485768.828 8  -1140002.61745  25308412.365    25308412.3914   25308429.6784
        -0.000          -0.000
 99  4 13  0 40  0.0000000  0  7 22  6 17 23 30 26 21                0.000996157
  -7028341.231 8  -5275262.53745  23771402.505    23771402.2804   23771414.1844
        -0.000          -0.000
 -22951662.394 9 -17278973.30049  20575781.856    20575781.8224   20575789.4294
        -0.000          -0.000
 -18926665.905 9 -14729395.75648  21570771.641    21570770.9064   21570779.2864
        -0.000          -0.000
 -16343759.641 9 -12481103.91148  21950155.573    21950155.1044   21950164.9134
        -0.000          -0.000
   1944767.048 9   1536928.34246  23764827.856    23764828.1124   23764841.5554
        -0.000          -0.000
  -7693401.793 9  -5983992.39547  22327347.833    22327347.9094   22327357.2004
        -0.000          -0.000
  -1571398.896 8  -1206726.92045  25292117.008    25292117.3034   25292134.1064
        -0.000          -0.000
 99  4 13  0 40 30.0000000  0  7 22  6 17 23 30 26 21                0.001001440
  -7047832.430 8  -5290450.43845  23767693.973    23767693.4374   23767705.3074
        -0.000          -0.000
 -22929166.731 9 -17261444.21249  20580062.638    20580062.6094   20580070.1854
        -0.000          -0.000
 -18947722.952 9 -14745803.81348  21566764.545    21566763.8104   21566772.2334
        -0.000          -0.000
 -16398636.221 9 -12523864.77348  21939712.964    21939712.4534   21939722.2734
        -0.000          -0.000
   2054250.922 9   1622240.27246  23785662.253    23785662.3784   23785675.8354
        -0.000          -0.000
  -7723785.039 9  -6007667.55847  22321566.030    22321566.0424   22321575.3944
        -0.000          -0.000
  -1656919.815 8  -1273366.19945  25275842.687    25275842.6104   25275859.3504
        -0.000          -0.000
 99  4 13  0 41  0.0010000  0  7 22  6 17 23 30 26 21                0.001006706
  -7066826.371 8  -5305250.91245  23764079.741    23764079.2514   23764090.7404
        -0.000          -0.000
 -22906165.102 9 -17243520.87049  20584439.687    20584439.6694   20584447.2604
        -0.000          -0.000
 -18968606.319 9 -14762076.52748  21562790.591    21562789.8114   21562798.2004
        -0.000          -0.000
 -16453128.170 9 -12566325.92048  21929343.676    21929343.0224   21929352.8054
        -0.000          -0.000
   2163819.752 9   1707618.37946  23806513.047    23806513.0034   23806526.3934
        -0.000          -0.000
  -7753662.867 9  -6030948.90147  22315880.373    22315880.3984   22315889.7074
        -0.000          -0.000
  -1742348.121 8  -1339933.32345  25259586.022    25259585.5254   25259602.7724
        -0.000          -0.000
 99  4 13  0 41 30.0010000  0  7 22  6 17 23 30 26 21                0.001011949
  -7085315.242 8  -5319657.77745  23760561.803    23760560.9064   23760572.5024
        -0.000          -0.000
 -22882652.766 9 -17225199.57349  20588913.994    20588913.9814   20588921.6404
        -0.000          -0.000
 -18989282.954 9 -14778188.15448  21558855.876    21558855.1064   21558863.4224
        -0.000          -0.000
 -16507227.837 9 -12608481.41348  21919048.647    21919048.0994   21919057.9834
        -0.000          -0.000
   2273480.093 9   1793067.76846  23827381.238    23827381.2554   23827394.0554
        -0.000          -0.000
  -7783002.944 9  -6053811.22147  22310296.920    22310297.0234   22310306.4164
        -0.000          -0.000
  -1827658.870 8  -1406408.86345  25243351.245    25243351.0634   25243368.3074
        -0.000          -0.000
 99  4 13  0 42  0.0010000  0  7 22  6 17 23 30 26 21                0.001017204
  -7103308.368 8  -5333678.34945  23757138.082    23757137.0864   23757148.6134
        -0.000          -0.000
 -22858657.984 9 -17206502.34249  20593480.142    20593480.0904   20593487.7054
        -0.000          -0.000
 -19009785.245 9 -14794163.92548  21554954.301    21554953.5364   21554961.8744
        -0.000          -0.000
 -16560966.786 9 -12650355.80948  21908822.444    21908821.9484   21908831.6884
        -0.000          -0.000
   2383197.807 9   1878561.89946  23848260.168    23848260.2624   23848272.5454
        -0.000          -0.000
  -7811816.799 9  -6076263.48447  22304813.653    22304813.7894   22304823.1454
        -0.000          -0.000
  -1912867.146 8  -1472804.59545  25227136.326    25227136.2374   25227153.3804
        -0.000          -0.000
 99  4 13  0 42 30.0010000  0  7 22  6 17 23 30 26 21                0.001022473
  -7120796.686 9  -5347305.57146  23753810.339    23753809.3594   23753821.0664
        -0.000          -0.000
 -22834183.896 9 -17187431.62449  20598137.414    20598137.3664   20598144.9994
        -0.000          -0.000
 -19030124.388 9 -14810012.57348  21551083.856    21551083.1464   21551091.3654
        -0.000          -0.000
 -16614347.003 9 -12691950.68048  21898664.508    21898663.9614   21898673.6624
        -0.000          -0.000
   2492957.150 9   1964088.42646  23869146.866    23869146.9444   23869159.1734
        -0.000          -0.000
  -7840097.226 9  -6098300.08147  22299431.926    22299432.0154   22299441.4094
        -0.000          -0.000
  -1997945.954 9  -1539099.45445  25210946.428    25210946.2354   25210963.1164
        -0.000          -0.000
 99  4 13  0 43  0.0010000  0  7 22  6 17 23 30 26 21                0.001027756
  -7137789.246 9  -5360546.49446  23750577.263    23750576.1184   23750587.6094
        -0.000          -0.000
 -22809262.706 9 -17168012.52549  20602879.756    20602879.7434   20602887.3014
        -0.000          -0.000
 -19050329.060 9 -14825756.43948  21547238.926    21547238.1784   21547246.4574
        -0.000          -0.000
 -16667368.503 9 -12733266.03748  21888574.694    21888574.1864   21888583.8804
        -0.000          -0.000
   2602741.904 9   2049634.76546  23890038.287    23890038.2914   23890050.7064
        -0.000          -0.000
  -7867857.463 9  -6119931.35547  22294149.152    22294149.2824   22294158.5774
        -0.000          -0.000
  -2082891.556 9  -1605290.49945  25194781.802    25194781.5064   25194798.0704
        -0.000          -0.000
 99  4 13  0 43 30.0010000  0  7 22  6 17 23 30 26 21                0.001033066
  -7154237.619 9  -5373363.38946  23747447.469    23747446.2444   23747457.2284
        -0.000          -0.000
 -22783864.597 9 -17148221.79349  20607712.959    20607712.8574   20607720.3484
        -0.000          -0.000
 -19070379.655 9 -14841380.23448  21543423.082    21543422.4894   21543431.0024
        -0.000          -0.000
 -16719979.285 9 -12774261.36248  21878562.890    21878562.5464   21878572.1804
        -0.000          -0.000
   2712574.240 9   2135218.20646  23910938.246    23910938.5214   23910951.2034
        -0.000          -0.000
  -7895081.404 9  -6141144.71847  22288968.496    22288968.6184   22288977.9264
        -0.000          -0.000
  -2167652.826 9  -1671337.89645  25178652.460    25178651.9624   25178668.1614
        -0.000          -0.000
 99  4 13  0 44  0.0010000  0  7 22  6 17 23 30 26 21                0.001038385
  -7170145.271 9  -5385758.93146  23744420.274    23744419.1414   23744429.9044
        -0.000          -0.000
 -22757989.477 9 -17128059.36349  20612636.888    20612636.8084   20612644.1864
        -0.000          -0.000
 -19090318.413 9 -14856916.89748  21539628.624    21539628.1164   21539636.9004
        -0.000          -0.000
 -16772179.747 9 -12814936.94348  21868629.394    21868629.0034   21868638.5594
        -0.000          -0.000
   2822443.464 9   2220830.37146  23931845.734    23931846.1784   23931858.9484
        -0.000          -0.000
  -7921796.553 9  -6161961.63547  22283884.551    22283884.7384   22283894.2004
        -0.000          -0.000
  -2252241.433 9  -1737250.76145  25162555.756    25162554.9464   25162570.6874
        -0.000          -0.000
 99  4 13  0 44 30.0010000  0  7 22  6 17 23 30 26 21                0.001043715
  -7185496.933 9  -5397721.23346  23741498.602    23741497.5744   23741508.4804
        -0.000          -0.000
 -22731611.948 9 -17107505.44449  20617656.471    20617656.3244   20617663.6854
        -0.000          -0.000
 -19110102.988 9 -14872333.40948  21535863.797    21535863.2724   21535872.0584
        -0.000          -0.000
 -16823937.341 9 -12855267.44148  21858780.084    21858779.7224   21858789.2914
        -0.000          -0.000
   2932378.827 9   2306494.09546  23952765.842    23952766.3644   23952779.1644
        -0.000          -0.000
  -7947984.572 9  -6182367.79347  22278901.031    22278901.2684   22278910.8714
        -0.000          -0.000
  -2336636.154 8  -1803012.52545  25146495.583    25146495.0054   25146510.5154
        -0.000          -0.000
 99  4 13  0 45  0.0010000  0  7 22  6 17 23 30 26 21                0.001049036
  -7200326.330 9  -5409276.57746  23738676.529    23738675.5474   23738686.5474
        -0.000          -0.000
 -22704767.688 9 -17086587.83649  20622764.748    20622764.6474   20622772.0044
        -0.000          -0.000
 -19129741.060 9 -14887635.76248  21532126.977    21532126.3594   21532134.9754
        -0.000          -0.000
 -16875275.043 9 -12895270.74348  21849010.917    21849010.4654   21849020.1184
        -0.000          -0.000
   3042355.989 9   2392190.36346  23973694.442    23973694.8154   23973707.3814
        -0.000          -0.000
  -7973664.731 9  -6202378.19047  22274014.255    22274014.4414   22274024.1754
        -0.000          -0.000
  -2420882.768 8  -1868658.92545  25130463.316    25130462.9944   25130478.6734
        -0.000          -0.000
 99  4 13  0 45 30.0010000  0  7 22  6 17 23 30 26 21                0.001054355
  -7214624.313 9  -5420417.85646  23735955.929    23735954.8504   23735965.6204
        -0.000          -0.000
 -22677441.201 9 -17065294.46649  20627964.823    20627964.6774   20627972.1264
        -0.000          -0.000
 -19149219.293 9 -14902813.55048  21528420.421    21528419.7954   21528428.2144
        -0.000          -0.000
 -16926208.496 9 -12934959.05748  21839318.514    21839318.0654   21839327.7384
        -0.000          -0.000
   3152374.408 9   2477918.77346  23994630.567    23994630.8334   23994643.4844
        -0.000          -0.000
  -7998828.279 9  -6221986.05347  22269225.654    22269225.9154   22269235.5914
        -0.000          -0.000
  -2504987.762 8  -1934194.95545  25114457.747    25114457.6344   25114473.8094
        -0.000          -0.000
 99  4 13  0 46  0.0010000  0  7 22  6 17 23 30 26 21                0.001059668
  -7228409.531 9  -5431159.57846  23733332.905    23733331.8164   23733342.1264
        -0.000          -0.000
 -22649645.090 9 -17043635.15049  20633254.145    20633254.0464   20633261.5884
        -0.000          -0.000
 -19168541.657 9 -14917869.89448  21524743.363    21524742.7914   21524751.2204
        -0.000          -0.000
 -16976772.670 9 -12974359.60748  21829696.386    21829695.9564   21829705.5754
        -0.000          -0.000
   3262414.533 9   2563664.09546  24015570.486    24015570.8464   24015583.6874
        -0.000          -0.000
  -8023479.583 9  -6241194.76447  22264534.697    22264534.9234   22264544.6544
        -0.000          -0.000
  -2588977.850 8  -1999641.47945  25098474.180    25098474.2594   25098490.7494
        -0.000          -0.000
 99  4 13  0 46 30.0010000  0  7 22  6 17 23 30 26 21                0.001065008
  -7241645.027 9  -5441472.93046  23730814.496    23730813.4494   23730823.4164
        -0.000          -0.000
 -22621341.272 9 -17021580.23749  20638640.138    20638640.0374   20638647.5954
        -0.000          -0.000
 -19187645.887 9 -14932756.26948  21521107.922    21521107.4174   21521115.8764
        -0.000          -0.000
 -17026921.197 9 -13013436.28148  21820153.386    21820152.9624   21820162.6404
        -0.000          -0.000
   3372515.161 9   2649456.54146  24036521.947    24036522.2924   24036535.5104
        -0.000          -0.000
  -8047554.474 9  -6259954.31947  22259953.416    22259953.6254   22259963.3954
        -0.000          -0.000
  -2672814.815 8  -2064968.69245  25082520.410    25082520.3534   25082536.7114
        -0.000          -0.000
 99  4 13  0 47  0.0010000  0  7 22  6 17 23 30 26 21                0.001070330
  -7254398.871 9  -5451410.95746  23728387.816    23728386.6394   23728396.6054
        -0.000          -0.000
 -22592601.353 9 -16999185.49749  20644109.078    20644109.0014   20644116.6394
        -0.000          -0.000
 -19206625.591 9 -14947545.61148  21517496.350    21517495.7584   21517504.1974
        -0.000          -0.000
 -17076724.834 9 -13052244.21848  21810676.139    21810675.6144   21810685.2364
        -0.000          -0.000
   3482605.846 9   2735241.27446  24057471.421    24057471.7894   24057485.2954
        -0.000          -0.000
  -8071124.254 9  -6278320.28347  22255468.192    22255468.3604   22255478.2324
        -0.000          -0.000
  -2756567.127 8  -2130229.94745  25066582.678    25066582.4774   25066598.8754
        -0.000          -0.000
 99  4 13  0 47 30.0010000  0  7 22  6 17 23 30 26 21                0.001075657
  -7266634.744 9  -5460945.39646  23726059.749    23726058.4614   23726068.3924
        -0.000          -0.000
 -22563363.822 9 -16976403.01149  20649672.786    20649672.7394   20649680.3874
        -0.000          -0.000
 -19225462.799 9 -14962223.90948  21513911.765    21513911.1994   21513919.4614
        -0.000          -0.000
 -17126146.528 9 -13090754.54148  21801271.413    21801270.8854   21801280.4694
        -0.000          -0.000
   3592714.783 9   2821040.23546  24078424.343    24078424.7344   24078438.3664
        -0.000          -0.000
  -8094150.372 9  -6296262.61047  22251086.263    22251086.4444   22251096.3974
        -0.000          -0.000
  -2840181.421 8  -2195383.65845  25050671.063    25050670.9724   25050687.5394
        -0.000          -0.000
 99  4 13  0 48  0.0010000  0  7 22  6 17 23 30 26 21                0.001080960
  -7278390.469 9  -5470105.70346  23723822.825    23723821.5904   23723831.2994
        -0.000          -0.000
 -22533654.037 9 -16953252.52749  20655326.433    20655326.3854   20655333.9794
        -0.000          -0.000
 -19244172.371 9 -14976802.75148  21510351.478    21510350.8944   21510358.9874
        -0.000          -0.000
 -17175194.250 9 -13128973.44548  21791937.784    21791937.2264   21791946.7664
        -0.000          -0.000
   3702818.866 9   2906835.37746  24099376.364    24099376.8284   24099390.4824
        -0.000          -0.000
  -8116663.454 9  -6313805.18647  22246801.984    22246802.2494   22246812.1414
        -0.000          -0.000
  -2923677.607 9  -2260445.32645  25034782.522    25034782.2104   25034798.6914
        -0.000          -0.000
 99  4 13  0 48 30.0010000  0  7 22  6 17 23 30 26 21                0.001086256
  -7289641.250 9  -5478872.54246  23721681.931    23721680.5134   23721690.1714
        -0.000          -0.000
 -22503445.989 9 -16929713.79449  20661074.923    20661074.8164   20661082.3284
        -0.000          -0.000
 -19262718.820 9 -14991254.49748  21506822.217    21506821.5774   21506829.6864
        -0.000          -0.000
 -17223828.960 9 -13166870.52948  21782682.660    21782682.1734   21782691.6404
        -0.000          -0.000
   3812964.055 9   2992662.55946  24120336.540    24120336.8284   24120350.3744
        -0.000          -0.000
  -8138634.730 9  -6330925.58347  22242620.937    22242621.1944   22242630.8784
        -0.000          -0.000
  -3007015.485 9  -2325383.62445  25018924.476    25018923.7204   25018939.7694
        -0.000          -0.000
 99  4 13  0 49  0.0010000  0  7 22  6 17 23 30 26 21                0.001091547
  -7300374.443 9  -5487236.06946  23719639.022    23719637.8174   23719647.7644
        -0.000          -0.000
 -22472734.281 9 -16905782.59549  20666919.147    20666919.0104   20666926.4924
        -0.000          -0.000
 -19281096.931 9 -15005575.06148  21503324.958    21503324.2684   21503332.3574
        -0.000          -0.000
 -17272059.171 9 -13204452.41748  21773504.497    21773504.0574   21773513.4154
        -0.000          -0.000
   3923161.851 9   3078530.71546  24141306.702    24141306.9604   24141320.3514
        -0.000          -0.000
  -8160077.989 9  -6347634.54347  22238540.508    22238540.7284   22238550.2234
        -0.000          -0.000
  -3090185.117 9  -2390190.81245  25003097.637    25003096.8264   25003113.0354
        -0.000          -0.000
 99  4 13  0 49 30.0010000  0  7 22  6 17 23 30 26 21                0.001096836
  -7310591.139 9  -5495197.10746  23717694.209    23717693.3044   23717703.6784
        -0.000          -0.000
 -22441506.365 9 -16881449.16449  20672861.612    20672861.5164   20672869.0024
        -0.000          -0.000
 -19299286.593 9 -15019748.77448  21499863.571    21499862.8654   21499871.0424
        -0.000          -0.000
 -17319884.887 9 -13241719.12448  21764403.391    21764403.0474   21764412.2124
        -0.000          -0.000
   4033405.796 9   3164434.87046  24162285.807    24162285.9174   24162299.0704
        -0.000          -0.000
  -8180975.825 9  -6363918.49147  22234563.732    22234563.9124   22234573.3274
        -0.000          -0.000
  -3173187.201 9  -2454867.46645  24987302.401    24987301.7424   24987318.0374
        -0.000          -0.000
 99  4 13  0 50  0.0010000  0  7 22  6 17 23 30 26 21                0.001102114
  -7320310.062 9  -5502770.28946  23715844.593    23715843.7334   23715854.3044
        -0.000          -0.000
 -22409798.549 9 -16856741.77849  20678895.493    20678895.3494   20678902.8604
        -0.000          -0.000
 -19317301.008 9 -15033785.95548  21496435.352    21496434.7084   21496443.1724
        -0.000          -0.000
 -17367324.345 9 -13278684.83548  21755376.011    21755375.5574   21755384.7184
        -0.000          -0.000
   4143680.353 9   3250362.85946  24183270.622    24183270.6994   24183283.8694
        -0.000          -0.000
  -8201346.442 9  -6379791.61847  22230687.218    22230687.4154   22230696.9544
        -0.000          -0.000
  -3256056.674 9  -2519440.78045  24971532.388    24971531.8984   24971548.2434
        -0.000          -0.000
 99  4 13  0 50 30.0010000  0  7 22  6 17 23 30 26 21                0.001107423
  -7329486.499 9  -5509920.75646  23714098.375    23714097.4624   23714108.2184
        -0.000          -0.000
 -22377587.951 9 -16831642.61949  20685025.000    20685024.8554   20685032.4734
        -0.000          -0.000
 -19335120.367 9 -15047671.13748  21493044.287    21493043.6864   21493052.2174
        -0.000          -0.000
 -17414348.606 9 -13315327.02348  21746427.343    21746426.9724   21746436.3594
        -0.000          -0.000
   4254008.720 9   3336332.77946  24204265.830    24204265.9144   24204278.8174
        -0.000          -0.000
  -8221133.317 9  -6395209.89347  22226921.850    22226922.1024   22226931.7064
        -0.000          -0.000
  -3338761.559 8  -2583885.83445  24955794.145    24955793.7744   24955809.9224
        -0.000          -0.000
 99  4 13  0 51  0.0010000  0  7 22  6 17 23 30 26 21                0.001112737
  -7338145.368 9  -5516667.91346  23712450.327    23712449.6134   23712460.4924
        -0.000          -0.000
 -22344892.722 9 -16806165.82349  20691246.666    20691246.4894   20691254.2624
        -0.000          -0.000
 -19352782.262 9 -15061433.61748  21489683.286    21489682.7024   21489691.1974
        -0.000          -0.000
 -17460984.291 9 -13351666.42548  21737552.713    21737552.3564   21737561.8024
        -0.000          -0.000
   4364327.770 9   3422295.42846  24225259.547    24225259.5014   24225272.2314
        -0.000          -0.000
  -8240355.973 9  -6410188.49048  22223264.001    22223264.1644   22223273.7874
        -0.000          -0.000
  -3421338.187 9  -2648230.95345  24940080.385    24940079.9724   24940096.0524
        -0.000          -0.000
 99  4 13  0 51 30.0010000  0  7 22  6 17 23 30 26 21                0.001118059
  -7346276.190 9  -5523003.60246  23710903.033    23710902.2554   23710913.2544
        -0.000          -0.000
 -22311703.249 9 -16780303.90349  20697562.217    20697562.1064   20697569.9964
        -0.000          -0.000
 -19370299.041 9 -15075083.01548  21486350.026    21486349.3704   21486357.7704
        -0.000          -0.000
 -17507207.692 9 -13387684.56348  21728756.618    21728756.2654   21728765.6814
        -0.000          -0.000
   4474628.694 9   3508243.98346  24246249.891    24246249.5904   24246262.0894
        -0.000          -0.000
  -8258998.689 9  -6424715.19848  22219716.447    22219716.5904   22219726.1214
        -0.000          -0.000
  -3503775.768 9  -2712467.73245  24924392.973    24924392.4834   24924408.5164
        -0.000          -0.000
 99  4 13  0 52  0.0010000  0  7 22  6 17 23 30 26 21                0.001123395
  -7353859.698 9  -5528912.80546  23709460.240    23709459.2324   23709470.0484
        -0.000          -0.000
 -22278026.031 9 -16754061.93149  20703970.743    20703970.6294   20703978.5614
        -0.000          -0.000
 -19387668.391 9 -15088617.53948  21483044.637    21483044.1184   21483052.3654
        -0.000          -0.000
 -17553001.444 9 -13423367.91948  21720042.251    21720041.9784   21720051.2074
        -0.000          -0.000
   4584932.130 9   3594194.49346  24267240.269    24267240.0384   24267252.5604
        -0.000          -0.000
  -8277068.270 9  -6438795.29147  22216277.932    22216277.9914   22216287.4564
        -0.000          -0.000
  -3586053.627 9  -2776580.07145  24908735.734    24908735.1334   24908751.2554
        -0.000          -0.000
 99  4 13  0 52 30.0010000  0  7 22  6 17 23 30 26 21                0.001128730
  -7360914.582 9  -5534410.12446  23708117.997    23708117.0124   23708127.6674
        -0.000          -0.000
 -22243868.863 9 -16727445.96849  20710470.628    20710470.5694   20710478.4884
        -0.000          -0.000
 -19404901.253 9 -15102045.70948  21479765.375    21479764.8084   21479773.0814
        -0.000          -0.000
 -17598393.359 9 -13458738.16048  21711404.621    21711404.2774   21711413.2184
        -0.000          -0.000
   4695213.288 9   3680127.64046  24288226.535    24288226.2704   24288238.6864
        -0.000          -0.000
  -8294593.431 9  -6452451.17047  22212942.987    22212943.0704   22212952.3544
        -0.000          -0.000
  -3668170.016 9  -2840566.57645  24893109.466    24893108.6504   24893124.5974
        -0.000          -0.000
 99  4 13  0 53  0.0010000  0  7 22  6 17 23 30 26 21                0.001134076
  -7367397.313 9  -5539461.55946  23706884.225    23706883.2174   23706894.1554
        -0.000          -0.000
 -22209158.084 9 -16700398.62249  20717076.045    20717075.8574   20717083.7944
        -0.000          -0.000
 -19421945.690 9 -15115327.04748  21476521.971    21476521.4134   21476529.6374
        -0.000          -0.000
 -17643326.791 9 -13493751.13448  21702854.151    21702853.7674   21702862.5724
        -0.000          -0.000
   4805526.784 9   3766085.94046  24309218.494    24309218.2784   24309230.7474
        -0.000          -0.000
  -8311542.908 9  -6465658.46847  22209717.591    22209717.6434   22209726.8144
        -0.000          -0.000
  -3750066.786 9  -2904381.94545  24877524.840    24877524.0594   24877539.6944
        -0.000          -0.000
 99  4 13  0 53 30.0010000  0  7 22  6 17 23 30 26 21                0.001139430
  -7373337.902 8  -5544090.57146  23705753.403    23705752.6094   23705763.7844
        -0.000          -0.000
 -22173922.130 9 -16672942.04849  20723781.100    20723780.9554   20723789.0064
        -0.000          -0.000
 -19438818.705 9 -15128474.81648  21473311.191    21473310.5674   21473318.7764
        -0.000          -0.000
 -17687815.819 9 -13528417.83648  21694388.040    21694387.7184   21694396.5664
        -0.000          -0.000
   4915883.071 9   3852077.64946  24330218.597    24330218.4014   24330231.0094
        -0.000          -0.000
  -8327931.763 9  -6478428.92247  22206598.741    22206598.7824   22206608.0314
        -0.000          -0.000
  -3831749.297 9  -2968030.34645  24861980.962    24861980.1304   24861995.6784
        -0.000          -0.000
 99  4 13  0 54  0.0010000  0  7 22  6 17 23 30 26 21                0.001144767
  -7378790.374 9  -5548339.23645  23704715.856    23704715.1674   23704726.1894
        -0.000          -0.000
 -22138206.688 9 -16645111.84649  20730577.532    20730577.4004   20730585.4684
        -0.000          -0.000
 -19455544.694 9 -15141508.02548  21470128.270    21470127.7104   21470135.9244
        -0.000          -0.000
 -17731911.475 9 -13562777.99848  21685996.844    21685996.5674   21686005.3284
        -0.000          -0.000
   5026246.067 9   3938074.52946  24351219.529    24351219.4224   24351232.6584
        -0.000          -0.000
  -8343791.804 9  -6490787.32147  22203580.423    22203580.5224   22203589.8904
        -0.000          -0.000
  -3913263.188 9  -3031547.34245  24846468.976    24846468.1304   24846483.6654
        -0.000          -0.000
 99  4 13  0 54 30.0010000  0  7 22  6 17 23 30 26 21                0.001150097
  -7383756.269 8  -5552208.73545  23703771.212    23703770.2214   23703780.9564
        -0.000          -0.000
 -22102000.657 9 -16616899.37749  20737467.251    20737467.1304   20737475.2024
        -0.000          -0.000
 -19472124.582 9 -15154427.37548  21466973.330    21466972.7244   21466980.7414
        -0.000          -0.000
 -17775602.543 9 -13596822.89448  21677682.802    21677682.4334   21677691.0664
        -0.000          -0.000
   5136613.637 9   4024074.99646  24372221.442    24372221.3724   24372235.2724
        -0.000          -0.000
  -8359095.595 9  -6502712.24747  22200668.095    22200668.2374   22200677.5594
        -0.000          -0.000
  -3994602.824 8  -3094928.58745  24830989.940    24830989.2954   24831005.0254
        -0.000          -0.000
 99  4 13  0 55  0.0010000  0  7 22  6 17 23 30 26 21                0.001155407
  -7388262.035 8  -5555719.70745  23702913.569    23702912.6564   23702923.1694
        -0.000          -0.000
 -22065351.718 9 -16588341.78149  20744441.325    20744441.2024   20744449.1874
        -0.000          -0.000
 -19488600.144 9 -15167265.43948  21463838.171    21463837.4954   21463845.4384
        -0.000          -0.000
 -17818902.152 9 -13630562.76248  21669443.232    21669442.7874   21669451.4224
        -0.000          -0.000
   5246956.394 9   4110056.12646  24393218.985    24393218.9854   24393233.3404
        -0.000          -0.000
  -8373855.027 9  -6514213.00647  22197859.438    22197859.5824   22197868.8074
        -0.000          -0.000
  -4075801.060 9  -3158199.68445  24815538.136    24815537.5804   24815553.2814
        -0.000          -0.000
 99  4 13  0 55 30.0010000  0  7 22  6 17 23 30 26 21                0.001160728
  -7392277.075 8  -5558848.27045  23702149.053    23702148.2754   23702158.9024
        -0.000          -0.000
 -22028267.644 9 -16559445.11449  20751498.223    20751498.0874   20751506.0094
        -0.000          -0.000
 -19504940.078 9 -15179997.83048  21460728.659    21460728.0374   21460735.9984
        -0.000          -0.000
 -17861800.315 9 -13663989.81248  21661279.889    21661279.4784   21661288.2424
        -0.000          -0.000
   5357283.616 9   4196025.14146  24414213.847    24414213.8004   24414228.5884
        -0.000          -0.000
  -8388039.032 9  -6525265.38447  22195160.334    22195160.4304   22195169.6674
        -0.000          -0.000
  -4156840.851 9  -3221347.29745  24800116.871    24800116.0174   24800131.5514
        -0.000          -0.000
 99  4 13  0 56  0.0010000  0  7 22  6 17 23 30 26 21                0.001166068
  -7395764.588 8  -5561565.79945  23701485.148    23701484.4654   23701495.0184
        -0.000          -0.000
 -21990723.878 9 -16530190.23949  20758642.618    20758642.4814   20758650.3994
        -0.000          -0.000
 -19521117.913 9 -15192603.89848  21457650.053    21457649.4294   21457657.4244
        -0.000          -0.000
 -17904288.784 9 -13697097.63048  21653194.603    21653194.2154   21653202.9354
        -0.000          -0.000
   5467591.319 9   4281978.94646  24435204.963    24435205.0394   24435219.7304
        -0.000          -0.000
  -8401636.210 9  -6535860.50947  22192572.820    22192572.9314   22192582.0584
        -0.000          -0.000
  -4237727.377 9  -3284375.49845  24784724.567    24784723.6934   24784739.1144
        -0.000          -0.000
 99  4 13  0 56 30.0010000  0  7 22  6 17 23 30 26 21                0.001171436
  -7398705.379 8  -5563857.29845  23700925.269    23700924.7534   23700935.2424
        -0.000          -0.000
 -21952694.383 9 -16500556.88949  20765879.370    20765879.2814   20765887.2124
        -0.000          -0.000
 -19537118.130 9 -15205071.57148  21454605.198    21454604.5774   21454612.6754
        -0.000          -0.000
 -17946356.111 9 -13729877.27748  21645189.512    21645189.0384   21645197.6754
        -0.000          -0.000
   5577890.874 9   4367926.42346  24456194.683    24456194.7484   24456209.2494
        -0.000          -0.000
  -8414630.625 9  -6545985.92747  22190099.931    22190100.0844   22190109.1664
        -0.000          -0.000
  -4318444.033 9  -3347271.32545  24769364.380    24769363.6164   24769378.9004
        -0.000          -0.000
 99  4 13  0 57  0.0010000  0  7 22  6 17 23 30 26 21                0.001176813
  -7401121.683 8  -5565740.11545  23700464.692    23700464.6004   23700475.3654
        -0.000          -0.000
 -21914193.398 9 -16470556.13249  20773205.931    20773205.8194   20773213.7504
        -0.000          -0.000
 -19552953.591 9 -15217410.86648  21451591.720    21451591.1334   21451599.2584
        -0.000          -0.000
 -17988050.499 9 -13762366.32848  21637255.277    21637254.8204   21637263.4174
        -0.000          -0.000
   5688145.728 9   4453839.06446  24477175.549    24477175.6544   24477189.9834
        -0.000          -0.000
  -8427060.023 9  -6555671.08247  22187734.512    22187734.7214   22187743.8724
        -0.000          -0.000
  -4399025.528 9  -3410061.85046  24754029.886    24754029.3624   24754044.5684
        -0.000          -0.000
 99  4 13  0 57 30.0010000  0  7 22  6 17 23 30 26 21                0.001182200
  -7403007.368 8  -5567209.45245  23700105.748    23700105.6794   23700116.4574
        -0.000          -0.000
 -21875186.201 9 -16440160.93049  20780628.769    20780628.6804   20780636.5134
        -0.000          -0.000
 -19568607.970 9 -15229609.04848  21448612.885    21448612.2654   21448620.3024
        -0.000          -0.000
 -18029368.207 9 -13794561.85748  21629392.771    21629392.2634   21629400.8234
        -0.000          -0.000
   5798364.069 9   4539723.22346  24498149.359    24498149.5434   24498163.8314
        -0.000          -0.000
  -8438917.515 9  -6564910.62247  22185477.960    22185478.2234   22185487.4234
        -0.000          -0.000
  -4479468.480 9  -3472744.42145  24738721.505    24738721.2804   24738736.6314
        -0.000          -0.000
 99  4 13  0 58  0.0010000  0  7 22  6 17 23 30 26 21                0.001187581
  -7404375.263 9  -5568275.34245  23699845.382    23699845.1194   23699856.0894
        -0.000          -0.000
 -21835656.354 9 -16409358.47849  20788151.149    20788151.0134   20788158.7054
        -0.000          -0.000
 -19584100.196 9 -15241680.87948  21445664.791    21445664.1564   21445672.1924
        -0.000          -0.000
 -18070306.880 9 -13826462.03148  21621602.298    21621601.8074   21621610.2974
        -0.000          -0.000
   5908537.832 9   4625572.67445  24519114.801    24519115.0594   24519129.2784
        -0.000          -0.000
  -8450213.005 9  -6573712.22247  22183328.552    22183328.7414   22183337.8814
        -0.000          -0.000
  -4559769.317 9  -3535316.26045  24723440.648    24723440.2394   24723455.5534
        -0.000          -0.000
 99  4 13  0 58 30.0010000  0  7 22  6 17 23 30 26 21                0.001192959
  -7405221.993 8  -5568935.11045  23699684.116    23699683.7714   23699694.9174
        -0.000          -0.000
 -21795598.446 9 -16378144.54349  20795773.857    20795773.7354   20795781.4404
        -0.000          -0.000
 -19599430.157 9 -15253626.27948  21442747.368    21442746.7764   21442754.8374
        -0.000          -0.000
 -18110849.142 9 -13858053.31648  21613887.316    21613886.7884   21613895.2334
        -0.000          -0.000
   6018674.274 9   4711393.04646  24540073.094    24540073.5114   24540087.9254
        -0.000          -0.000
  -8460941.648 9  -6582072.13747  22181286.984    22181287.1844   22181296.0304
        -0.000          -0.000
  -4639883.482 9  -3597742.65045  24708195.534    24708194.8834   24708209.9904
        -0.000          -0.000
 99  4 13  0 59  0.0010000  0  7 22  6 17 23 30 26 21                0.001198330
  -7405544.305 9  -5569186.25245  23699622.493    23699622.2434   23699633.6194
        -0.000          -0.000
 -21755022.286 9 -16346526.77249  20803495.131    20803495.0404   20803502.8214
        -0.000          -0.000
 -19614595.514 9 -15265443.41448  21439861.307    21439860.8334   21439868.9574
        -0.000          -0.000
 -18150974.766 9 -13889319.95748  21606251.339    21606250.9144   21606259.3744
        -0.000          -0.000
   6128767.111 8   4797179.42945  24561023.058    24561023.6074   24561038.4264
        -0.000          -0.000
  -8471101.982 9  -6589989.19047  22179353.497    22179353.6834   22179362.4794
        -0.000          -0.000
  -4719805.496 9  -3660019.30646  24692986.648    24692986.0624   24693001.0344
        -0.000          -0.000
 99  4 13  0 59 30.0010000  0  7 22  6 17 23 30 26 21                0.001203703
  -7405326.982 9  -5569016.91545  23699663.966    23699663.6744   23699675.0824
        -0.000          -0.000
 -21713926.040 9 -16314503.73849  20811315.500    20811315.4364   20811323.2774
        -0.000          -0.000
 -19629588.214 9 -15277125.99248  21437008.220    21437007.7494   21437015.9704
        -0.000          -0.000
 -18190647.328 9 -13920233.55048  21598701.668    21598701.2814   21598709.8034
        -0.000          -0.000
   6238833.606 8   4882945.25545  24581967.681    24581968.4774   24581983.6154
        -0.000          -0.000
  -8480673.146 9  -6597447.16247  22177532.143    22177532.3144   22177541.0974
        -0.000          -0.000
  -4799512.832 9  -3722128.69446  24677818.388    24677818.0524   24677832.8664
        -0.000          -0.000
 99  4 13  1  0  0.0010000  0  7 22  6 17 23 30 26 21                0.001209050
  -7404619.073 8  -5568465.28145  23699798.659    23699798.4214   23699809.7864
        -0.000          -0.000
 -21672369.223 9 -16282121.83049  20819223.727    20819223.6314   20819231.4104
        -0.000          -0.000
 -19644451.540 9 -15288707.77148  21434179.828    21434179.3464   21434187.6174
        -0.000          -0.000
 -18229912.240 9 -13950829.50948  21591229.730    21591229.3034   21591237.8984
        -0.000          -0.000
   6348818.171 8   4968647.26645  24602896.989    24602897.8384   24602913.3344
        -0.000          -0.000
  -8489696.793 9  -6604478.49647  22175814.986    22175815.1734   22175823.9174
        -0.000          -0.000
  -4879047.681 9  -3784103.67446  24662683.319    24662683.2294   24662697.4314
        -0.000          -0.000
 99  4 13  1  0 30.0010000  0  7 22  6 17 23 30 26 21                0.001214391
  -7403404.553 8  -5567518.86645  23700029.678    23700029.4504   23700040.7184
        -0.000          -0.000
 -21630349.253 9 -16249379.02449  20827220.098    20827219.9454   20827227.6094
        -0.000          -0.000
 -19659160.043 9 -15300168.91848  21431380.943    21431380.4444   21431388.6734
        -0.000          -0.000
 -18268754.073 9 -13981095.79148  21583838.415    21583837.9404   21583846.5504
        -0.000          -0.000
   6458735.126 8   5054296.59045  24623814.294    24623814.7094   24623830.1134
        -0.000          -0.000
  -8498141.987 9  -6611059.07747  22174207.891    22174208.0254   22174216.7984
        -0.000          -0.000
  -4958398.475 9  -3845935.23346  24647583.297    24647583.1544   24647597.3414
        -0.000          -0.000
 99  4 13  1  1  0.0010000  0  7 22  6 17 23 30 26 21                0.001219714
  -7401710.063 8  -5566198.45445  23700352.524    23700352.1474   23700363.0434
        -0.000          -0.000
 -21587879.776 9 -16216285.94349  20835301.876    20835301.6814   20835309.3834
        -0.000          -0.000
 -19673733.218 9 -15311524.59648  21428607.875    21428607.2844   21428615.4684
        -0.000          -0.000
 -18307197.231 9 -14011051.42048  21576522.917    21576522.4544   21576531.0944
        -0.000          -0.000
   6568561.647 9   5139875.45245  24644713.897    24644714.0594   24644729.7474
        -0.000          -0.000
  -8506015.763 9  -6617194.42747  22172709.429    22172709.6134   22172718.2994
        -0.000          -0.000
  -5037606.575 9  -3907655.56446  24632510.429    24632510.1184   24632524.5054
        -0.000          -0.000
 99  4 13  1  1 30.0010000  0  7 22  6 17 23 30 26 21                0.001225037
  -7399507.926 8  -5564482.48745  23700771.649    23700771.1784   23700782.0854
        -0.000          -0.000
 -21544921.798 9 -16182812.21749  20843476.461    20843476.2724   20843484.0804
        -0.000          -0.000
 -19688148.030 9 -15322756.89048  21425864.580    21425864.0934   21425872.2894
        -0.000          -0.000
 -18345223.828 9 -14040682.45549  21569286.572    21569286.1344   21569294.9324
        -0.000          -0.000
   6678324.175 9   5225404.43445  24665601.669    24665601.8584   24665617.3404
        -0.000          -0.000
  -8513293.382 9  -6622865.21547  22171324.505    22171324.6724   22171333.4884
        -0.000          -0.000
  -5116638.930 9  -3969238.99846  24617470.930    24617470.4914   24617485.0064
        -0.000          -0.000
 99  4 13  1  2  0.0010000  0  7 22  6 17 23 30 26 21                0.001230342
  -7396815.612 8  -5562384.54846  23701283.463    23701283.2444   23701294.5824
        -0.000          -0.000
 -21501477.951 9 -16148959.88349  20851743.389    20851743.2394   20851751.1094
        -0.000          -0.000
 -19702415.442 9 -15333874.31048  21423149.558    21423149.1024   21423157.0924
        -0.000          -0.000
 -18382849.148 9 -14070000.81948  21562126.457    21562126.1214   21562135.0504
        -0.000          -0.000
   6788010.771 9   5310874.24045  24686474.623    24686474.6894   24686490.1174
        -0.000          -0.000
  -8519999.043 9  -6628090.35047  22170048.483    22170048.6744   22170057.3744
        -0.000          -0.000
  -5195497.624 9  -4030687.05946  24602464.436    24602463.9094   24602478.3004
        -0.000          -0.000
 99  4 13  1  2 30.0010000  0  7 22  6 17 23 30 26 21                0.001235655
  -7393600.377 9  -5559879.16546  23701895.140    23701894.9794   23701906.3994
        -0.000          -0.000
 -21457528.135 9 -16114713.29149  20860106.604    20860106.4994   20860114.4614
        -0.000          -0.000
 -19716509.823 9 -15344856.90248  21420467.526    21420467.0194   21420474.9564
        -0.000          -0.000
 -18420056.992 9 -14098993.88448  21555045.901    21555045.5934   21555054.4794
        -0.000          -0.000
   6897662.079 9   5396316.55445  24707340.777    24707340.8844   24707356.2844
        -0.000          -0.000
  -8526118.664 9  -6632858.81747  22168883.853    22168883.9724   22168892.7434
        -0.000          -0.000
  -5274148.561 9  -4091973.24845  24587497.292    24587497.0404   24587511.3054
        -0.000          -0.000
 99  4 13  1  3  0.0010000  0  7 22  6 17 23 30 26 21                0.001240953
  -7389894.413 9  -5556991.39546  23702600.784    23702600.3914   23702611.4264
        -0.000          -0.000
 -21413090.453 9 -16080086.53449  20868562.771    20868562.7054   20868570.5784
        -0.000          -0.000
 -19730460.144 9 -15355727.24348  21417812.877    21417812.3874   21417820.4544
        -0.000          -0.000
 -18456881.512 9 -14127688.24048  21548038.417    21548038.0644   21548046.7984
        -0.000          -0.000
   7007262.116 8   5481718.90445  24728197.086    24728197.0764   24728212.5814
        -0.000          -0.000
  -8531695.913 9  -6637204.66247  22167822.328    22167822.5164   22167831.3014
        -0.000          -0.000
  -5352626.800 9  -4153124.89245  24572563.372    24572563.1284   24572577.2604
        -0.000          -0.000
 99  4 13  1  3 30.0010000  0  7 22  6 17 23 30 26 21                0.001246242
  -7385678.932 9  -5553706.59646  23703403.263    23703402.8154   23703413.4194
        -0.000          -0.000
 -21368161.727 9 -16045077.14649  20877112.528    20877112.4454   20877120.3034
        -0.000          -0.000
 -19744249.927 9 -15366472.49348  21415188.815    21415188.2744   21415196.4274
        -0.000          -0.000
 -18493295.674 9 -14156062.84648  21541109.063    21541108.6514   21541117.3184
        -0.000          -0.000
   7116829.129 9   5567095.55045  24749046.847    24749046.8414   24749062.8454
        -0.000          -0.000
  -8536718.859 9  -6641118.56447  22166866.342    22166866.5774   22166875.4504
        -0.000          -0.000
  -5430916.616 9  -4214129.68046  24557665.289    24557664.8034   24557679.0504
        -0.000          -0.000
 99  4 13  1  4  0.0010000  0  7 22  6 17 23 30 26 21                0.001251533
  -7380961.081 9  -5550030.33946  23704301.253    23704300.8234   23704311.0174
        -0.000          -0.000
 -21322764.779 9 -16009702.92249  20885751.366    20885751.2454   20885759.1344
        -0.000          -0.000
 -19757894.813 9 -15377104.83448  21412592.272    21412591.7114   21412599.8744
        -0.000          -0.000
 -18529312.681 9 -14184127.97948  21534255.299    21534254.8464   21534263.3964
        -0.000          -0.000
   7226362.697 9   5652446.12145  24769890.637    24769890.8004   24769906.8864
        -0.000          -0.000
  -8541185.765 9  -6644599.20047  22166016.420    22166016.6264   22166025.3894
        -0.000          -0.000
  -5509037.685 9  -4275002.98646  24542799.318    24542798.5454   24542812.9154
        -0.000          -0.000
 99  4 13  1  4 30.0010000  0  7 22  6 17 23 30 26 21                0.001256841
  -7375717.263 9  -5545944.21146  23705299.242    23705298.8934   23705308.9854
        -0.000          -0.000
 -21276879.679 9 -15973948.31649  20894483.035    20894482.9014   20894490.7594
        -0.000          -0.000
 -19771378.648 9 -15387611.67948  21410026.236    21410025.7084   21410033.8374
        -0.000          -0.000
 -18564901.113 9 -14211859.15049  21527483.100    21527482.6144   21527491.0234
        -0.000          -0.000
   7335875.122 9   5737780.20945  24790730.777    24790730.7534   24790746.6274
        -0.000          -0.000
  -8545051.875 9  -6647611.69247  22165280.740    22165280.9154   22165289.5834
        -0.000          -0.000
  -5586982.278 9  -4335738.82046  24527966.639    24527965.9234   24527980.4844
        -0.000          -0.000
 99  4 13  1  5  0.0010000  0  7 22  6 17 23 30 26 21                0.001262133
  -7369986.211 9  -5541478.44746  23706389.833    23706389.5284   23706399.7804
        -0.000          -0.000
 -21230530.137 9 -15937831.81749  20903303.012    20903302.9544   20903310.7764
        -0.000          -0.000
 -19784741.068 9 -15398023.92048  21407483.328    21407482.8384   21407491.0044
        -0.000          -0.000
 -18600067.865 9 -14239261.75049  21520790.930    21520790.4974   21520799.0734
        -0.000          -0.000
   7445309.189 9   5823053.25346  24811555.861    24811555.9354   24811571.5534
        -0.000          -0.000
  -8548331.588 9  -6650167.25547  22164656.674    22164656.8474   22164665.4424
        -0.000          -0.000
  -5664783.485 9  -4396362.89446  24513161.258    24513160.7224   24513175.2354
        -0.000          -0.000
 99  4 13  1  5 30.0010000  0  7 22  6 17 23 30 26 21                0.001267430
  -7363737.535 9  -5536609.32846  23707579.153    23707578.6844   23707588.9834
        -0.000          -0.000
 -21183697.004 9 -15901338.48449  20912215.085    20912215.0154   20912222.8314
        -0.000          -0.000
 -19797963.380 9 -15408326.99248  21404967.261    21404966.7804   21404974.9994
        -0.000          -0.000
 -18634790.088 9 -14266317.96649  21514183.461    21514183.0214   21514191.7574
        -0.000          -0.000
   7554672.508 9   5908271.17546  24832367.682    24832367.6394   24832382.8624
        -0.000          -0.000
  -8550993.889 9  -6652241.69647  22164149.979    22164150.1384   22164158.6674
        -0.000          -0.000
  -5742397.530 9  -4456841.09946  24498391.211    24498390.9884   24498405.3784
        -0.000          -0.000
 99  4 13  1  6  0.0010000  0  7 22  6 17 23 30 26 21                0.001272740
  -7356966.321 9  -5531333.03746  23708868.022    23708867.3824   23708877.6864
        -0.000          -0.000
 -21136360.657 9 -15864453.03249  20921222.936    20921222.8394   20921230.6214
        -0.000          -0.000
 -19811030.918 9 -15418509.44648  21402480.686    21402480.0914   21402488.3074
        -0.000          -0.000
 -18669076.541 9 -14293034.60749  21507658.928    21507658.4284   21507667.2194
        -0.000          -0.000
   7663966.823 9   5993435.30345  24853166.355    24853166.2404   24853180.9554
        -0.000          -0.000
  -8553032.227 9  -6653829.96447  22163761.955    22163762.0974   22163770.6584
        -0.000          -0.000
  -5819793.935 9  -4517149.72046  24483663.054    24483662.7044   24483676.8144
        -0.000          -0.000
 99  4 13  1  6 30.0010000  0  7 22  6 17 23 30 26 21                0.001278030
  -7349705.683 9  -5525675.37846  23710249.927    23710249.1364   23710259.5344
        -0.000          -0.000
 -21088533.190 9 -15827184.90049  20930324.180    20930324.0984   20930331.9004
        -0.000          -0.000
 -19823956.385 9 -15428581.20948  21400020.992    21400020.4244   21400028.6444
        -0.000          -0.000
 -18702954.714 9 -14319433.12849  21501212.018    21501211.5314   21501220.3254
        -0.000          -0.000
   7773148.159 9   6078511.39545  24873943.110    24873942.9384   24873957.4084
        -0.000          -0.000
  -8554489.068 9  -6654965.10347  22163484.393    22163484.6094   22163493.3594
        -0.000          -0.000
  -5896987.186 9  -4577300.05246  24468973.768    24468973.2924   24468986.8694
        -0.000          -0.000
 99  4 13  1  7  0.0010000  0  7 22  6 17 23 30 26 21                0.001283318
  -7341938.412 9  -5519622.95246  23711728.104    23711727.3534   23711737.5664
        -0.000          -0.000
 -21040200.650 9 -15789523.19349  20939521.568    20939521.4714   20939529.2844
        -0.000          -0.000
 -19836715.876 9 -15438523.64848  21397592.833    21397592.2854   21397600.5864
        -0.000          -0.000
 -18736432.916 9 -14345519.97549  21494841.256    21494840.8414   21494849.6334
        -0.000          -0.000
   7882236.456 9   6163514.96545  24894701.750    24894701.9254   24894716.3224
        -0.000          -0.000
  -8555356.801 9  -6655641.21447  22163319.275    22163319.4534   22163328.0934
        -0.000          -0.000
  -5973962.215 9  -4637280.35946  24454326.066    24454325.4534   24454338.7454
        -0.000          -0.000
 99  4 13  1  7 30.0010000  0  7 22  6 17 23 30 26 21                0.001288595
  -7333690.860 9  -5513196.24246  23713297.527    23713296.6774   23713306.7704
        -0.000          -0.000
 -20991383.515 9 -15751483.88349  20948811.167    20948811.0604   20948818.9954
        -0.000          -0.000
 -19849332.979 9 -15448355.12648  21395191.846    21395191.3274   21395199.5774
        -0.000          -0.000
 -18769554.957 9 -14371329.29149  21488538.390    21488537.8754   21488546.6974
        -0.000          -0.000
   7991227.153 9   6248442.54145  24915442.393    24915442.4674   24915456.7614
        -0.000          -0.000
  -8555674.438 9  -6655888.64747  22163258.848    22163259.0454   22163267.6004
        -0.000          -0.000
  -6050744.093 9  -4697110.13046  24439715.018    24439714.1894   24439727.5434
        -0.000          -0.000
 99  4 13  1  8  0.0010000  0  7 22  6 17 23 30 26 21                0.001293844
  -7324976.853 9  -5506406.07546  23714955.614    23714954.8584   23714964.9104
        -0.000          -0.000
 -20942087.440 9 -15713071.38849  20958191.983    20958191.8454   20958199.7894
        -0.000          -0.000
 -19861818.204 9 -15458083.84848  21392815.872    21392815.3824   21392823.6194
        -0.000          -0.000
 -18802315.826 9 -14396857.17949  21482304.120    21482303.6214   21482312.5924
        -0.000          -0.000
   8100110.354 9   6333286.31545  24936162.404    24936162.2644   24936176.9974
        -0.000          -0.000
  -8555450.511 9  -6655714.09847  22163301.551    22163301.7264   22163310.1694
        -0.000          -0.000
  -6127368.752 9  -4756817.42446  24425133.488    24425132.7234   24425146.2044
        -0.000          -0.000
 99  4 13  1  8 30.0010000  0  7 22  6 17 23 30 26 21                0.001299091
  -7315748.641 9  -5499215.25146  23716711.995    23716711.1224   23716721.1374
        -0.000          -0.000
 -20892288.773 9 -15674267.24749  20967668.502    20967668.3654   20967676.1744
        -0.000          -0.000
 -19874139.606 9 -15467684.90348  21390471.304    21390470.7554   21390479.0114
        -0.000          -0.000
 -18834670.273 9 -14422068.36349  21476147.287    21476146.7934   21476155.7534
        -0.000          -0.000
   8208920.002 9   6418072.80245  24956868.393    24956868.1994   24956882.9434
        -0.000          -0.000
  -8554642.693 9  -6655084.55947  22163455.162    22163455.3694   22163463.7804
        -0.000          -0.000
  -6203827.996 9  -4816395.79146  24410583.251    24410582.7064   24410596.2674
        -0.000          -0.000
 99  4 13  1  9  0.0010000  0  7 22  6 17 23 30 26 21                0.001304367
  -7305975.181 9  -5491599.53446  23718571.917    23718571.0254   23718580.9744
        -0.000          -0.000
 -20841977.718 9 -15635063.84449  20977242.507    20977242.3574   20977250.0084
        -0.000          -0.000
 -19886274.177 9 -15477140.39648  21388162.147    21388161.5744   21388169.8764
        -0.000          -0.000
 -18866591.067 9 -14446941.64049  21470072.956    21470072.4584   21470081.3044
        -0.000          -0.000
   8317685.637 9   6502824.97745  24977566.495    24977566.0504   24977580.5904
        -0.000          -0.000
  -8553212.525 9  -6653970.07947  22163727.329    22163727.5304   22163735.8084
        -0.000          -0.000
  -6280093.206 9  -4875822.96246  24396070.564    24396069.9034   24396083.1584
        -0.000          -0.000
 99  4 13  1  9 30.0010000  0  7 22  6 17 23 30 26 21                0.001309656
  -7295672.715 9  -5483571.63546  23720532.464    23720531.5574   23720541.3084
        -0.000          -0.000
 -20791157.059 9 -15595463.36149  20986913.394    20986913.2324   20986920.8184
        -0.000          -0.000
 -19898236.131 9 -15486461.37848  21385885.914    21385885.3004   21385893.5104
        -0.000          -0.000
 -18898079.470 9 -14471477.99849  21464080.937    21464080.4364   21464089.2034
        -0.000          -0.000
   8426386.315 9   6587526.53145  24998252.003    24998251.3504   24998265.6224
        -0.000          -0.000
  -8551170.131 9  -6652378.53047  22164115.978    22164116.1524   22164124.3844
        -0.000          -0.000
  -6356165.463 9  -4935099.74046  24381594.227    24381593.4454   24381606.7684
        -0.000          -0.000
 99  4 13  1 10  0.0010000  0  7 22  6 17 23 30 26 21                0.001314956
  -7284837.294 9  -5475128.42646  23722594.146    23722593.4104   23722603.3374
        -0.000          -0.000
 -20739833.878 9 -15555471.29449  20996679.723    20996679.5824   20996687.3114
        -0.000          -0.000
 -19910014.540 9 -15495639.34148  21383644.522    21383643.9414   21383652.0464
        -0.000          -0.000
 -18929130.723 9 -14495673.71749  21458172.089    21458171.5974   21458180.3294
        -0.000          -0.000
   8534995.383 8   6672156.72645  25018919.802    25018919.1924   25018933.2264
        -0.000          -0.000
  -8548500.180 9  -6650297.98247  22164623.956    22164624.0714   22164632.4674
        -0.000          -0.000
  -6432048.578 9  -4994229.17246  24367153.754    24367153.1924   24367166.4704
        -0.000          -0.000
 99  4 13  1 10 30.0010000  0  7 22  6 17 23 30 26 21                0.001320263
  -7273494.974 9  -5466290.22946  23724752.162    23724751.5764   23724761.9154
        -0.000          -0.000
 -20688027.946 9 -15515103.06548  21006537.944    21006537.8174   21006545.5774
        -0.000          -0.000
 -19921630.065 9 -15504690.37049  21381434.405    21381433.7714   21381441.6964
        -0.000          -0.000
 -18959775.116 9 -14519552.40249  21452340.758    21452340.1944   21452348.8394
        -0.000          -0.000
   8643489.337 8   6756697.21945  25039565.224    25039564.9014   25039579.0404
        -0.000          -0.000
  -8545218.728 9  -6647740.94548  22165248.324    22165248.5284   22165256.9814
        -0.000          -0.000
  -6507732.052 9  -5053203.06046  24352751.004    24352750.7514   24352764.1264
        -0.000          -0.000
 99  4 13  1 11  0.0010000  0  7 22  6 17 23 30 26 21                0.001325556
  -7261682.816 9  -5457085.92546  23727000.066    23726999.3014   23727009.8424
        -0.000          -0.000
 -20635745.045 9 -15474363.17549  21016487.128    21016486.9894   21016494.6744
        -0.000          -0.000
 -19933111.496 9 -15513636.91549  21379249.572    21379248.9244   21379256.9004
        -0.000          -0.000
 -18990037.038 9 -14543133.05949  21446582.034    21446581.4614   21446590.0874
        -0.000          -0.000
   8751842.321 8   6841127.86845  25060184.043    25060183.8164   25060198.6034
        -0.000          -0.000
  -8541347.436 9  -6644724.29448  22165985.013    22165985.1384   22165993.6554
        -0.000          -0.000
  -6583214.300 9  -5112020.14146  24338387.039    24338386.8254   24338400.3564
        -0.000          -0.000
 99  4 13  1 11 30.0010000  0  7 22  6 17 23 30 26 21                0.001330834
  -7249399.330 9  -5447514.39146  23729337.603    23729336.7824   23729347.3324
        -0.000          -0.000
 -20582978.480 9 -15433246.40448  21026528.408    21026528.2374   21026535.8304
        -0.000          -0.000
 -19944454.001 9 -15522475.20749  21377090.987    21377090.4184   21377098.5244
        -0.000          -0.000
 -19019902.777 9 -14566404.99949  21440898.642    21440898.0954   21440906.7104
        -0.000          -0.000
   8860057.663 9   6925451.26045  25080777.025    25080776.8194   25080791.7464
        -0.000          -0.000
  -8536879.154 9  -6641242.46948  22166835.294    22166835.4894   22166843.9804
        -0.000          -0.000
  -6658481.992 9  -5170670.03346  24324064.146    24324063.8614   24324077.3434
        -0.000          -0.000
 99  4 13  1 12  0.0010000  0  7 22  6 17 23 30 26 21                0.001336102
  -7236643.547 9  -5437574.81746  23731765.008    23731764.0624   23731774.5024
        -0.000          -0.000
 -20529758.558 9 -15391776.35448  21036655.891    21036655.6664   21036663.2414
        -0.000          -0.000
 -19955664.946 9 -15531210.98549  21374957.605    21374956.9854   21374965.2404
        -0.000          -0.000
 -19049381.839 9 -14589375.63249  21435288.828    21435288.3094   21435296.9234
        -0.000          -0.000
   8968131.779 9   7009664.61845  25101343.178    25101343.1314   25101357.8954
        -0.000          -0.000
  -8531823.120 9  -6637302.65347  22167797.389    22167797.5734   22167806.0894
        -0.000          -0.000
  -6733540.501 9  -5229156.92946  24309781.293    24309780.7094   24309794.1934
        -0.000          -0.000
 99  4 13  1 12 30.0010000  0  7 22  6 17 23 30 26 21                0.001341379
  -7223392.118 9  -5427249.04046  23734286.641    23734285.6564   23734296.0334
        -0.000          -0.000
 -20476070.455 9 -15349941.49248  21046872.364    21046872.1044   21046879.8164
        -0.000          -0.000
 -19966727.155 9 -15539830.86749  21372852.412    21372851.8334   21372860.1734
        -0.000          -0.000
 -19078445.541 9 -14612022.60549  21429758.127    21429757.5884   21429766.2124
        -0.000          -0.000
   9076104.360 9   7093798.84245  25121889.941    25121889.9574   25121904.9054
        -0.000          -0.000
  -8526159.587 9  -6632889.45047  22168875.083    22168875.3174   22168883.7254
        -0.000          -0.000
  -6808360.287 9  -5287457.80246  24295543.689    24295542.8064   24295556.2334
        -0.000          -0.000
 99  4 13  1 13  0.0010000  0  7 22  6 17 23 30 26 21                0.001346652
  -7209660.676 9  -5416549.20046  23736899.594    23736898.6474   23736908.8704
        -0.000          -0.000
 -20421937.571 9 -15307760.04948  21057173.390    21057173.1824   21057180.9744
        -0.000          -0.000
 -19977653.703 9 -15548345.03749  21370773.093    21370772.6024   21370780.7714
        -0.000          -0.000
 -19107112.743 9 -14634360.61649  21424302.869    21424302.2844   21424310.8654
        -0.000          -0.000
   9183954.376 8   7177837.56045  25142413.442    25142413.2894   25142428.3974
        -0.000          -0.000
  -8519911.353 9  -6628020.62247  22170064.080    22170064.2844   22170072.5644
        -0.000          -0.000
  -6882974.009 9  -5345598.09946  24281345.245    24281344.1864   24281357.3324
        -0.000          -0.000
 99  4 13  1 13 30.0010000  0  7 22  6 17 23 30 26 21                0.001351923
  -7195440.060 9  -5405468.18346  23739605.619    23739604.8134   23739614.9174
        -0.000          -0.000
 -20367363.895 9 -15265235.13248  21067558.422    21067558.2234   21067566.0474
        -0.000          -0.000
 -19988436.280 9 -15556747.02348  21368721.257    21368720.6634   21368728.8014
        -0.000          -0.000
 -19135383.706 9 -14656389.86549  21418922.878    21418922.3594   21418930.9144
        -0.000          -0.000
   9291680.784 8   7261779.98045  25162913.048    25162912.8094   25162928.0484
        -0.000          -0.000
  -8513082.411 9  -6622699.30647  22171363.655    22171363.8544   22171371.9384
        -0.000          -0.000
  -6957398.777 9  -5403591.16546  24267182.310    24267181.3404   24267194.1974
        -0.000          -0.000
 99  4 13  1 14  0.0010000  0  7 22  6 17 23 30 26 21                0.001357212
  -7180685.791 9  -5393971.34346  23742413.432    23742412.5004   23742422.4114
        -0.000          -0.000
 -20312302.637 9 -15222330.30048  21078036.082    21078035.9104   21078043.9444
        -0.000          -0.000
 -19999043.084 9 -15565012.03049  21366702.830    21366702.3294   21366710.3654
        -0.000          -0.000
 -19163224.965 9 -14678084.28549  21413624.862    21413624.3564   21413632.8174
        -0.000          -0.000
   9399316.451 8   7345651.71945  25183395.495    25183395.2694   25183410.6934
        -0.000          -0.000
  -8505641.291 9  -6616900.97848  22172779.634    22172779.7644   22172787.8704
        -0.000          -0.000
  -7031618.716 9  -5461424.63946  24253058.138    24253057.4594   24253070.0394
        -0.000          -0.000
 99  4 13  1 14 30.0010000  0  7 22  6 17 23 30 26 21                0.001362496
  -7165419.486 9  -5382075.51646  23745318.648    23745317.5284   23745327.2874
        -0.000          -0.000
 -20256744.479 9 -15179038.25448  21088608.325    21088608.2104   21088616.3594
        -0.000          -0.000
 -20009487.569 9 -15573150.55449  21364715.410    21364714.7964   21364722.8664
        -0.000          -0.000
 -19190642.194 9 -14699448.28749  21408407.478    21408406.9194   21408415.3544
        -0.000          -0.000
   9506839.819 8   7429435.91445  25203856.620    25203856.4434   25203871.8644
        -0.000          -0.000
  -8497603.998 9  -6610638.10648  22174308.935    22174309.1354   22174317.2294
        -0.000          -0.000
  -7105653.617 9  -5519113.94746  24238969.386    24238968.7124   24238981.2074
        -0.000          -0.000
 99  4 13  1 15  0.0010000  0  7 22  6 17 23 30 26 21                0.001367905
  -7149640.439 9  -5369780.16446  23748321.277    23748320.2804   23748329.8464
        -0.000          -0.000
 -20200678.203 9 -15135350.29248  21099277.412    21099277.2844   21099285.4694
        -0.000          -0.000
 -20019766.998 9 -15581160.48449  21362759.080    21362758.5604   21362766.7824
        -0.000          -0.000
 -19217642.870 9 -14720487.70349  21403269.169    21403268.7364   21403277.3244
        -0.000          -0.000
   9614246.923 8   7513129.53345  25224295.435    25224295.3434   25224311.2254
        -0.000          -0.000
  -8488974.361 9  -6603913.65748  22175951.116    22175951.3184   22175959.3934
        -0.000          -0.000
  -7179501.717 9  -5576657.70146  24224916.543    24224915.5714   24224928.0874
        -0.000          -0.000
 99  4 13  1 15 30.0010000  0  7 22  6 17 23 30 26 21                0.001373195
  -7133330.656 9  -5357071.24646  23751424.949    23751424.0214   23751433.4574
        -0.000          -0.000
 -20144097.841 9 -15091261.72848  21110044.413    21110044.3004   21110052.4134
        -0.000          -0.000
 -20029852.973 9 -15589019.65349  21360839.773    21360839.2694   21360847.3764
        -0.000          -0.000
 -19244197.137 9 -14741179.26849  21398216.063    21398215.6434   21398224.1994
        -0.000          -0.000
   9721558.311 8   7596748.56945  25244716.030    25244716.1474   25244732.4564
        -0.000          -0.000
  -8479726.462 9  -6596707.43148  22177711.012    22177711.1604   22177719.1314
        -0.000          -0.000
  -7253141.041 9  -5634038.76746  24210903.268    24210902.2114   24210914.8954
        -0.000          -0.000
 99  4 13  1 16  0.0010000  0  7 22  6 17 23 30 26 21                0.001378452
  -7116554.986 9  -5343999.30546  23754617.210    23754616.3424   23754625.8664
        -0.000          -0.000
 -20087053.192 9 -15046811.37448  21120899.750    21120899.6354   21120907.6354
        -0.000          -0.000
 -20039785.684 9 -15596759.38749  21358949.759    21358949.1574   21358957.2194
        -0.000          -0.000
 -19270345.038 9 -14761554.18649  21393240.385    21393239.9384   21393248.3214
        -0.000          -0.000
   9828726.636 8   7680256.13945  25265109.345    25265109.5784   25265126.3724
        -0.000          -0.000
  -8469892.208 9  -6589044.31947  22179582.455    22179582.5354   22179590.6134
        -0.000          -0.000
  -7326611.003 9  -5691287.86146  24196922.231    24196921.3504   24196933.9314
        -0.000          -0.000
 99  4 13  1 16 30.0010000  0  7 22  6 17 23 30 26 21                0.001383691
  -7099331.133 9  -5330578.09646  23757894.453    23757893.8124   23757903.5444
        -0.000          -0.000
 -20029550.236 9 -15002003.89848  21131842.202    21131842.1104   21131850.1234
        -0.000          -0.000
 -20049558.095 9 -15604374.22348  21357089.958    21357089.3954   21357097.5954
        -0.000          -0.000
 -19296089.916 9 -14781615.06649  21388341.301    21388340.8104   21388349.1284
        -0.000          -0.000
   9935763.505 8   7763661.26845  25285477.665    25285478.1174   25285495.2504
        -0.000          -0.000
  -8459449.628 9  -6580907.18147  22181569.441    22181569.5694   22181577.6324
        -0.000          -0.000
  -7399893.858 9  -5748391.18446  24182976.895    24182976.1654   24182988.3744
        -0.000          -0.000
 99  4 13  1 17  0.0010000  0  7 22  6 17 23 30 26 21                0.001388937
  -7081647.632 9  -5316798.74746  23761259.499    23761258.9434   23761268.6914
        -0.000          -0.000
 -19971584.168 9 -14956835.56848  21142872.765    21142872.6544   21142880.6904
        -0.000          -0.000
 -20059143.006 9 -15611842.95248  21355265.853    21355265.3184   21355273.5084
        -0.000          -0.000
 -19321415.788 9 -14801349.45149  21383521.851    21383521.4164   21383529.6804
        -0.000          -0.000
  10042691.261 8   7846981.35945  25305825.315    25305825.8624   25305843.0854
        -0.000          -0.000
  -8448366.164 9  -6572270.65647  22183678.414    22183678.5594   22183686.5784
        -0.000          -0.000
  -7472960.185 9  -5805325.76846  24169072.696    24169071.8714   24169084.1874
        -0.000          -0.000
 99  4 13  1 17 30.0010000  0  7 22  6 17 23 30 26 21                0.001394160
  -7063547.176 9  -5302694.48446  23764704.217    23764703.4484   23764713.1894
        -0.000          -0.000
 -19913183.317 9 -14911328.44048  21153986.059    21153985.9804   21153994.0324
        -0.000          -0.000
 -20068574.148 9 -15619191.85448  21353471.190    21353470.6604   21353478.6894
        -0.000          -0.000
 -19346356.354 9 -14820783.59049  21378775.840    21378775.4124   21378783.5824
        -0.000          -0.000
  10149461.232 8   7930178.51645  25326142.863    25326143.5164   25326160.9734
        -0.000          -0.000
  -8436676.542 9  -6563161.81547  22185902.701    22185902.8694   22185910.9274
        -0.000          -0.000
  -7545849.796 9  -5862122.66146  24155201.979    24155201.0924   24155213.6814
        -0.000          -0.000
 99  4 13  1 18  0.0010000  0  7 22  6 17 23 30 26 21                0.001399380
  -7044998.868 9  -5288241.23046  23768233.673    23768232.9754   23768242.7724
        -0.000          -0.000
 -19854304.007 9 -14865448.49948  21165190.496    21165190.4434   21165198.4214
        -0.000          -0.000
 -20077848.360 9 -15626418.47549  21351706.416    21351705.8224   21351713.8234
        -0.000          -0.000
 -19370902.692 9 -14839910.54949  21374104.879    21374104.4064   21374112.5584
        -0.000          -0.000
  10256093.947 8   8013268.70745  25346434.446    25346434.9584   25346452.6264
        -0.000          -0.000
  -8424365.739 9  -6553568.94747  22188245.052    22188245.2784   22188253.5624
        -0.000          -0.000
  -7618532.417 9  -5918758.28146  24141370.747    24141370.0774   24141382.4864
        -0.000          -0.000
 99  4 13  1 18 30.0010000  0  7 22  6 17 23 30 26 21                0.001404608
  -7025975.825 9  -5273418.09546  23771853.747    23771852.9484   23771862.5264
        -0.000          -0.000
 -19794937.216 9 -14819188.69148  21176487.714    21176487.6534   21176495.5204
        -0.000          -0.000
 -20086972.826 9 -15633528.42148  21349969.967    21349969.3944   21349977.5524
        -0.000          -0.000
 -19395047.696 9 -14858724.77749  21369510.129    21369509.6664   21369517.9054
        -0.000          -0.000
  10362592.852 8   8096254.61845  25366701.102    25366701.5274   25366718.9734
        -0.000          -0.000
  -8411445.946 9  -6543501.50247  22190703.472    22190703.6664   22190712.3164
        -0.000          -0.000
  -7690991.399 9  -5975219.62146  24127582.362    24127581.7324   24127593.8274
        -0.000          -0.000
 99  4 13  1 19  0.0010000  0  7 22  6 17 23 30 26 21                0.001409843
  -7006436.725 9  -5258192.81946  23775572.216    23775571.0264   23775580.8204
        -0.000          -0.000
 -19735059.723 9 -14772530.92048  21187882.099    21187881.9854   21187889.8144
        -0.000          -0.000
 -20095932.271 9 -15640509.77548  21348264.979    21348264.4144   21348272.6374
        -0.000          -0.000
 -19418766.435 9 -14877206.83949  21364996.468    21364996.0214   21365004.2924
        -0.000          -0.000
  10468954.746 8   8179133.81045  25386941.539    25386941.8764   25386959.0984
        -0.000          -0.000
  -8397925.498 9  -6532966.01747  22193276.200    22193276.3554   22193285.2924
        -0.000          -0.000
  -7763209.609 9  -6031493.35546  24113839.962    24113839.1574   24113850.8324
        -0.000          -0.000
 99  4 13  1 19 30.0010000  0  7 22  6 17 23 30 26 21                0.001415076
  -6986368.231 9  -5242555.02346  23779390.803    23779389.7614   23779399.9694
        -0.000          -0.000
 -19674668.071 9 -14725472.51648  21199374.299    21199374.1694   21199382.0384
        -0.000          -0.000
 -20104741.679 9 -15647374.20348  21346588.607    21346588.0154   21346596.2054
        -0.000          -0.000
 -19442059.881 9 -14895357.51249  21360563.795    21360563.3304   21360571.5984
        -0.000          -0.000
  10575170.463 8   8261899.09545  25407154.071    25407154.3724   25407171.5394
        -0.000          -0.000
  -8383822.523 9  -6521976.64047  22195959.745    22195959.9274   22195968.8164
        -0.000          -0.000
  -7835194.716 9  -6087585.46046  24100141.419    24100140.6114   24100152.1514
        -0.000          -0.000
 99  4 13  1 20  0.0010000  0  7 22  6 17 23 30 26 21                0.001420306
  -6965786.969 9  -5226517.67946  23783306.703    23783306.0904   23783316.6134
        -0.000          -0.000
 -19613793.190 9 -14678037.56748  21210958.380    21210958.2394   21210966.1774
        -0.000          -0.000
 -20113420.666 9 -15654137.01448  21344936.899    21344936.3184   21344944.5554
        -0.000          -0.000
 -19464945.845 9 -14913190.66749  21356208.622    21356208.1454   21356216.5054
        -0.000          -0.000
  10681228.064 8   8344541.16245  25427336.481    25427336.7524   25427353.7614
        -0.000          -0.000
  -8369146.759 9  -6510540.96047  22198752.454    22198752.6034   22198761.2624
        -0.000          -0.000
  -7906959.563 9  -6143505.93346  24086484.437    24086483.7754   24086495.4284
        -0.000          -0.000
 99  4 13  1 20 30.0010000  0  7 22  6 17 23 30 26 21                0.001425537
  -6944691.037 9  -5210079.29646  23787320.772    23787320.2624   23787330.9524
        -0.000          -0.000
 -19552425.501 9 -14630218.62548  21222636.223    21222636.1244   21222643.9424
        -0.000          -0.000
 -20121926.297 9 -15660764.74548  21343318.228    21343317.6994   21343325.9584
        -0.000          -0.000
 -19487394.016 9 -14930682.68249  21351936.785    21351936.3224   21351944.7184
        -0.000          -0.000
  10787144.59418   8427073.30745  25447491.003    25447491.2605   25447509.2104
        -0.000          -0.000
  -8353871.453 9  -6498638.08747  22201659.110    22201659.2614   22201667.7764
        -0.000          -0.000
  -7978483.013 9  -6199238.29946  24072873.542    24072873.0074   24072884.6994
        -0.000          -0.000
 99  4 13  1 21  0.0010000  0  7 22  6 17 23 30 26 21                0.001430764
  -6923100.868 9  -5193255.77446  23791428.914    23791428.5474   23791439.4054
        -0.000          -0.000
 -19490574.777 9 -14582023.29148  21234406.130    21234405.9974   21234413.7374
        -0.000          -0.000
 -20130263.435 9 -15667261.18249  21341731.797    21341731.2374   21341739.4364
        -0.000          -0.000
 -19509422.875 9 -14947847.96649  21347744.816    21347744.3144   21347752.6884
        -0.000          -0.000
  10892907.87518   8509485.99245  25467616.413    25467616.9465   25467635.3474
        -0.000          -0.000
  -8337998.507 9  -6486269.49747  22204679.511    22204679.7204   22204688.1284
        -0.000          -0.000
  -8049777.645 9  -6254792.32946  24059306.282    24059305.6814   24059317.6544
        -0.000          -0.000
 99  4 13  1 21 30.0010000  0  7 22  6 17 23 30 26 21                0.001435985
  -6901045.346 9  -5176069.64646  23795625.977    23795625.5914   23795636.3524
        -0.000          -0.000
 -19428264.528 9 -14533469.88448  21246263.398    21246263.2684   21246271.1344
        -0.000          -0.000
 -20138450.622 9 -15673640.76949  21340173.978    21340173.3754   21340181.3814
        -0.000          -0.000
 -19531054.946 9 -14964704.06349  21343628.419    21343627.9144   21343636.1204
        -0.000          -0.000
  10998509.376 8   8591772.67945  25487711.750    25487712.1534   25487730.8364
        -0.000          -0.000
  -8321533.893 9  -6473439.86547  22207812.580    22207812.8214   22207821.2024
        -0.000          -0.000
  -8120857.372 9  -6310178.93646  24045779.846    24045779.3144   24045791.6014
        -0.000          -0.000
 99  4 13  1 22  0.0010000  0  7 22  6 17 23 30 26 21                0.001441215
  -6878521.031 9  -5158518.25246  23799912.408    23799911.8944   23799922.4914
        -0.000          -0.000
 -19365496.716 9 -14484559.93248  21258207.653    21258207.5594   21258215.5974
        -0.000          -0.000
 -20146478.953 9 -15679896.57848  21338646.164    21338645.5634   21338653.5524
        -0.000          -0.000
 -19552286.575 9 -14981248.13249  21339588.185    21339587.6714   21339595.7854
        -0.000          -0.000
  11103961.066 8   8673942.64645  25507779.101    25507779.3804   25507797.7064
        -0.000          -0.000
  -8304454.817 9  -6460131.43747  22211062.794    22211062.8924   22211071.3204
        -0.000          -0.000
  -8191717.990 9  -6365394.82146  24032295.111    24032294.6894   24032307.0434
        -0.000          -0.000
 99  4 13  1 22 30.0010000  0  7 22  6 17 23 30 26 21                0.001446457
  -6855506.796 9  -5140585.08146  23804291.733    23804291.2924   23804301.8944
        -0.000          -0.000
 -19302256.012 9 -14435281.49248  21270242.049    21270241.9384   21270249.9534
        -0.000          -0.000
 -20154334.940 9 -15686018.09948  21337151.078    21337150.5184   21337158.5934
        -0.000          -0.000
 -19573101.569 9 -14997467.54749  21335627.171    21335626.7434   21335634.7584
        -0.000          -0.000
  11209270.830 8   8756002.01845  25527819.233    25527819.7174   25527837.4784
        -0.000          -0.000
  -8286754.674 9  -6446339.07047  22214430.850    22214431.0294   22214439.5384
        -0.000          -0.000
  -8262345.108 9  -6420428.75646  24018855.096    24018854.6534   24018866.8814
        -0.000          -0.000
 99  4 13  1 23  0.0010000  0  7 22  6 17 23 30 26 21                0.001451699
  -6832023.150 9  -5122286.13646  23808760.295    23808759.8884   23808770.7264
        -0.000          -0.000
 -19238576.269 9 -14385660.94648  21282359.977    21282359.8694   21282367.8084
        -0.000          -0.000
 -20162059.932 9 -15692037.54149  21335681.110    21335680.5464   21335688.5814
        -0.000          -0.000
 -19593537.276 9 -15013391.40949  21331738.418    21331737.9654   21331745.8484
        -0.000          -0.000
  11314401.973 8   8837922.21745  25547825.251    25547825.7974   25547843.3094
        -0.000          -0.000
  -8268463.572 9  -6432086.22847  22217911.594    22217911.7304   22217920.1454
        -0.000          -0.000
  -8332778.486 9  -6475311.73146  24005451.816    24005451.5124   24005463.6784
        -0.000          -0.000
 99  4 13  1 23 30.0010000  0  7 22  6 17 23 30 26 21                0.001456963
  -6808031.948 9  -5103591.69146  23813325.580    23813325.1884   23813336.2394
        -0.000          -0.000
 -19174428.290 9 -14335675.53848  21294566.861    21294566.7384   21294574.7984
        -0.000          -0.000
 -20169596.889 9 -15697910.46948  21334246.861    21334246.2494   21334254.3064
        -0.000          -0.000
 -19613549.782 9 -15028985.51449  21327930.139    21327929.6624   21327937.5074
        -0.000          -0.000
  11419402.695 8   8919740.78945  25567806.753    25567806.9764   25567824.4474
        -0.000          -0.000
  -8249537.265 9  -6417338.42147  22221513.329    22221513.4564   22221521.5274
        -0.000          -0.000
  -8402983.454 9  -6530016.73746  23992091.990    23992091.8304   23992103.7854
        -0.000          -0.000
 99  4 13  1 24  0.0010000  0  7 22  6 17 23 30 26 21                0.001462230
  -6783569.169 9  -5084529.77746  23817980.770    23817980.2754   23817991.4804
        -0.000          -0.000
 -19109832.775 9 -14285341.39248  21306858.818    21306858.7594   21306867.0114
        -0.000          -0.000
 -20176952.459 9 -15703642.05448  21332847.028    21332846.5374   21332854.5034
        -0.000          -0.000
 -19633159.744 9 -15044265.95049  21324198.378    21324197.9954   21324205.8194
        -0.000          -0.000
  11524247.421 8   9001437.75845  25587758.263    25587758.2934   25587775.9554
        -0.000          -0.000
  -8229990.348 9  -6402107.00347  22225233.130    22225233.1814   22225241.0684
        -0.000          -0.000
  -8472983.731 9  -6584562.22346  23978771.306    23978771.0624   23978782.7794
        -0.000          -0.000
 99  4 13  1 24 30.0010000  0  7 22  6 17 23 30 26 21                0.001467481
  -6758655.622 9  -5065116.65446  23822721.528    23822721.2334   23822732.4534
        -0.000          -0.000
 -19044791.346 9 -14234659.78848  21319235.843    21319235.8304   21319244.1034
        -0.000          -0.000
 -20184123.692 9 -15709230.00048  21331482.580    21331481.9724   21331489.8694
        -0.000          -0.000
 -19652378.008 9 -15059241.16249  21320541.370    21320540.8774   21320548.6314
        -0.000          -0.000
  11628922.548 8   9083002.62845  25607677.676    25607677.7434   25607694.9524
        -0.000          -0.000
  -8209837.951 9  -6386403.78947  22229067.987    22229068.0964   22229075.9154
        -0.000          -0.000
  -8542783.438 9  -6638951.43546  23965488.999    23965488.6874   23965500.1014
        -0.000          -0.000
 99  4 13  1 25  0.0010000  0  7 22  6 17 23 30 26 21                0.001472730
  -6733293.759 9  -5045354.17646  23827547.765    23827547.4134   23827558.5814
        -0.000          -0.000
 -18979299.187 9 -14183626.97748  21331698.751    21331698.6824   21331706.8394
        -0.000          -0.000
 -20191112.318 9 -15714675.66949  21330152.675    21330152.0734   21330159.9274
        -0.000          -0.000
 -19671208.356 9 -15073914.10549  21316957.996    21316957.5174   21316965.2084
        -0.000          -0.000
  11733441.499 8   9164445.79745  25627567.260    25627567.3644   25627584.5464
        -0.000          -0.000
  -8189066.285 9  -6370218.04247  22233020.631    22233020.7204   22233028.5834
        -0.000          -0.000
  -8612377.628 9  -6693180.49246  23952245.668    23952245.3864   23952256.5874
        -0.000          -0.000
 99  4 13  1 25 30.0010000  0  7 22  6 17 23 30 26 21                0.001477998
  -6707455.544 9  -5025220.51446  23832464.419    23832464.2584   23832475.3994
        -0.000          -0.000
 -18913332.676 9 -14132224.52948  21344251.962    21344251.8224   21344259.7914
        -0.000          -0.000
 -20197900.487 9 -15719965.11249  21328861.041    21328860.3474   21328868.2284
        -0.000          -0.000
 -19689627.186 9 -15088266.37549  21313452.979    21313452.4644   21313460.2614
        -0.000          -0.000
  11837828.977 9   9245786.50245  25647431.691    25647431.9314   25647449.2164
        -0.000          -0.000
  -8167646.927 9  -6353527.60547  22237096.659    22237096.7584   22237104.4924
        -0.000          -0.000
  -8681740.163 9  -6747229.03946  23939046.329    23939046.0144   23939057.1604
        -0.000          -0.000
 99  4 13  1 26  0.0010000  0  7 22  6 17 23 30 26 21                0.001483292
  -6681147.592 9  -5004720.83846  23837471.047    23837470.6224   23837481.5044
        -0.000          -0.000
 -18846887.537 9 -14080449.12548  21356896.216    21356896.0184   21356903.8284
        -0.000          -0.000
 -20204521.496 9 -15725124.31749  21327600.925    21327600.2904   21327608.3264
        -0.000          -0.000
 -19707652.003 9 -15102311.63449  21310022.724    21310022.3094   21310030.2624
        -0.000          -0.000
  11942059.635 8   9327005.04245  25667266.597    25667266.8314   25667283.9444
        -0.000          -0.000
  -8145592.954 9  -6336342.63747  22241293.282    22241293.3944   22241301.0094
        -0.000          -0.000
  -8750876.300 9  -6801101.16446  23925890.049    23925889.7014   23925900.8834
        -0.000          -0.000
 99  4 13  1 26 30.0010000  0  7 22  6 17 23 30 26 21                0.001488597
  -6654379.890 9  -4983862.91746  23842564.903    23842564.4664   23842575.1484
        -0.000          -0.000
 -18779962.057 9 -14028299.42048  21369631.757    21369631.5624   21369639.3264
        -0.000          -0.000
 -20211003.488 9 -15730175.20249  21326367.311    21326366.7634   21326374.8624
        -0.000          -0.000
 -19725289.641 9 -15116055.19349  21306666.294    21306665.9124   21306673.8234
        -0.000          -0.000
  12046113.907 9   9408086.11945  25687067.872    25687067.9724   25687085.2224
        -0.000          -0.000
  -8122926.414 9  -6318680.34847  22245606.438    22245606.5974   22245614.1764
        -0.000          -0.000
  -8819793.205 9  -6854802.48546  23912775.661    23912775.1104   23912786.4284
        -0.000          -0.000
 99  4 13  1 27  0.0010000  0  7 22  6 17 23 30 26 21                0.001493918
  -6627136.961 9  -4962634.66946  23847749.352    23847748.8574   23847759.4464
        -0.000          -0.000
 -18712545.747 9 -13975767.25748  21382460.680    21382460.4914   21382468.2644
        -0.000          -0.000
 -20217347.810 9 -15735118.80649  21325160.109    21325159.5994   21325167.6114
        -0.000          -0.000
 -19742521.984 9 -15129482.93149  21303387.166    21303386.7024   21303394.5964
        -0.000          -0.000
  12149987.172 9   9489026.16245  25706834.474    25706834.3994   25706852.0224
        -0.000          -0.000
  -8099641.423 9  -6300536.16847  22250037.148    22250037.3804   22250045.1714
        -0.000          -0.000
  -8888478.752 9  -6908323.49746  23899705.104    23899704.4504   23899715.9974
        -0.000          -0.000
 99  4 13  1 27 30.0010000  0  7 22  6 17 23 30 26 21                0.001499233
  -6599442.912 9  -4941054.88447  23853019.467    23853018.9284   23853029.6984
        -0.000          -0.000
 -18644651.812 9 -13922862.91348  21395380.353    21395380.1674   21395387.9404
        -0.000          -0.000
 -20223557.805 9 -15739957.73949  21323978.515    21323977.9374   21323985.8214
        -0.000          -0.000
 -19759353.583 9 -15142598.40649  21300184.105    21300183.6404   21300191.6254
        -0.000          -0.000
  12253641.943 9   9569795.94545  25726559.706    25726559.4924   25726577.3524
        -0.000          -0.000
  -8075762.979 9  -6281929.55947  22254580.829    22254581.1344   22254589.1404
        -0.000          -0.000
  -8956939.407 9  -6961669.28846  23886677.112    23886676.5584   23886688.2704
        -0.000          -0.000
 99  4 13  1 28  0.0010000  0  7 22  6 17 23 30 26 21                0.001504535
  -6571305.925 9  -4919129.95647  23858373.922    23858373.2814   23858384.0054
        -0.000          -0.000
 -18576255.157 9 -13869566.85748  21408395.698    21408395.5564   21408403.2924
        -0.000          -0.000
 -20229613.448 9 -15744676.40049  21322826.079    21322825.5654   21322833.4844
        -0.000          -0.000
 -19775768.317 9 -15155389.05349  21297060.357    21297059.8934   21297067.9274
        -0.000          -0.000
  12357082.746 9   9650399.02045  25746244.355    25746244.1154   25746262.0914
        -0.000          -0.000
  -8051289.806 9  -6262859.51547  22259237.975    22259238.2704   22259246.3514
        -0.000          -0.000
  -9025149.823 9  -7014820.11646  23873696.653    23873696.4844   23873708.0664
        -0.000          -0.000
 99  4 13  1 28 30.0010000  0  7 22  6 17 23 30 26 21                0.001509818
  -6542735.370 9  -4896867.19947  23863810.942    23863810.1684   23863820.6704
        -0.000          -0.000
 -18507378.953 9 -13815897.10748  21421502.436    21421502.2534   21421509.9544
        -0.000          -0.000
 -20235508.573 9 -15749269.98049  21321704.345    21321703.7824   21321711.7254
        -0.000          -0.000
 -19791759.977 9 -15167850.02949  21294017.079    21294016.6594   21294024.6804
        -0.000          -0.000
  12460299.519 9   9730827.52145  25765886.202    25765885.7784   25765904.0814
        -0.000          -0.000
  -8026220.859 9  -6243325.21347  22264008.525    22264008.7774   22264016.7714
        -0.000          -0.000
  -9093107.444 9  -7067773.94346  23860764.877    23860764.6464   23860775.8574
        -0.000          -0.000
 99  4 13  1 29  0.0010000  0  7 22  6 17 23 30 26 21                0.001515090
  -6513725.333 9  -4874261.97247  23869331.304    23869330.5564   23869341.1504
        -0.000          -0.000
 -18438050.242 9 -13761874.76448  21434695.255    21434695.0794   21434702.8094
        -0.000          -0.000
 -20241237.616 9 -15753734.14849  21320614.252    21320613.6174   21320621.4924
        -0.000          -0.000
 -19807342.301 9 -15179992.04049  21291051.847    21291051.3624   21291059.4904
        -0.000          -0.000
  12563293.513 8   9811082.41045  25785485.165    25785484.7214   25785503.5714
        -0.000          -0.000
  -8000555.672 9  -6223326.32747  22268892.648    22268892.8364   22268900.6684
        -0.000          -0.000
  -9160809.355 9  -7120528.49246  23847881.311    23847881.1964   23847892.1534
        -0.000          -0.000
 99  4 13  1 29 30.0010000  0  7 22  6 17 23 30 26 21                0.001520360
  -6484277.450 9  -4851315.56947  23874935.174    23874934.3864   23874945.0984
        -0.000          -0.000
 -18368263.747 9 -13707495.69548  21447975.146    21447974.9964   21447982.8614
        -0.000          -0.000
 -20246789.430 9 -15758060.21149  21319557.625    21319557.0584   21319564.8774
        -0.000          -0.000
 -19822514.749 9 -15191814.67249  21288164.452    21288164.0214   21288172.3544
        -0.000          -0.000
  12666087.038 8   9891181.10545  25805045.709    25805045.2914   25805064.5444
        -0.000          -0.000
  -7974285.078 9  -6202855.69447  22273891.635    22273891.8464   22273899.8154
        -0.000          -0.000
  -9228247.272 9  -7173077.36146  23835047.947    23835047.9704   23835058.6324
        -0.000          -0.000
 99  4 13  1 30  0.0010000  0  7 22  6 17 23 30 26 21                0.001525647
  -6454351.109 9  -4827996.34846  23880630.222    23880629.3544   23880640.0364
        -0.000          -0.000
 -18298005.430 9 -13652748.98248  21461344.799    21461344.6304   21461352.6314
        -0.000          -0.000
 -20252150.747 9 -15762237.82849  21318537.360    21318536.7844   21318544.5484
        -0.000          -0.000
 -19837254.589 9 -15203300.20849  21285359.448    21285359.0634   21285367.4794
        -0.000          -0.000
  12768707.693 8   9971145.08745  25824573.016    25824572.7124   25824592.7654
        -0.000          -0.000
  -7947386.834 9  -6181895.99147  22279010.056    22279010.2734   22279018.4254
        -0.000          -0.000
  -9295408.295 9  -7225410.46446  23822267.784    23822267.7084   23822277.8414
        -0.000          -0.000
 99  4 13  1 30 30.0010000  0  7 22  6 17 23 30 26 21                0.001530931
  -6423970.254 9  -4804322.97946  23886411.595    23886410.8024   23886421.2374
        -0.000          -0.000
 -18227335.576 9 -13597681.60548  21474792.773    21474792.6604   21474800.7594
        -0.000          -0.000
 -20257360.668 9 -15766297.48549  21317545.969    21317545.3404   21317553.1074
        -0.000          -0.000
 -19851613.152 9 -15214488.64049  21282627.164    21282626.7044   21282635.0974
        -0.000          -0.000
  12871128.318 8  10050953.20345  25844062.527    25844062.4984   25844082.8714
        -0.000          -0.000
  -7919903.370 9  -6160480.25547  22284239.853    22284240.0924   22284248.4014
        -0.000          -0.000
  -9362353.368 9  -7277575.26946  23809528.757    23809528.4964   23809538.3984
        -0.000          -0.000
 99  4 13  1 31  0.0010000  0  7 22  6 17 23 30 26 21                0.001536208
  -6393120.349 9  -4780284.09346  23892282.250    23892281.2484   23892291.6474
        -0.000          -0.000
 -18156224.006 9 -13542270.03048  21488325.009    21488324.8324   21488332.9154
        -0.000          -0.000
 -20262402.733 9 -15770226.34349  21316586.510    21316585.8454   21316593.6304
        -0.000          -0.000
 -19865582.529 9 -15225373.80849  21279968.965    21279968.4444   21279976.6924
        -0.000          -0.000
  12973379.406 8  10130629.23845  25863519.840    25863520.1094   25863540.8514
        -0.000          -0.000
  -7891839.076 9  -6138611.93047  22289580.404    22289580.5644   22289588.9154
        -0.000          -0.000
  -9429083.962 9  -7329572.96046  23796830.267    23796829.8284   23796839.9894
        -0.000          -0.000
 99  4 13  1 31 30.0010000  0  7 22  6 17 23 30 26 21                0.001541461
  -6361802.839 9  -4755880.86146  23898241.599    23898240.7224   23898251.3284
        -0.000          -0.000
 -18084663.983 9 -13486509.01448  21501942.478    21501942.2954   21501950.3864
        -0.000          -0.000
 -20267277.019 9 -15774024.46549  21315658.754    21315658.1774   21315665.9994
        -0.000          -0.000
 -19879153.658 9 -15235948.66049  21277386.435    21277385.9034   21277394.0534
        -0.000          -0.000
  13075452.818 8  10210166.82745  25882943.561    25882943.9114   25882964.9434
        -0.000          -0.000
  -7863200.857 9  -6116296.39947  22295030.127    22295030.2624   22295038.4884
        -0.000          -0.000
  -9495620.645 9  -7381419.55046  23784168.596    23784168.1634   23784178.6844
        -0.000          -0.000
 99  4 13  1 32  0.0010000  0  7 22  6 17 23 30 26 21                0.001546689
  -6330017.156 9  -4731112.80446  23904290.174    23904289.3054   23904300.0104
        -0.000          -0.000
 -18012663.271 9 -13430404.58948  21515643.841    21515643.6204   21515651.7074
        -0.000          -0.000
 -20271979.240 9 -15777688.51049  21314763.908    21314763.3864   21314771.1234
        -0.000          -0.000
 -19892335.913 9 -15246220.50249  21274877.838    21274877.3194   21274885.4164
        -0.000          -0.000
  13177344.485 8  10289562.78045  25902333.043    25902333.4274   25902354.7924
        -0.000          -0.000
  -7833992.973 9  -6093536.96348  22300588.320    22300588.5044   22300596.6244
        -0.000          -0.000
  -9561976.120 9  -7433124.96346  23771541.649    23771541.1354   23771551.8434
        -0.000          -0.000
 99  4 13  1 32 30.0010000  0  7 22  6 17 23 30 26 21                0.001551909
  -6297754.884 9  -4705973.36246  23910428.949    23910428.2764   23910439.2764
        -0.000          -0.000
 -17940184.106 9 -13373927.34448  21529436.208    21529436.0214   21529444.0564
        -0.000          -0.000
 -20276474.736 9 -15781191.45749  21313908.540    21313907.9094   21313915.5954
        -0.000          -0.000
 -19905102.587 9 -15256168.50149  21272448.371    21272447.8714   21272455.8744
        -0.000          -0.000
  13279091.531 8  10368846.03245  25921695.401    25921695.6334   25921716.6154
        -0.000          -0.000
  -7804177.081 9  -6070303.75548  22306262.276    22306262.3754   22306270.3344
        -0.000          -0.000
  -9628115.034 9  -7484661.62846  23758955.911    23758955.2884   23758966.1554
        -0.000          -0.000
 99  4 13  1 33  0.0010000  0  7 22  6 17 23 30 26 21                0.001557094
  -6265075.605 9  -4680509.00446  23916647.383    23916646.8604   23916657.8454
        -0.000          -0.000
 -17867266.297 9 -13317108.29748  21543312.109    21543311.9154   21543319.8874
        -0.000          -0.000
 -20280815.163 9 -15784573.58349  21313082.536    21313081.9404   21313089.6144
        -0.000          -0.000
 -19917482.184 9 -15265814.87949  21270092.547    21270092.0624   21270100.0564
        -0.000          -0.000
  13380625.440 8  10447963.21645  25941017.152    25941017.3574   25941037.9764
        -0.000          -0.000
  -7773785.288 9  -6046621.80348  22312045.812    22312045.9124   22312053.7624
        -0.000          -0.000
  -9694061.753 9  -7536048.52746  23746406.256    23746405.6974   23746416.9724
        -0.000          -0.000
 99  4 13  1 33 30.0010000  0  7 22  6 17 23 30 26 21                0.001562299
  -6231940.599 9  -4654689.54746  23922953.217    23922952.5344   23922963.3894
        -0.000          -0.000
 -17793882.233 9 -13259925.95348  21557276.613    21557276.4684   21557284.4914
        -0.000          -0.000
 -20284969.780 9 -15787810.91949  21312291.966    21312291.4074   21312299.0444
        -0.000          -0.000
 -19929445.362 9 -15275136.77549  21267815.976    21267815.4784   21267823.5004
        -0.000          -0.000
  13481970.832 8  10526933.49545  25960302.808    25960303.0644   25960322.9204
        -0.000          -0.000
  -7742756.718 9  -6022443.66248  22317950.393    22317950.4754   22317958.3064
        -0.000          -0.000
  -9759762.125 9  -7587243.46246  23733903.735    23733903.2114   23733914.6374
        -0.000          -0.000
 99  4 13  1 34  0.0010000  0  7 22  6 17 23 30 26 21                0.001567539
  -6198362.310 9  -4628524.64646  23929343.226    23929342.3014   23929353.2464
        -0.000          -0.000
 -17720035.396 9 -13202383.00548  21571329.190    21571329.0894   21571337.1284
        -0.000          -0.000
 -20288951.714 9 -15790913.69249  21311534.386    21311533.7624   21311541.3044
        -0.000          -0.000
 -19941012.348 9 -15284149.94849  21265614.785    21265614.3024   21265622.3054
        -0.000          -0.000
  13583121.842 7  10605752.30354  25979551.730    25979552.6304          0.0005
        -0.000          -0.000
  -7711086.349 9  -5997765.41848  22323976.996    22323977.1524   22323985.0064
        -0.000          -0.000
  -9825197.523 9  -7638231.91446  23721451.948    23721451.2614   23721462.5114
        -0.000          -0.000
 99  4 13  1 34 30.0010000  0  7 22  6 17 23 30 26 21                0.001572799
  -6164370.975 9  -4602037.87846  23935811.483    23935810.6134   23935821.5114
        -0.000          -0.000
 -17645765.729 9 -13144510.57648  21585462.279    21585462.1264   21585470.2694
        -0.000          -0.000
 -20292800.378 9 -15793912.62549  21310802.055    21310801.3504   21310808.8764
        -0.000          -0.000
 -19952210.172 9 -15292875.47349  21263483.837    21263483.4174   21263491.3584
        -0.000          -0.000
  13684035.20517  10684385.89454  25998755.515    25998755.8245          0.0005
        -0.000          -0.000
  -7678801.627 9  -5972608.46847  22330120.476    22330120.5804   22330128.4734
        -0.000          -0.000
  -9890388.961 9  -7689030.27146  23709046.245    23709045.5114   23709056.5914
        -0.000          -0.000
 99  4 13  1 35  0.0010000  0  7 22  6 17 23 30 26 21                0.001578098
  -6129944.271 9  -4575211.88746  23942362.843    23942361.9674   23942372.5734
        -0.000          -0.000
 -17571071.457 9 -13086307.28648  21599675.990    21599675.8864   21599684.1974
        -0.000          -0.000
 -20296507.234 9 -15796801.05949  21310096.447    21310095.8284   21310103.3954
        -0.000          -0.000
 -19963042.744 9 -15301316.37949  21261422.632    21261422.1344   21261430.0164
        -0.000          -0.000
  13784709.47716  10762833.24553         0.000           0.0005          0.0005
        -0.000          -0.000
  -7645901.533 9  -5946972.00047  22336381.066    22336381.1454   22336388.8884
        -0.000          -0.000
  -9955324.360 9  -7739629.14746  23696688.884    23696688.4244   23696699.4744
        -0.000          -0.000
 99  4 13  1 35 30.0010000  0  6 22  6 17 23 26 21                   0.001583428
  -6095085.833 9  -4548049.47146  23948996.174    23948995.2864   23949005.9894
        -0.000          -0.000
 -17495962.347 9 -13027780.75648  21613968.803    21613968.6814   21613976.8934
        -0.000          -0.000
 -20300072.999 9 -15799579.56049  21309417.777    21309417.1784   21309424.7724
        -0.000          -0.000
 -19973533.609 9 -15309491.03649  21259426.305    21259425.8064   21259433.5874
        -0.000          -0.000
  -7612406.714 9  -5920872.11247  22342754.835    22342754.9234   22342762.5964
        -0.000          -0.000
 -10020021.560 9  -7790042.41446  23684377.367    23684376.8874   23684387.7754
        -0.000          -0.000
 99  4 13  1 36  0.0010000  0  6 22  6 17 23 26 21                   0.001588750
  -6059822.166 9  -4520571.30846  23955706.385    23955705.5404   23955716.3614
        -0.000          -0.000
 -17420456.772 9 -12968945.28048  21628337.021    21628336.9244   21628345.0464
        -0.000          -0.000
 -20303504.450 9 -15802253.39949  21308764.737    21308764.1694   21308771.7204
        -0.000          -0.000
 -19983677.887 9 -15317395.61749  21257495.957    21257495.4824   21257503.0464
        -0.000          -0.000
  -7578343.465 9  -5894329.29347  22349236.822    22349236.9154   22349244.5714
        -0.000          -0.000
 -10084510.237 9  -7840293.21146  23672105.524    23672104.9144   23672115.7774
        -0.000          -0.000
 99  4 13  1 36 30.0010000  0  6 22  6 17 23 26 21                   0.001594053
  -6024137.238 9  -4492764.91446  23962497.111    23962496.3884   23962506.7884
        -0.000          -0.000
 -17344532.234 9 -12909783.34548  21642784.951    21642784.8624   21642793.0454
        -0.000          -0.000
 -20306766.796 9 -15804795.45549  21308143.977    21308143.3694   21308150.9094
        -0.000          -0.000
 -19993434.000 9 -15324997.72749  21255639.437    21255638.9474   21255646.3594
        -0.000          -0.000
  -7543695.009 9  -5867330.45447  22355829.984    22355830.1814   22355838.0194
        -0.000          -0.000
 -10148780.599 9  -7890373.89246  23659874.700    23659874.2814   23659885.1284
        -0.000          -0.000
 99  4 13  1 37  0.0010000  0  6 22  6 17 23 26 21                   0.001599326
  -5988050.775 9  -4464645.60746  23969364.318    23969363.4364   23969373.7074
        -0.000          -0.000
 -17268183.716 9 -12850291.03248  21657313.501    21657313.4444   21657321.7474
        -0.000          -0.000
 -20309860.261 9 -15807205.92449  21307555.151    21307554.5774   21307562.2354
        -0.000          -0.000
 -20002808.713 9 -15332302.63949  21253855.407    21253854.9234   21253862.3124
        -0.000          -0.000
  -7508475.531 9  -5839886.65447  22362531.887    22362532.0124   22362540.2134
        -0.000          -0.000
 -10212836.164 9  -7940287.15946  23647684.907    23647684.6794   23647695.3784
        -0.000          -0.000
 99  4 13  1 37 30.0010000  0  6 22  6 17 23 26 21                   0.001604558
  -5951565.814 9  -4436215.77646  23976306.815    23976306.2394   23976316.7054
        -0.000          -0.000
 -17191400.881 9 -12790460.29248  21671924.756    21671924.7094   21671933.0864
        -0.000          -0.000
 -20312762.230 9 -15809467.17749  21307002.914    21307002.3794   21307009.9414
        -0.000          -0.000
 -20011775.034 9 -15339289.33549  21252148.927    21252148.5444   21252156.0094
        -0.000          -0.000
  -7472669.192 9  -5811985.57847  22369345.419    22369345.6044   22369353.9434
        -0.000          -0.000
 -10276664.939 9  -7990023.70646  23635538.428    23635538.3084   23635548.9514
        -0.000          -0.000
 99  4 13  1 38  0.0010000  0  6 22  6 17 23 26 21                   0.001609743
  -5914704.236 9  -4407492.51846  23983321.588    23983321.0214   23983331.2114
        -0.000          -0.000
 -17114195.087 9 -12730299.97948  21686616.635    21686616.5784   21686624.9034
        -0.000          -0.000
 -20315486.120 9 -15811589.66149  21306484.652    21306484.0684   21306491.5604
        -0.000          -0.000
 -20020349.218 9 -15345970.46649  21250517.349    21250516.9434   21250524.4114
        -0.000          -0.000
  -7436286.895 9  -5783635.74147  22376268.822    22376268.8724   22376277.1704
        -0.000          -0.000
 -10340278.949 9  -8039592.89746  23623433.118    23623432.9474   23623443.5954
        -0.000          -0.000
 99  4 13  1 38 30.0010000  0  6 22  6 17 23 26 21                   0.001614922
  -5877423.213 9  -4378442.37346  23990416.286    23990415.5914   23990425.6504
        -0.000          -0.000
 -17036521.508 9 -12669775.14948  21701397.507    21701397.3854   21701405.7204
        -0.000          -0.000
 -20317990.376 9 -15813541.00349  21306008.107    21306007.5084   21306015.0774
        -0.000          -0.000
 -20028509.593 9 -15352329.15049  21248964.462    21248963.9994   21248971.5014
        -0.000          -0.000
  -7399290.487 9  -5754807.36247  22383308.993    22383309.0874   22383317.2474
        -0.000          -0.000
 -10403624.318 9  -8088952.76047  23611379.083    23611378.8024   23611389.4134
        -0.000          -0.000
 99  4 13  1 39  0.0010000  0  6 22  6 17 23 26 21                   0.001620085
  -5839745.841 9  -4349083.39946  23997585.982    23997585.3374   23997595.3434
        -0.000          -0.000
 -16958412.120 9 -12608910.72848  21716261.337    21716261.1854   21716269.5634
        -0.000          -0.000
 -20320302.174 9 -15815342.38249  21305568.239    21305567.6124   21305575.2584
        -0.000          -0.000
 -20036296.170 9 -15358396.56949  21247482.573    21247482.1544   21247489.7424
        -0.000          -0.000
  -7361706.914 9  -5725521.42347  22390460.789    22390460.8874   22390469.0994
        -0.000          -0.000
 -10466727.545 9  -8138123.95547  23599370.950    23599370.6064   23599381.3414
        -0.000          -0.000
 99  4 13  1 39 30.0010000  0  6 22  6 17 23 26 21                   0.001625233
  -5801673.396 9  -4319416.58346  24004831.383    24004830.3824   24004840.2624
        -0.000          -0.000
 -16879876.329 9 -12547714.05748  21731206.418    21731206.2094   21731214.6074
        -0.000          -0.000
 -20322420.246 9 -15816992.79749  21305165.250    21305164.5814   21305172.1664
        -0.000          -0.000
 -20043706.753 9 -15364170.99849  21246072.428    21246071.9514   21246079.5334
        -0.000          -0.000
  -7323533.010 9  -5695775.49647  22397725.147    22397725.2084   22397733.1834
        -0.000          -0.000
 -10529605.219 9  -8187119.41447  23587405.591    23587405.3894   23587416.0934
        -0.000          -0.000
 99  4 13  1 40  0.0010000  0  6 22  6 17 23 26 21                   0.001630404
  -5763138.251 9  -4289389.20246  24012164.193    24012163.1264   24012173.0274
        -0.000          -0.000
 -16800861.005 9 -12486143.71748  21746242.626    21746242.3904   21746250.7964
        -0.000          -0.000
 -20324309.054 9 -15818464.57349  21304805.780    21304805.1204   21304812.7004
        -0.000          -0.000
 -20050686.828 9 -15369609.97349  21244744.094    21244743.6104   21244751.2774
        -0.000          -0.000
  -7284715.402 9  -5665527.97047  22405111.763    22405111.8544   22405119.9954
        -0.000          -0.000
 -10592214.716 9  -8235905.89147  23575491.683    23575491.3174   23575501.6044
        -0.000          -0.000
 99  4 13  1 40 30.0010000  0  6 22  6 17 23 26 21                   0.001635576
  -5724171.866 9  -4259025.82046  24019578.899    24019577.9824   24019588.0074
        -0.000          -0.000
 -16721419.541 9 -12424241.30748  21761359.739    21761359.5744   21761368.0504
        -0.000          -0.000
 -20326019.280 9 -15819797.19249  21304480.309    21304479.6954   21304487.3204
        -0.000          -0.000
 -20057272.119 9 -15374741.32249  21243490.877    21243490.4084   21243498.0794
        -0.000          -0.000
  -7245302.344 9  -5634816.47147  22412611.861    22412611.9424   22412619.9054
        -0.000          -0.000
 -10654588.997 9  -8284509.06547  23563622.317    23563621.7454   23563631.9554
        -0.000          -0.000
 99  4 13  1 41  0.0010000  0  7 22  6 17  3 23 26 21                0.001640733
  -5684789.482 9  -4228338.29246  24027073.380    24027072.3244   24027082.2874
        -0.000          -0.000
 -16641576.568 9 -12362026.04648  21776553.254    21776553.1764   21776561.7604
        -0.000          -0.000
 -20327579.141 9 -15821012.64549  21304183.525    21304182.8314   21304190.4914
        -0.000          -0.000
   -222395.75418   -153759.62752         0.000           0.0005          0.0005
        -0.000          -0.000
 -20063472.961 9 -15379573.11049  21242310.867    21242310.4244   21242318.0314
        -0.000          -0.000
  -7205319.791 9  -5603661.20847  22420220.365    22420220.4744   22420228.2454
        -0.000          -0.000
 -10716751.407 9  -8332947.14746  23551792.614    23551792.3144   23551802.6714
        -0.000          -0.000
 99  4 13  1 41 30.0010000  0  7 22  6 17  3 23 26 21                0.001645929
  -5644962.715 9  -4197304.46146  24034652.288    24034651.1274   24034661.2904
        -0.000          -0.000
 -16561297.846 9 -12299471.23448  21791829.721    21791829.6704   21791838.2254
        -0.000          -0.000
 -20328975.003 9 -15822100.30349  21303917.764    21303917.1254   21303924.7674
        -0.000          -0.000
   -317287.11218   -227700.91655         0.000           0.0005   25025828.0955
        -0.000          -0.000
 -20069258.916 9 -15384081.60249  21241209.906    21241209.4574   21241217.0164
        -0.000          -0.000
  -7164742.325 9  -5572042.40547  22427942.015    22427942.1594   22427949.8424
        -0.000          -0.000
 -10778668.683 9  -8381194.23147  23540009.982    23540009.7604   23540019.9774
        -0.000          -0.000
 99  4 13  1 42  0.0010000  0  7 22  6 17  3 23 26 21                0.001651084
  -5604717.730 9  -4165944.76546  24042310.568    24042309.5364   24042319.6464
        -0.000          -0.000
 -16480618.464 9 -12236604.21848  21807182.525    21807182.4914   21807190.8224
        -0.000          -0.000
 -20330248.614 9 -15823092.70349  21303675.245    21303674.6934   21303682.3004
        -0.000          -0.000
   -412121.10118   -301597.42545  25007773.842    25007772.6295   25007783.7854
        -0.000          -0.000
 -20074665.872 9 -15388294.77149  21240180.957    21240180.4894   21240188.1404
        -0.000          -0.000
  -7123606.510 9  -5539988.50047  22435769.839    22435769.9604   22435777.7174
        -0.000          -0.000
 -10840353.586 9  -8429260.21947  23528271.799    23528271.3974   23528281.6744
        -0.000          -0.000
 99  4 13  1 42 30.0010000  0  7 22  6 17  3 23 26 21                0.001656235
  -5564050.929 9  -4134256.37346  24050049.180    24050048.2184   24050058.2194
        -0.000          -0.000
 -16399509.955 9 -12173402.80748  21822617.054    21822617.0364   21822625.1404
        -0.000          -0.000
 -20331365.828 9 -15823963.22049  21303462.644    21303462.0604   21303469.7194
        -0.000          -0.000
   -506873.846 8   -375430.63445  24989742.557    24989741.1124   24989753.0964
        -0.000          -0.000
 -20079689.878 9 -15392209.53049  21239224.821    21239224.3914   21239232.0744
        -0.000          -0.000
  -7081899.287 9  -5507489.34547  22443706.237    22443706.3954   22443714.2514
        -0.000          -0.000
 -10901775.145 9  -8477121.03047  23516583.383    23516582.9994   23516593.4964
        -0.000          -0.000
 99  4 13  1 43  0.0010000  0  7 22  6 17  3 23 26 21                0.001661375
  -5522992.758 9  -4102263.00146  24057862.134    24057861.1994   24057871.1374
        -0.000          -0.000
 -16317975.696 9 -12109869.66148  21838132.686    21838132.6154   21838140.7194
        -0.000          -0.000
 -20332332.117 9 -15824716.14849  21303278.645    21303278.0484   21303285.7884
        -0.000          -0.000
   -601552.375 8   -449206.00645  24971724.998    24971724.1254   24971736.4144
        -0.000          -0.000
 -20084343.251 9 -15395835.49249  21238339.190    21238338.7644   21238346.5144
        -0.000          -0.000
  -7039625.491 9  -5474548.70647  22451750.630    22451750.7364   22451758.6584
        -0.000          -0.000
 -10962965.130 9  -8524801.40547  23504938.989    23504938.7204   23504949.2234
        -0.000          -0.000
 99  4 13  1 43 30.0010000  0  7 22  6 17  3 23 26 21                0.001666503
  -5481555.104 9  -4069973.91946  24065747.166    24065746.3604   24065756.3934
        -0.000          -0.000
 -16236029.861 9 -12046015.79948  21853726.630    21853726.5604   21853734.5584
        -0.000          -0.000
 -20333137.480 9 -15825343.67549  21303125.368    21303124.8134   21303132.4894
        -0.000          -0.000
   -696157.463 8   -522924.13245  24953721.659    24953721.4484   24953733.9574
        -0.000          -0.000
 -20088640.594 9 -15399184.02649  21237521.416    21237520.9604   21237528.7304
        -0.000          -0.000
  -6996779.833 9  -5441162.46147  22459903.996    22459904.1214   22459912.0524
        -0.000          -0.000
 -11023929.708 9  -8572306.13347  23493337.833    23493337.4414   23493347.8124
        -0.000          -0.000
 99  4 13  1 44  0.0010000  0  7 22  6 17  3 23 26 21                0.001671637
  -5439712.719 9  -4037369.49746  24073709.814    24073708.9074   24073718.6264
        -0.000          -0.000
 -16153650.342 9 -11981824.01648  21869402.953    21869402.8484   21869411.0284
        -0.000          -0.000
 -20333740.217 9 -15825813.31049  21303010.709    21303010.1334   21303017.6914
        -0.000          -0.000
   -790645.321 9   -596550.89145  24935741.318    24935741.0464   24935753.6584
        -0.000          -0.000
 -20092562.403 9 -15402239.93549  21236775.009    21236774.5674   21236782.2824
        -0.000          -0.000
  -6953337.953 9  -5407311.61347  22468170.951    22468170.8994   22468178.7934
        -0.000          -0.000
 -11084644.251 9  -8619616.02947  23481784.046    23481783.7504   23481793.8774
        -0.000          -0.000
 99  4 13  1 44 30.0010000  0  7 22  6 17  3 23 26 21                0.001676775
  -5397478.111 9  -4004459.42446  24081747.030    24081746.0144   24081755.4854
        -0.000          -0.000
 -16070844.285 9 -11917299.85648  21885160.085    21885160.0894   21885168.6344
        -0.000          -0.000
 -20334140.196 9 -15826124.95049  21302934.572    21302934.0064   21302941.4794
        -0.000          -0.000
   -885008.980 8   -670080.85745  24917784.543    24917783.9084   24917796.8234
        -0.000          -0.000
 -20096125.077 9 -15405016.00049  21236096.939    21236096.5164   21236104.2344
        -0.000          -0.000
  -6909310.251 9  -5373004.29947  22476548.791    22476548.8894   22476557.0144
        -0.000          -0.000
 -11145131.242 9  -8666748.60747  23470273.706    23470273.4184   23470283.2464
        -0.000          -0.000
 99  4 13  1 45  0.0010000  0  7 22  6 17  3 23 26 21                0.001681903
  -5354869.430 9  -3971257.89046  24089855.450    24089854.2904   24089863.7154
        -0.000          -0.000
 -15987649.497 9 -11852472.78448  21900991.465    21900991.5294   21901000.2334
        -0.000          -0.000
 -20334363.729 9 -15826299.10349  21302891.992    21302891.4154   21302898.9504
        -0.000          -0.000
   -979260.613 8   -743523.54945  24899849.048    24899848.4634   24899861.1204
        -0.000          -0.000
 -20099338.100 9 -15407519.61749  21235485.537    21235485.0904   21235492.7924
        -0.000          -0.000
  -6864709.947 9  -5338250.79547  22485035.872    22485036.0044   22485044.0074
        -0.000          -0.000
 -11205410.770 9  -8713719.53647  23458802.760    23458802.4504   23458812.1894
        -0.000          -0.000
 99  4 13  1 45 30.0010000  0  7 22  6 17  3 23 26 21                0.001687049
  -5311841.156 9  -3937729.40846  24098043.646    24098042.4034   24098051.7474
        -0.000          -0.000
 -15904033.299 9 -11787317.34148  21916903.194    21916903.1944   21916911.9584
        -0.000          -0.000
 -20334378.038 9 -15826310.23049  21302889.183    21302888.5874   21302896.1704
        -0.000          -0.000
  -1073358.844 9   -816846.70145  24881942.675    24881942.0204   24881954.5294
        -0.000          -0.000
 -20102166.322 9 -15409723.37849  21234947.355    21234946.9024   21234954.5154
        -0.000          -0.000
  -6819507.951 9  -5303028.44747  22493637.537    22493637.6884   22493645.5644
        -0.000          -0.000
 -11265428.314 9  -8760486.32947  23447381.660    23447381.3064   23447391.1324
        -0.000          -0.000
 99  4 13  1 46  0.0010000  0  7 22  6 17  3 23 26 21                0.001692204
  -5268416.229 9  -3903891.80946  24106306.923    24106305.7524   24106315.3644
        -0.000          -0.000
 -15820008.603 9 -11721843.58848  21932892.686    21932892.6844   21932901.3544
        -0.000          -0.000
 -20334221.599 9 -15826188.30649  21302918.830    21302918.3074   21302925.8234
        -0.000          -0.000
  -1167314.966 8   -890059.13245  24864063.515    24864062.7674   24864074.8174
        -0.000          -0.000
 -20104625.398 9 -15411639.48849  21234479.310    21234478.8664   21234486.4584
        -0.000          -0.000
  -6773733.371 9  -5267359.91047  22502348.282    22502348.4084   22502356.3324
        -0.000          -0.000
 -11325199.106 9  -8807060.81647  23436007.354    23436007.1504   23436017.0944
        -0.000          -0.000
 99  4 13  1 46 30.0010000  0  7 22  6 17  3 23 26 21                0.001697352
  -5224619.128 9  -3869764.18146  24114640.600    24114639.6434   24114649.9604
        -0.000          -0.000
 -15735595.509 9 -11656067.19048  21948955.991    21948956.0244   21948964.6384
        -0.000          -0.000
 -20333916.342 9 -15825950.42449  21302976.963    21302976.4364   21302983.9054
        -0.000          -0.000
  -1261151.947 8   -963178.70845  24846206.728    24846206.0904   24846217.9804
        -0.000          -0.000
 -20106719.755 9 -15413271.40949  21234080.732    21234080.2824   21234087.9464
        -0.000          -0.000
  -6727397.158 9  -5231253.74147  22511166.046    22511166.0744   22511173.8244
        -0.000          -0.000
 -11384731.623 9  -8853449.64247  23424679.094    23424678.6224   23424688.5024
        -0.000          -0.000
 99  4 13  1 47  0.0010000  0  7 22  6 17  3 23 26 21                0.001702503
  -5180435.201 9  -3835335.16346  24123048.437    24123047.5024   24123057.9784
        -0.000          -0.000
 -15650776.340 9 -11589974.37648  21965096.744    21965096.7304   21965105.3154
        -0.000          -0.000
 -20333450.435 9 -15825587.35649  21303065.621    21303065.0354   21303072.5124
        -0.000          -0.000
  -1354861.663 9  -1036199.12545  24828374.374    24828373.6444   24828385.7484
        -0.000          -0.000
 -20108427.162 9 -15414601.80849  21233755.910    21233755.4474   21233763.1484
        -0.000          -0.000
  -6680481.544 9  -5194696.09047  22520093.628    22520093.6444   22520101.5024
        -0.000          -0.000
 -11443994.983 9  -8899628.75047  23413401.776    23413401.2394   23413411.0894
        -0.000          -0.000
 99  4 13  1 47 30.0010000  0  7 22  6 17  3 23 26 21                0.001707650
  -5135882.361 9  -3800618.69846  24131526.487    24131525.6734   24131536.0554
        -0.000          -0.000
 -15565557.535 9 -11523570.15548  21981313.505    21981313.4634   21981322.0304
        -0.000          -0.000
 -20332826.890 9 -15825101.46549  21303184.207    21303183.6734   21303191.1934
        -0.000          -0.000
  -1448450.366 8  -1109125.27945  24810564.491    24810564.2744   24810576.5374
        -0.000          -0.000
 -20109769.255 9 -15415647.55149  21233500.665    21233500.1344   21233507.8104
        -0.000          -0.000
  -6633007.117 9  -5157703.01647  22529127.436    22529127.5204   22529135.4914
        -0.000          -0.000
 -11502993.014 9  -8945601.11847  23402174.911    23402174.3614   23402184.1394
        -0.000          -0.000
 99  4 13  1 48  0.0010000  0  7 22  6 17  3 23 26 21                0.001712798
  -5090957.803 9  -3765612.59046  24140075.200    24140074.4944   24140084.9314
        -0.000          -0.000
 -15479939.780 9 -11456855.05048  21997606.123    21997606.0744   21997614.6104
        -0.000          -0.000
 -20332028.724 9 -15824479.49049  21303336.239    21303335.6574   21303343.1574
        -0.000          -0.000
  -1541909.568 9  -1181950.50945  24792779.664    24792779.5664   24792791.8664
        -0.000          -0.000
 -20110748.084 9 -15416410.23149  21233314.323    21233313.8434   21233321.5154
        -0.000          -0.000
  -6584958.569 9  -5120262.56147  22538270.572    22538270.7894   22538278.7994
        -0.000          -0.000
 -11561727.362 9  -8991367.99147  23390998.518    23390997.7594   23391007.2924
        -0.000          -0.000
 99  4 13  1 48 30.0010000  0  7 22  6 17  3 23 26 21                0.001717949
  -5045654.803 9  -3730311.60146  24148696.031    24148695.3074   24148705.9684
        -0.000          -0.000
 -15393918.605 9 -11389825.59648  22013975.560    22013975.4724   22013983.9264
        -0.000          -0.000
 -20331026.352 9 -15823698.40149  21303527.078    21303526.4164   21303533.8824
        -0.000          -0.000
  -1635235.474 9  -1254671.86445  24775020.378    24775020.3904   24775032.6064
        -0.000          -0.000
 -20111355.959 9 -15416883.85749  21233198.642    21233198.2124   21233205.7554
        -0.000          -0.000
  -6536313.929 9  -5082357.63347  22547527.494    22547527.6614   22547535.5034
        -0.000          -0.000
 -11620196.219 9  -9036928.01947  23379872.235    23379871.4624   23379880.8834
        -0.000          -0.000
 99  4 13  1 49  0.0010000  0  7 22  6 17  3 23 26 21                0.001723095
  -4999991.889 9  -3694730.15846  24157385.557    24157384.7304   24157395.4134
        -0.000          -0.000
 -15307514.917 9 -11322498.10048  22030417.734    22030417.5894   22030425.9404
        -0.000          -0.000
 -20329823.946 9 -15822761.45349  21303755.823    21303755.1974   21303762.6454
        -0.000          -0.000
  -1728427.702 9  -1327289.05345  24757286.610    24757286.4984   24757298.7384
        -0.000          -0.000
 -20111616.810 9 -15417087.06849  21233149.155    21233148.6474   21233156.0054
        -0.000          -0.000
  -6487091.594 9  -5044002.56247  22556894.193    22556894.3484   22556902.1344
        -0.000          -0.000
 -11678417.780 9  -9082295.34447  23368792.611    23368792.1424   23368801.4574
        -0.000          -0.000
 99  4 13  1 49 30.0010000  0  7 22  6 17  3 23 26 21                0.001728231
  -4953962.410 9  -3658863.11046  24166145.196    24166144.2064   24166154.5134
        -0.000          -0.000
 -15220730.002 9 -11254873.53948  22046932.124    22046932.0374   22046940.4984
        -0.000          -0.000
 -20328397.356 9 -15821649.79949  21304027.332    21304026.6594   21304034.1504
        -0.000          -0.000
  -1821457.998 9  -1399780.08045  24739583.445    24739583.2134   24739595.4764
        -0.000          -0.000
 -20111517.656 9 -15417009.75949  21233167.903    21233167.3944   21233174.7884
        -0.000          -0.000
  -6437292.086 9  -5005197.73747  22566370.623    22566370.8274   22566378.6724
        -0.000          -0.000
 -11736406.914 9  -9127481.55047  23357757.464    23357756.9724   23357766.3844
        -0.000          -0.000
 99  4 13  1 50  0.0010000  0  7 22  6 17  3 23 26 21                0.001733355
  -4907553.016 9  -3622699.96946  24174976.595    24174975.7724   24174986.0574
        -0.000          -0.000
 -15133558.056 9 -11186947.40848  22063520.257    22063520.2134   22063528.7494
        -0.000          -0.000
 -20326746.326 9 -15820363.27349  21304341.341    21304340.7424   21304348.3214
        -0.000          -0.000
  -1914325.996 9  -1472144.60345  24721911.287    24721910.8984   24721923.1074
        -0.000          -0.000
 -20111038.388 9 -15416636.26749  21233259.007    21233258.4814   21233265.9084
        -0.000          -0.000
  -6386914.662 9  -4965942.58247  22575957.167    22575957.3604   22575965.2474
        -0.000          -0.000
 -11794172.067 9  -9172493.22847  23346764.857    23346764.3224   23346773.9844
        -0.000          -0.000
 99  4 13  1 50 30.0010000  0  7 22  6 17  3 23 26 21                0.001738448
  -4860785.293 9  -3586257.61246  24183876.340    24183875.5514   24183886.0734
        -0.000          -0.000
 -15046010.107 9 -11118728.27748  22080180.026    22080179.9994   22080188.6984
        -0.000          -0.000
 -20324903.889 9 -15818927.60049  21304691.766    21304691.2394   21304698.8954
        -0.000          -0.000
  -2007054.625 8  -1544400.55345  24704265.067    24704264.8044   24704277.0804
        -0.000          -0.000
 -20110190.094 9 -15415975.20949  21233420.360    21233419.8794   21233427.1834
        -0.000          -0.000
  -6335997.571 9  -4926266.88647  22585646.277    22585646.4724   22585654.6244
        -0.000          -0.000
 -11851726.893 9  -9217341.04247  23335811.962    23335811.6444   23335821.5124
        -0.000          -0.000
 99  4 13  1 51  0.0010000  0  7 22  6 17  3 23 26 21                0.001743536
  -4813621.899 9  -3549506.93146  24192851.833    24192850.7484   24192861.2504
        -0.000          -0.000
 -14958050.825 9 -11050188.62548  22096918.194    22096918.1324   22096926.8064
        -0.000          -0.000
 -20322863.081 9 -15817337.34049  21305080.183    21305079.7104   21305087.2844
        -0.000          -0.000
  -2099618.129 9  -1616527.84245  24686650.282    24686650.2484   24686662.2634
        -0.000          -0.000
 -20108950.006 9 -15415008.86049  21233656.306    21233655.8264   21233663.0574
        -0.000          -0.000
  -6284532.235 9  -4886164.00047  22595439.881    22595440.0134   22595448.2994
        -0.000          -0.000
 -11909040.308 9  -9262000.70647  23324905.625    23324905.1154   23324914.9954
        -0.000          -0.000
 99  4 13  1 51 30.0010000  0  7 22  6 17  3 23 26 21                0.001748628
  -4766053.286 9  -3512440.51846  24201904.004    24201902.9314   24201913.1384
        -0.000          -0.000
 -14869669.413 9 -10981320.05248  22113736.678    22113736.5594   22113745.1304
        -0.000          -0.000
 -20320643.049 9 -15815607.42949  21305502.738    21305502.1284   21305509.7814
        -0.000          -0.000
  -2192034.673 9  -1688540.59745  24669064.057    24669063.9524   24669075.4274
        -0.000          -0.000
 -20107327.714 9 -15413744.69449  21233965.031    21233964.5724   21233971.6694
        -0.000          -0.000
  -6232517.067 9  -4845632.67947  22605337.845    22605338.0304   22605346.4714
        -0.000          -0.000
 -11966119.194 9  -9306477.64347  23314043.768    23314043.1644   23314053.1614
        -0.000          -0.000
 99  4 13  1 52  0.0010000  0  7 22  6 17  3 23 26 21                0.001753732
  -4718104.055 9  -3475077.51346  24211028.602    24211027.3654   24211037.3854
        -0.000          -0.000
 -14780873.791 9 -10912128.71748  22130633.919    22130633.8514   22130642.2564
        -0.000          -0.000
 -20318282.868 9 -15813768.31249  21305951.731    21305951.2274   21305958.8804
        -0.000          -0.000
  -2284339.032 9  -1760465.94446  24651499.282    24651499.0424   24651510.3384
        -0.000          -0.000
 -20105355.694 9 -15412208.01649  21234340.348    21234339.8534   21234346.9714
        -0.000          -0.000
  -6179946.770 9  -4804668.82147  22615341.569    22615341.8144   22615350.2044
        -0.000          -0.000
 -12022956.779 9  -9350766.56147  23303227.532    23303227.1924   23303237.2294
        -0.000          -0.000
 99  4 13  1 52 30.0010000  0  7 22  6 17  3 23 26 21                0.001758865
  -4669776.592 9  -3437419.78246  24220224.498    24220223.4394   24220233.9304
        -0.000          -0.000
 -14691655.913 9 -10842608.35348  22147611.659    22147611.5674   22147619.7724
        -0.000          -0.000
 -20315768.811 9 -15811809.28449  21306430.294    21306429.7154   21306437.2394
        -0.000          -0.000
  -2376519.143 9  -1832294.46446  24633958.063    24633957.8264   24633968.6844
        -0.000          -0.000
 -20103043.310 9 -15410406.12549  21234780.234    21234779.7984   21234787.0444
        -0.000          -0.000
  -6126803.259 9  -4763258.29747  22625454.588    22625454.7834   22625462.9144
        -0.000          -0.000
 -12079542.951 9  -9394859.57747  23292459.425    23292459.0474   23292469.1324
        -0.000          -0.000
 99  4 13  1 53  0.0010000  0  7 22  6 17  3 23 26 21                0.001764038
  -4621054.096 9  -3399454.23446  24229495.241    24229494.6904   24229505.4814
        -0.000          -0.000
 -14602006.705 9 -10772751.87548  22164671.358    22164671.1884   22164679.4094
        -0.000          -0.000
 -20313058.074 9 -15809697.00649  21306946.230    21306945.6484   21306953.0044
        -0.000          -0.000
  -2468551.398 9  -1904007.78846  24616445.111    24616444.9004   24616455.2864
        -0.000          -0.000
 -20100381.032 9 -15408331.57849  21235286.893    21235286.3774   21235293.5794
        -0.000          -0.000
  -6073051.550 9  -4721373.81747  22635683.311    22635683.4734   22635691.3254
        -0.000          -0.000
 -12135861.368 9  -9438743.95347  23281742.206    23281741.8664   23281751.8784
        -0.000          -0.000
 99  4 13  1 53 30.0010000  0  7 22  6 17  3 23 26 21                0.001769224
  -4571981.770 9  -3361216.08346  24238833.391    24238832.8954   24238843.5464
        -0.000          -0.000
 -14511964.751 9 -10702589.35347  22181805.491    22181805.4564   22181813.7894
        -0.000          -0.000
 -20310153.438 9 -15807433.63949  21307499.011    21307498.3764   21307505.7034
        -0.000          -0.000
  -2560447.632 9  -1975615.07746  24598957.999    24598957.5664   24598967.9074
        -0.000          -0.000
 -20097383.834 9 -15405996.05749  21235857.259    21235856.7134   21235863.9214
        -0.000          -0.000
  -6018716.319 9  -4679034.65447  22646023.005    22646023.1844   22646030.7544
        -0.000          -0.000
 -12191926.372 9  -9482430.86047  23271073.286    23271072.8424   23271082.6904
        -0.000          -0.000
 99  4 13  1 54  0.0010000  0  7 22  6 17  3 23 26 21                0.001774410
  -4522563.844 9  -3322708.65246  24248237.643    24248236.9554   24248247.3554
        -0.000          -0.000
 -14421534.624 9 -10632124.37347  22199013.823    22199013.8124   22199022.0784
        -0.000          -0.000
 -20307019.071 9 -15804991.25249  21308095.372    21308094.7434   21308102.1894
        -0.000          -0.000
  -2652181.990 9  -2047096.26545  24581501.508    24581501.0024   24581511.1704
        -0.000          -0.000
 -20094028.399 9 -15403381.39449  21236495.645    21236495.1114   21236502.3804
        -0.000          -0.000
  -5963800.003 9  -4636242.70247  22656473.391    22656473.5004   22656480.9804
        -0.000          -0.000
 -12247731.038 9  -9525914.91747  23260453.821    23260453.4144   23260463.0414
        -0.000          -0.000
 99  4 13  1 54 30.0010000  0  7 22  6 17  3 23 26 21                0.001779571
  -4472802.840 9  -3283933.89146  24257707.009    24257706.1994   24257716.5454
        -0.000          -0.000
 -14330738.708 9 -10561374.38148  22216292.065    22216291.9514   22216300.0954
        -0.000          -0.000
 -20303648.301 9 -15802364.65749  21308736.805    21308736.2094   21308743.6484
        -0.000          -0.000
  -2743749.749 9  -2118447.60145  24564076.523    24564075.8654   24564086.2794
        -0.000          -0.000
 -20090310.787 9 -15400484.52249  21237203.064    21237202.5314   21237209.8844
        -0.000          -0.000
  -5908334.728 9  -4593022.99747  22667028.018    22667028.1734   22667035.8084
        -0.000          -0.000
 -12303280.485 9  -9569200.10447  23249882.975    23249882.6114   23249892.1694
        -0.000          -0.000
 99  4 13  1 55  0.0010000  0  7 22  6 17  3 23 26 21                0.001784698
  -4422713.582 9  -3244903.32846  24267238.721    24267237.8014   24267247.9984
        -0.000          -0.000
 -14239594.244 9 -10490352.76348  22233636.479    22233636.3144   22233644.2994
        -0.000          -0.000
 -20300063.003 9 -15799570.90049  21309419.058    21309418.4374   21309425.8164
        -0.000          -0.000
  -2835150.057 8  -2189668.47845  24546683.611    24546682.7564   24546692.9874
        -0.000          -0.000
 -20086228.441 9 -15397303.43849  21237979.884    21237979.3234   21237986.7184
        -0.000          -0.000
  -5852339.440 9  -4549390.30447  22677683.627    22677683.7174   22677691.4834
        -0.000          -0.000
 -12358579.732 9  -9612290.32747  23239359.819    23239359.5564   23239369.1044
        -0.000          -0.000
 99  4 13  1 55 30.0010000  0  7 22  6 17  3 23 26 21                0.001789789
  -4372299.761 9  -3205619.89446  24276832.122    24276831.2694   24276841.2964
        -0.000          -0.000
 -14148107.383 9 -10419064.33447  22251045.844    22251045.6814   22251053.5874
        -0.000          -0.000
 -20296280.370 9 -15796623.36749  21310138.710    21310138.1694   21310145.5104
        -0.000          -0.000
  -2926369.133 8  -2260748.12645  24529324.777    24529324.0434   24529334.4594
        -0.000          -0.000
 -20081776.671 9 -15393834.48949  21238826.874    21238826.3674   21238833.8204
        -0.000          -0.000
  -5795822.404 9  -4505351.05047  22688438.344    22688438.4914   22688446.4094
        -0.000          -0.000
 -12413643.995 9  -9655197.43847  23228881.493    23228881.1604   23228890.6374
        -0.000          -0.000
 99  4 13  1 56  0.0010000  0  7 22  6 17  3 23 26 21                0.001794870
  -4321540.856 9  -3166067.53946  24286491.127    24286490.3934   24286500.4284
        -0.000          -0.000
 -14056273.343 9 -10347505.37148  22268521.399    22268521.1944   22268529.1474
        -0.000          -0.000
 -20292316.549 9 -15793534.64949  21310892.825    21310892.2774   21310899.7714
        -0.000          -0.000
  -3017398.746 8  -2331680.16245  24512002.022    24512001.3454   24512011.9884
        -0.000          -0.000
 -20076964.688 9 -15390084.85249  21239742.544    21239742.0534   21239749.4944
        -0.000          -0.000
  -5738769.759 9  -4460894.44647  22699295.138    22699295.3144   22699302.9974
        -0.000          -0.000
 -12468471.359 9  -9697919.95647  23218448.231    23218447.9334   23218457.3384
        -0.000          -0.000
 99  4 13  1 56 30.0010000  0  7 22  6 17  3 23 26 21                0.001799955
  -4270427.675 9  -3126239.10946  24296217.262    24296216.7504   24296227.2614
        -0.000          -0.000
 -13964082.133 9 -10275668.11448  22286064.840    22286064.6484   22286072.7324
        -0.000          -0.000
 -20288195.440 9 -15790323.37649  21311676.913    21311676.4134   21311684.0494
        -0.000          -0.000
  -3108237.354 9  -2402463.35945  24494715.679    24494715.3324   24494725.9134
        -0.000          -0.000
 -20071799.049 9 -15386059.64049  21240725.533    21240725.0324   21240732.5344
        -0.000          -0.000
  -5681181.344 9  -4416020.34947  22710253.939    22710254.1184   22710261.5294
        -0.000          -0.000
 -12523046.819 9  -9740446.19947  23208062.978    23208062.6124   23208072.0464
        -0.000          -0.000
 99  4 13  1 57  0.0010000  0  7 22  6 17  3 23 26 21                0.001805057
  -4218969.978 9  -3086142.25446  24306008.805    24306008.5914   24306019.7234
        -0.000          -0.000
 -13871523.804 9 -10203544.79848  22303678.224    22303677.9954   22303686.2044
        -0.000          -0.000
 -20283925.554 9 -15786996.16949  21312489.556    21312489.0014   21312496.6934
        -0.000          -0.000
  -3198880.586 9  -2473094.31246  24477466.990    24477466.5034   24477477.2304
        -0.000          -0.000
 -20066295.244 9 -15381770.93649  21241772.797    21241772.3474   21241779.8324
        -0.000          -0.000
  -5623056.821 9  -4370728.51747  22721314.904    22721315.0104   22721322.1794
        -0.000          -0.000
 -12577387.136 9  -9782789.20547  23197722.560    23197722.0714   23197731.3194
        -0.000          -0.000
 99  4 13  1 57 30.0010000  0  7 22  6 17  3 23 26 21                0.001810193
  -4167149.672 9  -3045762.82046  24315869.929    24315869.7334   24315880.9654
        -0.000          -0.000
 -13778570.099 9 -10131113.36848  22321366.744    22321366.5304   22321374.9154
        -0.000          -0.000
 -20279484.975 9 -15783535.95549  21313334.584    21313334.0064   21313341.7724
        -0.000          -0.000
  -3289321.374 9  -2543567.52745  24460256.824    24460256.2474   24460266.9464
        -0.000          -0.000
 -20060448.144 9 -15377214.71349  21242885.566    21242885.0574   21242892.5144
        -0.000          -0.000
  -5564377.254 9  -4325004.16347  22732481.259    22732481.3614   22732488.4774
        -0.000          -0.000
 -12631464.095 9  -9824926.97747  23187432.085    23187431.4864   23187440.5344
        -0.000          -0.000
 99  4 13  1 58  0.0010000  0  7 22  6 17  3 23 26 21                0.001815349
  -4114977.652 9  -3005109.33946  24325798.231    24325797.9804   24325809.0874
        -0.000          -0.000
 -13685219.610 9 -10058372.75947  22339130.732    22339130.5424   22339139.0504
        -0.000          -0.000
 -20274875.374 9 -15779944.03049  21314211.781    21314211.1784   21314218.9514
        -0.000          -0.000
  -3379587.036 8  -2613904.27745  24443079.886    24443079.1594   24443089.7944
        -0.000          -0.000
 -20054271.056 9 -15372401.36449  21244060.918    21244060.4334   21244067.9364
        -0.000          -0.000
  -5505165.238 9  -4278864.92047  22743748.819    22743748.9414   22743756.1504
        -0.000          -0.000
 -12685262.317 9  -9866847.53847  23177194.476    23177193.9044   23177202.8724
        -0.000          -0.000
 99  4 13  1 58 30.0010000  0  7 22  6 17  3 23 26 21                0.001820507
  -4062468.288 9  -2964192.99246  24335790.811    24335790.5324   24335801.3164
        -0.000          -0.000
 -13591468.420 9  -9985319.91947  22356971.153    22356970.9314   22356979.3114
        -0.000          -0.000
 -20270073.530 9 -15776202.30849  21315125.682    21315125.0564   21315132.7104
        -0.000          -0.000
  -3469690.252 8  -2684114.45045  24425933.702    24425932.9194   24425943.5684
        -0.000          -0.000
 -20047756.488 9 -15367325.03849  21245300.550    21245300.1054   21245307.4864
        -0.000          -0.000
  -5445427.907 9  -4232316.33847  22755116.278    22755116.4714   22755123.7934
        -0.000          -0.000
 -12738787.068 9  -9908555.04347  23167008.795    23167008.3744   23167017.4414
        -0.000          -0.000
 99  4 13  1 59  0.0010000  0  7 22  6 17  3 23 26 21                0.001825664
  -4009625.735 9  -2923017.02246  24345846.805    24345846.3814   24345856.9734
        -0.000          -0.000
 -13497323.077 9  -9911959.95847  22374886.393    22374886.1694   22374894.6034
        -0.000          -0.000
 -20265056.358 9 -15772292.80349  21316080.483    21316079.7854   21316087.4364
        -0.000          -0.000
  -3559635.785 8  -2754201.75445  24408817.187    24408816.5594   24408827.2004
        -0.000          -0.000
 -20040899.106 9 -15361981.59349  21246605.446    21246604.9424   21246612.2644
        -0.000          -0.000
  -5385145.965 9  -4185343.36347  22766587.531    22766587.6794   22766595.1224
        -0.000          -0.000
 -12792042.292 9  -9950052.50947  23156874.656    23156874.2294   23156883.2674
        -0.000          -0.000
 99  4 13  1 59 30.0010000  0  8 22  6 17  3 23 29 26 21             0.001830791
  -3956466.745 9  -2881594.47546  24355962.621    24355962.1684   24355972.9264
        -0.000          -0.000
 -13402824.313 9  -9838324.59147  22392868.782    22392868.5804   22392877.2204
        -0.000          -0.000
 -20259838.239 9 -15768226.70549  21317073.306    21317072.6784   21317080.3804
        -0.000          -0.000
  -3649454.746 8  -2824190.43545  24391724.821    24391724.3414   24391734.9084
        -0.000          -0.000
 -20033708.205 9 -15356378.26149  21247973.718    21247973.2544   21247980.5864
        -0.000          -0.000
   -290536.51418   -207395.62752         0.000           0.0005          0.0005
        -0.000          -0.000
  -5324338.371 9  -4137960.79147  22778158.754    22778158.9194   22778166.5514
        -0.000          -0.000
 -12845048.890 9  -9991356.23847  23146788.003    23146787.4624   23146796.2894
        -0.000          -0.000
 99  4 13  2  0  0.0010000  0  8 22  6 17  3 23 29 26 21             0.001835895
  -3902980.599 9  -2839917.01346  24366140.718    24366140.2024   24366151.1474
        -0.000          -0.000
 -13307979.641 9  -9764419.68547  22410916.970    22410916.8454   22410925.6594
        -0.000          -0.000
 -20254391.801 9 -15763982.70149  21318109.706    21318109.0804   21318116.8074
        -0.000          -0.000
  -3739123.721 8  -2894062.27145  24374661.281    24374660.6744   24374671.2104
        -0.000          -0.000
 -20026171.267 9 -15350505.28749  21249407.948    21249407.4424   21249414.6754
        -0.000          -0.000
   -390161.61918    -47307.92252         0.000           0.0005          0.0005
        -0.000          -0.000
  -5262988.008 9  -4090155.30847  22789833.313    22789833.4474   22789841.1844
        -0.000          -0.000
 -12897811.154 9 -10032469.58847  23136747.663    23136747.0844   23136755.7864
        -0.000          -0.000
 99  4 13  2  0 30.0010000  0  8 22  6 17  3 23 29 26 21             0.001840997
  -3849159.989 9  -2797978.91546  24376382.478    24376381.8224   24376393.1004
        -0.000          -0.000
 -13212784.348 9  -9690241.57247  22429032.128    22429031.9844   22429040.5764
        -0.000          -0.000
 -20248697.707 9 -15759545.72549  21319193.174    21319192.5704   21319200.3074
        -0.000          -0.000
  -3828601.538 8  -2963785.13345  24357633.876    24357633.3824   24357644.0874
        -0.000          -0.000
 -20018275.934 9 -15344353.04849  21250910.241    21250909.8114   21250916.9684
        -0.000          -0.000
   -489874.558 8   -125005.46452         0.000           0.0004          0.0005
        -0.000          -0.000
  -5201060.495 9  -4041900.10047  22801617.631    22801617.8184   22801625.5074
        -0.000          -0.000
 -12950329.659 9 -10073393.00247  23126753.428    23126753.0924   23126761.7234
        -0.000          -0.000
 99  4 13  2  1  0.0010000  0  8 22  6 17  3 23 29 26 21             0.001846089
  -3795023.575 9  -2755794.75846  24386684.724    24386683.7704   24386694.8484
        -0.000          -0.000
 -13117268.457 9  -9615813.65547  22447208.356    22447208.2214   22447216.4684
        -0.000          -0.000
 -20242778.617 9 -15754933.42249  21320319.423    21320318.8314   21320326.5194
        -0.000          -0.000
  -3917874.986 9  -3033348.79245  24340645.087    24340645.1124   24340655.9314
        -0.000          -0.000
 -20010031.380 9 -15337928.68749  21252479.135    21252478.7154   21252485.7834
        -0.000          -0.000
   -589684.097 8   -202779.00653         0.000           0.0004   25652899.9485
        -0.000          -0.000
  -5138574.283 9  -3993209.54247  22813508.399    22813508.5274   22813516.1554
        -0.000          -0.000
 -13002614.324 9 -10114134.17347  23116803.931    23116803.5314   23116812.1004
        -0.000          -0.000
 99  4 13  2  1 30.0010000  0  8 22  6 17  3 23 29 26 21             0.001851169
  -3740576.993 9  -2713368.87746  24397046.052    24397044.8164   24397055.4564
        -0.000          -0.000
 -13021431.052 9  -9541135.19747  22465445.730    22465445.6154   22465453.6734
        -0.000          -0.000
 -20236638.990 9 -15750149.29449  21321487.565    21321487.0224   21321494.8474
        -0.000          -0.000
  -4006924.556 9  -3102738.00546  24323699.080    24323699.4234   24323710.3664
        -0.000          -0.000
 -20001439.622 9 -15331233.79249  21254114.078    21254113.6734   21254120.6804
        -0.000          -0.000
   -689579.10118   -280619.02445  25633874.794    25633874.2485   25633891.0244
        -0.000          -0.000
  -5075553.068 9  -3944102.08747  22825500.905    22825500.9954   22825508.6814
        -0.000          -0.000
 -13054664.683 9 -10154692.78847  23106898.645    23106898.3884   23106907.1134
        -0.000          -0.000
 99  4 13  2  2  0.0010000  0  8 22  6 17  3 23 29 26 21             0.001856270
  -3685804.252 9  -2670688.87746  24407469.156    24407467.9114   24407478.1574
        -0.000          -0.000
 -12925224.303 9  -9466168.94748  22483753.383    22483753.2024   22483761.5834
        -0.000          -0.000
 -20230258.411 9 -15745177.40249  21322701.596    21322701.1014   21322709.1374
        -0.000          -0.000
  -4095698.882 9  -3171912.73746  24306806.151    24306806.2384   24306817.2444
        -0.000          -0.000
 -19992481.110 9 -15324253.09849  21255818.877    21255818.4734   21255825.4074
        -0.000          -0.000
   -789519.686 8   -358494.51045  25614856.649    25614856.4344   25614872.1144
        -0.000          -0.000
  -5011975.775 9  -3894561.30547  22837599.223    22837599.2794   22837607.0354
        -0.000          -0.000
 -13106447.543 9 -10195042.95547  23097044.628    23097044.3094   23097053.1824
        -0.000          -0.000
 99  4 13  2  2 30.0010000  0  8 22  6 17  3 23 29 26 21             0.001861366
  -3630738.921 9  -2627780.85446  24417947.616    24417946.4284   24417956.6034
        -0.000          -0.000
 -12828667.026 9  -9390929.56548  22502127.541    22502127.3324   22502136.0964
        -0.000          -0.000
 -20223683.104 9 -15740053.77349  21323952.842    21323952.3354   21323960.3664
        -0.000          -0.000
  -4184224.911 9  -3240893.98746  24289960.551    24289960.4104   24289971.1474
        -0.000          -0.000
 -19983165.097 9 -15316993.83149  21257591.741    21257591.2564   21257598.1644
        -0.000          -0.000
   -889521.764 8   -436417.93645  25595826.604    25595826.2984   25595843.3934
        -0.000          -0.000
  -4947876.918 9  -3844614.14847  22849796.717    22849796.7754   22849804.4964
        -0.000          -0.000
 -13157975.427 9 -10235194.44947  23087239.226    23087238.8074   23087247.7264
        -0.000          -0.000
 99  4 13  2  3  0.0010000  0  8 22  6 17  3 23 29 26 21             0.001866468
  -3575352.673 9  -2584622.80846  24428487.048    24428486.0124   24428496.2814
        -0.000          -0.000
 -12731731.228 9  -9315395.22947  22520573.713    22520573.5414   22520582.5264
        -0.000          -0.000
 -20216903.111 9 -15734770.65149  21325243.054    21325242.5024   21325250.5134
        -0.000          -0.000
  -4272489.571 9  -3309671.55346  24273164.503    24273164.2784   24273174.6654
        -0.000          -0.000
 -19973467.635 9 -15309437.34649  21259436.970    21259436.5194   21259443.5104
        -0.000          -0.000
   -989544.924 8   -514357.78445  25576792.457    25576791.9764   25576810.0654
        -0.000          -0.000
  -4883251.152 9  -3794256.39047  22862094.327    22862094.4224   22862102.1584
        -0.000          -0.000
 -13209212.095 9 -10275119.04147  23077489.073    23077488.7274   23077497.6244
        -0.000          -0.000
 99  4 13  2  3 30.0010000  0  8 22  6 17  3 23 29 26 21             0.001871582
  -3519656.189 9  -2541223.00746  24439085.530    24439084.5844   24439095.1184
        -0.000          -0.000
 -12634418.617 9  -9239567.27647  22539091.692    22539091.5614   22539100.6434
        -0.000          -0.000
 -20209932.525 9 -15729339.01549  21326569.423    21326568.9534   21326577.0484
        -0.000          -0.000
  -4360523.543 9  -3378269.38046  24256412.335    24256412.0754   24256422.0354
        -0.000          -0.000
 -19963424.552 9 -15301611.53649  21261348.014    21261347.5954   21261354.6274
        -0.000          -0.000
  -1089600.779 8   -592323.12545  25557752.341    25557751.6864   25557770.0924
        -0.000          -0.000
  -4818104.575 9  -3743492.81647  22874491.207    22874491.3804   22874499.0014
        -0.000          -0.000
 -13260176.692 9 -10314831.61347  23067790.806    23067790.4324   23067799.2854
        -0.000          -0.000
 99  4 13  2  4  0.0010000  0  8 22  6 17  3 23 29 26 21             0.001876703
  -3463658.661 9  -2497588.61746  24449741.348    24449740.4774   24449751.0794
        -0.000          -0.000
 -12536744.830 9  -9163457.88047  22557678.452    22557678.3344   22557687.4044
        -0.000          -0.000
 -20202773.136 9 -15723760.26449  21327931.910    21327931.4104   21327939.4984
        -0.000          -0.000
  -4448348.213 9  -3446704.10646  24239700.066    24239699.6054   24239709.3714
        -0.000          -0.000
 -19953045.869 9 -15293524.21649  21263323.076    21263322.6484   21263329.5754
        -0.000          -0.000
  -1189680.835 8   -670307.27045  25538707.851    25538707.0514   25538725.5374
        -0.000          -0.000
  -4752426.876 9  -3692315.37447  22886989.259    22886989.4374   22886997.0064
        -0.000          -0.000
 -13310879.198 9 -10354339.96847  23058142.472    23058141.9714   23058150.7724
        -0.000          -0.000
 99  4 13  2  4 30.0010000  0  8 22  6 17  3 23 29 26 21             0.001881813
  -3407361.352 9  -2453720.62346  24460453.834    24460453.1814   24460464.1014
        -0.000          -0.000
 -12438735.901 9  -9087087.35247  22576329.097    22576328.9024   22576337.7244
        -0.000          -0.000
 -20195419.000 9 -15718029.77049  21329331.366    21329330.9114   21329338.9454
        -0.000          -0.000
  -4535996.858 9  -3515001.67846  24223021.202    24223020.6714   24223030.2034
        -0.000          -0.000
 -19942340.628 9 -15285182.43849  21265360.180    21265359.7384   21265366.7434
        -0.000          -0.000
  -1289798.191 8   -748320.48545  25519656.180    25519655.0814   25519673.9134
        -0.000          -0.000
  -4686225.502 9  -3640729.87647  22899586.873    22899587.0654   22899594.8464
        -0.000          -0.000
 -13361331.655 9 -10393653.46347  23048541.444    23048540.9674   23048549.8994
        -0.000          -0.000
 99  4 13  2  5  0.0010000  0  8 22  6 17  3 23 29 26 21             0.001886930
  -3350743.691 9  -2409603.01346  24471227.417    24471227.0024   24471238.1314
        -0.000          -0.000
 -12340381.743 9  -9010447.79947  22595045.311    22595045.1254   22595053.7034
        -0.000          -0.000
 -20187841.091 9 -15712124.88049  21330773.492    21330773.0534   21330780.8844
        -0.000          -0.000
  -4623461.658 9  -3583156.00446  24206377.376    24206376.7444   24206385.9184
        -0.000          -0.000
 -19931317.091 9 -15276592.64449  21267457.777    21267457.3364   21267464.4864
        -0.000          -0.000
  -1389945.673 8   -826357.16545  25500598.595    25500597.4944   25500616.5774
        -0.000          -0.000
  -4619483.515 9  -3588723.14147  22912287.439    22912287.5744   22912295.6124
        -0.000          -0.000
 -13411535.574 9 -10432773.29147  23038987.655    23038987.2124   23038996.3814
        -0.000          -0.000
 99  4 13  2  5 30.0010000  0  8 22  6 17  3 23 29 26 21             0.001892027
  -3293854.856 9  -2365274.11146  24482053.017    24482052.5884   24482063.8624
        -0.000          -0.000
 -12241729.299 9  -8933575.84447  22613818.169    22613818.0104   22613826.5214
        -0.000          -0.000
 -20180067.477 9 -15706067.49649  21332253.058    21332252.4794   21332260.0794
        -0.000          -0.000
  -4710778.308 9  -3651194.85946  24189761.703    24189760.9674   24189769.8624
        -0.000          -0.000
 -19920009.685 9 -15267781.65749  21269609.453    21269609.0464   21269616.0974
        -0.000          -0.000
  -1490166.523 8   -904450.98845  25481526.829    25481525.7784   25481544.7174
        -0.000          -0.000
  -4552230.641 9  -3536318.31247  22925085.164    22925085.3434   22925093.5394
        -0.000          -0.000
 -13461536.312 9 -10471734.83147  23029472.380    23029472.2184   23029481.6194
        -0.000          -0.000
 99  4 13  2  6  0.0010000  0  8 22  6 17  3 23 29 26 21             0.001897111
  -3236672.163 9  -2320716.22346  24492934.223    24492934.0054   24492945.4264
        -0.000          -0.000
 -12142754.462 9  -8856452.66147  22632652.563    22632652.3914   22632660.9554
        -0.000          -0.000
 -20172074.945 9 -15699839.53849  21333773.899    21333773.3264   21333780.9984
        -0.000          -0.000
  -4797909.684 9  -3719089.35046  24173181.236    24173180.4554   24173188.9814
        -0.000          -0.000
 -19908374.093 9 -15258714.92849  21271823.723    21271823.2734   21271830.2054
        -0.000          -0.000
  -1590441.569 8   -982587.07745  25462444.291    25462443.7984   25462462.4754
        -0.000          -0.000
  -4484452.904 9  -3483504.49447  22937983.025    22937983.2444   22937991.3494
        -0.000          -0.000
 -13511290.541 9 -10510504.26147  23020004.493    23020004.2834   23020013.6024
        -0.000          -0.000
 99  4 13  2  6 30.0010000  0  8 22  6 17  3 23 29 26 21             0.001902185
  -3179189.298 9  -2275924.44846  24503872.827    24503872.7724   24503883.9784
        -0.000          -0.000
 -12043460.028 9  -8779080.43947  22651547.691    22651547.5304   22651556.1404
        -0.000          -0.000
 -20163877.882 9 -15693452.19349  21335333.676    21335333.1464   21335340.8704
        -0.000          -0.000
  -4884842.118 9  -3786828.81146  24156638.317    24156637.5694   24156645.9714
        -0.000          -0.000
 -19896417.469 9 -15249398.05649  21274099.077    21274098.5984   21274105.4794
        -0.000          -0.000
  -1690798.258 8  -1060786.73145  25443346.968    25443346.4184   25443364.7444
        -0.000          -0.000
  -4416165.575 9  -3430293.58747  22950977.938    22950978.0684   22950986.1594
        -0.000          -0.000
 -13560788.781 9 -10549074.22647  23010585.211    23010584.9544   23010594.3264
        -0.000          -0.000
 99  4 13  2  7  0.0010000  0  8 22  6 17  3 23 29 26 21             0.001907270
  -3121390.518 9  -2230886.50746  24514871.909    24514871.6964   24514882.6554
        -0.000          -0.000
 -11943830.114 9  -8701446.79947  22670506.514    22670506.3954   22670515.0664
        -0.000          -0.000
 -20155461.930 9 -15686894.29549  21336935.217    21336934.6584   21336942.4374
        -0.000          -0.000
  -4971531.970 9  -3854379.26346  24140141.334    24140140.8284   24140149.1304
        -0.000          -0.000
 -19884129.222 9 -15239822.77949  21276437.396    21276436.9594   21276443.8094
        -0.000          -0.000
  -1791213.437 8  -1139031.96145  25424238.546    25424237.8864   25424256.1664
        -0.000          -0.000
  -4347359.976 9  -3376678.80547  22964071.403    22964071.4644   22964079.5824
        -0.000          -0.000
 -13610007.967 9 -10587426.75147  23001219.098    23001218.7684   23001228.2714
        -0.000          -0.000
 99  4 13  2  7 30.0010000  0  8 22  6 17  3 23 29 26 21             0.001912364
  -3063280.421 9  -2185605.97946  24525930.541    24525929.9724   24525940.6934
        -0.000          -0.000
 -11843866.638 9  -8623553.24847  22689528.901    22689528.8554   22689537.4104
        -0.000          -0.000
 -20146828.423 9 -15680166.88349  21338578.044    21338577.4804   21338585.4314
        -0.000          -0.000
  -5057963.328 9  -3921728.28246  24123693.780    24123693.2054   24123701.8004
        -0.000          -0.000
 -19871514.575 9 -15229993.14749  21278837.959    21278837.5174   21278844.2384
        -0.000          -0.000
  -1891672.544 8  -1217311.42745  25405121.643    25405121.0434   25405139.1554
        -0.000          -0.000
  -4278053.781 9  -3322673.95847  22977259.940    22977260.0044   22977268.1104
        -0.000          -0.000
 -13658943.006 9 -10625557.85447  22991907.209    22991906.8144   22991916.2764
        -0.000          -0.000
 99  4 13  2  8  0.0010000  0  8 22  6 17  3 23 29 26 21             0.001917474
  -3004845.711 9  -2140072.50046  24537050.450    24537049.8144   24537060.5824
        -0.000          -0.000
 -11743568.570 9  -8545398.99047  22708615.147    22708615.0934   22708623.5804
        -0.000          -0.000
 -20137986.336 9 -15673276.93249  21340260.599    21340260.0254   21340268.0224
        -0.000          -0.000
  -5144136.482 9  -3988876.08846  24107295.397    24107294.8574   24107303.6304
        -0.000          -0.000
 -19858579.152 9 -15219913.57149  21281299.465    21281298.9834   21281305.7664
        -0.000          -0.000
  -1992177.187 8  -1295626.39045  25385995.449    25385994.6744   25386013.3174
        -0.000          -0.000
  -4208249.554 9  -3268281.06746  22990543.100    22990543.1794   22990551.1374
        -0.000          -0.000
 -13707607.919 9 -10663478.47147  22982646.617    22982646.2454   22982655.5544
        -0.000          -0.000
 99  4 13  2  8 30.0010000  0  8 22  6 17  3 23 29 26 21             0.001922589
  -2946111.476 9  -2094305.63046  24548227.570    24548226.6864   24548237.3574
        -0.000          -0.000
 -11642976.315 9  -8467015.48047  22727757.179    22727757.1414   22727765.7914
        -0.000          -0.000
 -20128950.266 9 -15666235.80449  21341980.112    21341979.5354   21341987.4144
        -0.000          -0.000
  -5230070.884 9  -4055837.84646  24090942.426    24090941.9284   24090950.8914
        -0.000          -0.000
 -19845365.215 9 -15209616.97549  21283813.886    21283813.4824   21283820.3194
        -0.000          -0.000
  -2092732.712 8  -1373981.01545  25366859.786    25366859.3684   25366877.5914
        -0.000          -0.000
  -4137975.757 9  -3213522.27246  23003915.573    23003915.7504   23003923.6354
        -0.000          -0.000
 -13756053.133 9 -10701227.88947  22973427.814    22973427.4474   22973436.4594
        -0.000          -0.000
 99  4 13  2  9  0.0010000  0  8 22  6 17  3 23 29 26 21             0.001927700
  -2887098.789 9  -2048321.77246  24559457.231    24559456.4524   24559467.2214
        -0.000          -0.000
 -11542084.413 9  -8388398.45747  22746956.486    22746956.4004   22746965.1104
        -0.000          -0.000
 -20119716.378 9 -15659040.54349  21343737.258    21343736.6694   21343744.5814
        -0.000          -0.000
  -5315775.019 9  -4122620.20246  24074633.117    24074632.7194   24074641.9854
        -0.000          -0.000
 -19831868.546 9 -15199100.06549  21286382.285    21286381.8444   21286388.6304
        -0.000          -0.000
  -2193319.098 8  -1452359.65045  25347718.944    25347718.5014   25347736.2454
        -0.000          -0.000
  -4067238.527 9  -3158402.37846  23017376.551    23017376.6924   23017384.4694
        -0.000          -0.000
 -13804298.875 9 -10738821.87047  22964247.124    22964246.5634   22964255.3784
        -0.000          -0.000
 99  4 13  2  9 30.0010000  0  8 22  6 17  3 23 29 26 21             0.001932812
  -2827805.112 9  -2002118.95846  24570740.553    24570739.7414   24570750.5474
        -0.000          -0.000
 -11440877.470 9  -8309535.96447  22766215.704    22766215.5874   22766224.2894
        -0.000          -0.000
 -20110278.826 9 -15651686.58849  21345533.175    21345532.6354   21345540.4574
        -0.000          -0.000
  -5401248.259 9  -4189222.60546  24058367.597    24058367.5094   24058376.9964
        -0.000          -0.000
 -19818062.659 9 -15188342.20649  21289009.478    21289009.0164   21289015.8324
        -0.000          -0.000
  -2293918.992 8  -1530748.78345  25328574.792    25328574.6534   25328592.4074
        -0.000          -0.000
  -3996010.719 9  -3102900.20346  23030930.770    23030930.8384   23030938.6704
        -0.000          -0.000
 -13852339.443 9 -10776255.98147  22955105.197    22955104.6424   22955113.5494
        -0.000          -0.000
 99  4 13  2 10  0.0010000  0  8 22  6 17  3 23 29 26 21             0.001937932
  -2768225.925 9  -1955693.68346  24582078.172    24582077.2124   24582088.3244
        -0.000          -0.000
 -11339341.520 9  -8230417.11147  22785537.318    22785537.1814   22785546.0244
        -0.000          -0.000
 -20100618.095 9 -15644158.72849  21347371.688    21347371.0634   21347378.7054
        -0.000          -0.000
  -5486478.710 9  -4255635.82746  24042148.487    24042148.5274   24042158.0994
        -0.000          -0.000
 -19803922.983 9 -15177324.25949  21291700.173    21291699.7334   21291706.5934
        -0.000          -0.000
  -2394511.124 8  -1609131.90445  25309432.658    25309432.5544   25309450.1294
        -0.000          -0.000
  -3924260.569 9  -3046991.00446  23044584.277    23044584.4054   23044592.2824
        -0.000          -0.000
 -13900147.641 9 -10813509.01847  22946007.538    22946006.9404   22946016.0034
        -0.000          -0.000
 99  4 13  2 10 30.0010000  0  8 22  6 17  3 23 29 26 21             0.001943039
  -2708404.064 9  -1909079.31046  24593461.852    24593460.9414   24593472.2314
        -0.000          -0.000
 -11237485.044 9  -8151048.51147  22804919.731    22804919.7034   22804928.7254
        -0.000          -0.000
 -20090729.905 9 -15636453.62349  21349253.370    21349252.7604   21349260.2384
        -0.000          -0.000
  -5571476.206 9  -4321867.54746  24025973.839    24025974.0444   24025983.3494
        -0.000          -0.000
 -19789459.157 9 -15166053.72549  21294452.604    21294452.1374   21294458.9724
        -0.000          -0.000
  -2495107.893 8  -1687518.62445  25290289.927    25290289.5854   25290306.6754
        -0.000          -0.000
  -3852007.725 9  -2990690.09746  23058333.808    23058333.8374   23058341.5794
        -0.000          -0.000
 -13947719.420 9 -10850577.83847  22936954.735    22936954.1084   22936963.3124
        -0.000          -0.000
 99  4 13  2 11  0.0010000  0  8 22  6 17  3 23 29 26 21             0.001948128
  -2648355.007 9  -1862287.90046  24604888.874    24604887.9894   24604899.0134
        -0.000          -0.000
 -11135295.041 9  -8071420.01647  22824365.970    22824365.8504   22824374.9974
        -0.000          -0.000
 -20080609.710 9 -15628567.72949  21351179.167    21351178.5674   21351185.9454
        -0.000          -0.000
  -5656251.719 9  -4387926.28546  24009842.091    24009841.9924   24009851.0034
        -0.000          -0.000
 -19774657.806 9 -15154520.17949  21297269.211    21297268.7284   21297275.5864
        -0.000          -0.000
  -2595726.369 8  -1765922.20945  25271143.389    25271143.0324   25271159.2764
        -0.000          -0.000
  -3779243.554 9  -2933990.74346  23072180.317    23072180.3824   23072188.3044
        -0.000          -0.000
 -13995040.443 9 -10887451.26647  22927949.438    22927948.9424   22927958.2534
        -0.000          -0.000
 99  4 13  2 11 30.0010000  0  8 22  6 17  3 23 29 26 21             0.001953204
  -2588078.010 9  -1815318.87646  24616359.530    24616358.5994   24616369.2254
        -0.000          -0.000
 -11032782.656 9  -7991540.29847  22843873.488    22843873.3754   22843882.6294
        -0.000          -0.000
 -20070258.858 9 -15620502.10749  21353148.865    21353148.2534   21353155.6354
        -0.000          -0.000
  -5740793.553 9  -4453802.92746  23993754.588    23993754.2604   23993763.0864
        -0.000          -0.000
 -19759530.161 9 -15142732.37949  21300147.832    21300147.3254   21300154.2694
        -0.000          -0.000
  -2696380.498 8  -1844353.57645  25251989.602    25251988.8544   25252005.1634
        -0.000          -0.000
  -3705964.674 9  -2876890.32047  23086124.905    23086125.0184   23086132.8694
        -0.000          -0.000
 -14042088.241 9 -10924111.77847  22918996.409    22918996.0494   22919005.1494
        -0.000          -0.000
 99  4 13  2 12  0.0010000  0  8 22  6 17  3 23 29 26 21             0.001958249
  -2527600.963 9  -1768193.96246  24627868.475    24627867.3224   24627877.4224
        -0.000          -0.000
 -10929970.125 9  -7911426.71347  22863438.076    22863437.9514   22863447.2264
        -0.000          -0.000
 -20059689.882 9 -15612266.52849  21355160.074    21355159.4514   21355166.9034
        -0.000          -0.000
  -5825101.145 9  -4519497.06846  23977711.248    23977710.9364   23977719.7094
        -0.000          -0.000
 -19744100.927 9 -15130709.58449  21303083.761    21303083.2934   21303090.3344
        -0.000          -0.000
  -2797097.654 8  -1922834.12945  25232823.227    25232822.7714   25232838.8524
        -0.000          -0.000
  -3632210.186 9  -2819419.30547  23100160.078    23100160.1214   23100167.9574
        -0.000          -0.000
 -14088882.262 9 -10960574.56147  22910091.859    22910091.5034   22910100.2974
        -0.000          -0.000
 99  4 13  2 12 30.0010000  0  8 22  6 17  3 23 29 26 21             0.001963256
  -2466916.010 9  -1720907.03246  24639416.470    24639415.4484   24639425.3924
        -0.000          -0.000
 -10826868.592 9  -7831087.91547  22883057.675    22883057.5684   22883066.7894
        -0.000          -0.000
 -20048918.588 9 -15603873.29449  21357209.737    21357209.1324   21357216.6234
        -0.000          -0.000
  -5909173.881 9  -4585008.20546  23961712.351    23961712.3224   23961721.0954
        -0.000          -0.000
 -19728370.931 9 -15118452.42049  21306076.994    21306076.5004   21306083.6044
        -0.000          -0.000
  -2897897.962 8  -2001379.42245  25213641.196    25213640.9904   25213656.2464
        -0.000          -0.000
  -3558005.115 9  -2761597.17347  23114281.016    23114281.1164   23114288.7884
        -0.000          -0.000
 -14135431.189 9 -10996846.35247  22901234.091    22901233.6654   22901242.1434
        -0.000          -0.000
 99  4 13  2 13  0.0010000  0  8 22  6 17  3 23 29 26 21             0.001968255
  -2405971.393 9  -1673417.78146  24651013.856    24651012.8584   24651023.0304
        -0.000          -0.000
 -10723463.070 9  -7750512.25747  22902735.283    22902735.1264   22902744.0864
        -0.000          -0.000
 -20037935.511 9 -15595315.03449  21359299.748    21359299.0954   21359306.6464
        -0.000          -0.000
  -5992969.872 9  -4650303.69346  23945766.457    23945766.3514   23945775.1554
        -0.000          -0.000
 -19712318.598 9 -15105944.08449  21309131.569    21309131.0864   21309138.2224
        -0.000          -0.000
  -2998734.664 8  -2079953.05545  25194452.530    25194452.2334   25194467.0564
        -0.000          -0.000
  -3483333.129 9  -2703411.21847  23128490.804    23128490.8294   23128498.2374
        -0.000          -0.000
 -14181709.479 9 -11032907.26147  22892427.689    22892427.1734   22892435.6144
        -0.000          -0.000
 99  4 13  2 13 30.0010000  0  8 22  6 17  3 23 29 26 21             0.001973261
  -2344749.203 9  -1625712.24446  24662664.153    24662663.1544   24662673.4984
        -0.000          -0.000
 -10619757.651 9  -7669702.91147  22922469.979    22922469.7944   22922478.4384
        -0.000          -0.000
 -20026746.337 9 -15586596.18749  21361428.933    21361428.3014   21361435.8814
        -0.000          -0.000
  -6076460.126 9  -4715360.95046  23929878.685    23929878.6204   23929887.2944
        -0.000          -0.000
 -19695951.854 9 -15093190.75249  21312245.997    21312245.5204   21312252.6774
        -0.000          -0.000
  -3099584.175 8  -2158536.63045  25175261.531    25175260.8014   25175275.6204
        -0.000          -0.000
  -3408200.093 9  -2644865.98447  23142788.158    23142788.2014   23142795.5484
        -0.000          -0.000
 -14227718.580 9 -11068758.41347  22883672.399    22883671.8344   22883680.3954
        -0.000          -0.000
 99  4 13  2 14  0.0010000  0  8 22  6 17  3 23 29 26 21             0.001978285
  -2283210.007 9  -1577759.66846  24674374.534    24674373.6074   24674384.2404
        -0.000          -0.000
 -10515719.794 9  -7588634.49147  22942267.752    22942267.5994   22942276.1684
        -0.000          -0.000
 -20015318.670 9 -15577691.49949  21363603.539    21363602.9354   21363610.5234
        -0.000          -0.000
  -6159627.811 9  -4780166.86446  23914052.132    23914052.0974   23914060.9144
        -0.000          -0.000
 -19679235.530 9 -15080165.02249  21315426.989    21315426.5174   21315433.6424
        -0.000          -0.000
  -3200399.205 8  -2237093.31445  25156076.421    25156075.5744   25156090.7074
        -0.000          -0.000
  -3332590.009 9  -2585949.03047  23157175.983    23157176.0614   23157183.7194
        -0.000          -0.000
 -14273447.376 9 -11104391.14547  22874970.469    22874969.8684   22874978.4704
        -0.000          -0.000
 99  4 13  2 14 30.0010000  0  8 22  6 17  3 23 29 26 21             0.001983334
  -2221345.450 9  -1529553.59346  24686146.889    24686145.9664   24686156.7594
        -0.000          -0.000
 -10411360.225 9  -7507315.41447  22962126.761    22962126.5814   22962135.2364
        -0.000          -0.000
 -20003677.299 9 -15568620.27949  21365818.902    21365818.3124   21365825.8084
        -0.000          -0.000
  -6242504.651 9  -4844746.13646  23898280.485    23898280.8654   23898289.8304
        -0.000          -0.000
 -19662199.282 9 -15066890.00049  21318668.836    21318668.3834   21318675.5234
        -0.000          -0.000
  -3301176.779 8  -2315620.79345  25136897.804    25136897.2404   25136912.7964
        -0.000          -0.000
  -3256506.291 9  -2526663.02446  23171653.842    23171653.9884   23171661.9154
        -0.000          -0.000
 -14318897.841 9 -11139806.99747  22866321.635    22866320.8864   22866329.4894
        -0.000          -0.000
 99  4 13  2 15  0.0010000  0  8 22  6 17  3 23 29 26 21             0.001988470
  -2159215.412 9  -1481140.63346  24697969.864    24697968.8334   24697979.6414
        -0.000          -0.000
 -10306722.337 9  -7425779.44447  22982038.746    22982038.6454   22982047.3944
        -0.000          -0.000
 -19991852.332 9 -15559406.01349  21368069.078    21368068.4944   21368075.9164
        -0.000          -0.000
  -6325136.291 9  -4909134.34346  23882556.007    23882556.4704   23882565.3484
        -0.000          -0.000
 -19644902.584 9 -15053412.03149  21321960.264    21321959.8244   21321966.9824
        -0.000          -0.000
  -3401946.199 8  -2394141.94845  25117721.405    25117720.8944   25117736.7934
        -0.000          -0.000
  -3179977.302 9  -2467030.02946  23186216.630    23186216.8164   23186224.8664
        -0.000          -0.000
 -14364126.004 9 -11175049.64147  22857715.048    22857714.2044   22857722.7964
        -0.000          -0.000
 99  4 13  2 15 30.0010000  0  8 22  6 17  3 23 29 26 21             0.001993526
  -2096810.612 9  -1432513.59446  24709845.239    24709844.1204   24709854.8754
        -0.000          -0.000
 -10201782.401 9  -7344008.11847  23002008.271    23002008.1214   23002017.2634
        -0.000          -0.000
 -19979805.973 9 -15550019.21349  21370361.484    21370360.8974   21370368.3024
        -0.000          -0.000
  -6407519.336 9  -4973328.82946  23866879.159    23866879.4934   23866888.1484
        -0.000          -0.000
 -19627321.670 9 -15039712.58749  21325305.786    21325305.3384   21325312.5344
        -0.000          -0.000
  -3502700.975 8  -2472651.70745  25098547.882    25098547.5294   25098563.3414
        -0.000          -0.000
  -3102971.183 9  -2407025.27246  23200870.382    23200870.5714   23200878.5324
        -0.000          -0.000
 -14409105.451 9 -11210098.48347  22849155.537    22849154.8294   22849163.2264
        -0.000          -0.000
 99  4 13  2 16  0.0010000  0  8 22  6 17  3 23 29 26 21             0.001998581
  -2034138.870 9  -1383678.56646  24721771.395    24721770.2654   24721780.8834
        -0.000          -0.000
 -10096542.685 9  -7262003.21847  23022034.665    23022034.5674   23022043.9484
        -0.000          -0.000
 -19967530.960 9 -15540454.25749  21372697.279    21372696.6704   21372704.1494
        -0.000          -0.000
  -6489670.950 9  -5037342.97646  23851246.455    23851246.6164   23851255.0034
        -0.000          -0.000
 -19609440.527 9 -15025779.21549  21328708.490    21328708.0134   21328715.2154
        -0.000          -0.000
  -3603444.052 8  -2551152.34545  25079376.715    25079376.3094   25079392.4454
        -0.000          -0.000
  -3025486.525 9  -2346647.63546  23215615.503    23215615.6334   23215623.3614
        -0.000          -0.000
 -14453832.135 9 -11244950.35847  22840644.207    22840643.5224   22840651.7784
        -0.000          -0.000
 99  4 13  2 16 30.0010000  0  8 22  6 17  3 23 29 26 21             0.002003621
  -1971243.715 9  -1334669.40346  24733739.185    24733738.6684   24733749.3114
        -0.000          -0.000
  -9991042.230 9  -7179795.13047  23042110.925    23042110.8184   23042120.1334
        -0.000          -0.000
 -19955036.507 9 -15530718.30949  21375074.826    21375074.2344   21375081.7094
        -0.000          -0.000
  -6571593.370 9  -5101178.54246  23835657.355    23835657.3684   23835665.5134
        -0.000          -0.000
 -19591284.391 9 -15011631.55249  21332163.634    21332163.1114   21332170.1764
        -0.000          -0.000
  -3704197.541 8  -2629661.04145  25060203.873    25060203.3524   25060219.2044
        -0.000          -0.000
  -2947537.993 9  -2285908.49746  23230448.979    23230449.0944   23230456.6764
        -0.000          -0.000
 -14498328.963 9 -11279623.12347  22832176.506    22832175.9144   22832184.1754
        -0.000          -0.000
 99  4 13  2 17  0.0020000  0  8 22  6 17  3 23 29 26 21             0.002008654
  -1908131.333 9  -1285490.95046  24745749.027    24745748.5844   24745759.4024
        -0.000          -0.000
  -9885267.584 9  -7097373.36747  23062239.297    23062239.1344   23062248.5704
        -0.000          -0.000
 -19942270.760 9 -15520770.96249  21377504.062    21377503.4724   21377510.9894
        -0.000          -0.000
  -6653249.138 9  -5164806.32246  23820119.133    23820118.9154   23820126.8954
        -0.000          -0.000
 -19572811.040 9 -14997236.70649  21335679.092    21335678.5174   21335685.5084
        -0.000          -0.000
  -3804946.047 8  -2708165.83145  25041031.900    25041031.4454   25041047.5014
        -0.000          -0.000
  -2869107.504 9  -2224793.82546  23245374.033    23245374.0934   23245381.5234
        -0.000          -0.000
 -14542589.750 9 -11314111.96747  22823753.712    22823753.2554   22823761.4694
        -0.000          -0.000
 99  4 13  2 17 30.0020000  0  8 22  6 17  3 23 29 26 21             0.002013670
  -1844817.029 9  -1236155.20646  24757797.753    24757797.0334   24757808.1444
        -0.000          -0.000
  -9779229.664 9  -7014746.46847  23082417.660    23082417.4954   23082427.0564
        -0.000          -0.000
 -19929239.038 9 -15510616.36148  21379983.798    21379983.2264   21379990.7524
        -0.000          -0.000
  -6734625.408 9  -5228216.31746  23804633.837    23804633.4164   23804641.3574
        -0.000          -0.000
 -19554025.641 9 -14982598.71649  21339253.741    21339253.2034   21339260.2004
        -0.000          -0.000
  -3905687.803 8  -2786665.39045  25021860.880    25021860.6174   25021876.3994
        -0.000          -0.000
  -2790214.214 9  -2163318.51646  23260387.091    23260387.0794   23260394.4974
        -0.000          -0.000
 -14586599.952 9 -11348405.54347  22815378.701    22815378.2834   22815386.5434
        -0.000          -0.000
 99  4 13  2 18  0.0020000  0  8 22  6 17  3 23 29 26 21             0.002018670
  -1781311.399 9  -1186670.34046  24769882.039    24769881.6684   24769893.0374
        -0.000          -0.000
  -9672937.505 9  -6931921.47147  23102644.544    23102644.3024   23102653.8324
        -0.000          -0.000
 -19915950.237 9 -15500261.43348  21382512.547    21382511.9454   21382519.4434
        -0.000          -0.000
  -6815716.100 9  -5291403.77146  23789202.622    23789202.2574   23789210.2904
        -0.000          -0.000
 -19534945.661 9 -14967731.16749  21342884.447    21342883.9294   21342890.9064
        -0.000          -0.000
  -4006417.973 8  -2865155.92945  25002692.031    25002692.2874   25002707.4634
        -0.000          -0.000
  -2710870.426 9  -2101492.18046  23275485.641    23275485.5674   23275493.2424
        -0.000          -0.000
 -14630368.510 9 -11382510.84647  22807049.590    22807049.2294   22807057.5904
        -0.000          -0.000
 99  4 13  2 18 30.0020000  0  8 22  6 17  3 23 29 26 21             0.002023658
  -1717626.036 9  -1137045.45146  24782001.139    24782000.7174   24782011.9384
        -0.000          -0.000
  -9566387.352 9  -6848895.43947  23122920.253    23122920.0164   23122929.7744
        -0.000          -0.000
 -19902416.441 9 -15489715.60149  21385087.983    21385087.3624   21385094.8674
        -0.000          -0.000
  -6896519.653 9  -5354367.47146  23773826.058    23773825.7534   23773833.7724
        -0.000          -0.000
 -19515598.701 9 -14952655.59849  21346565.869    21346565.4014   21346572.4274
        -0.000          -0.000
  -4107144.305 8  -2943643.49845  24983524.414    24983524.3184   24983539.4624
        -0.000          -0.000
  -2631085.891 9  -2039322.42446  23290668.071    23290668.1164   23290675.7244
        -0.000          -0.000
 -14673903.789 9 -11416434.36448  22798764.925    22798764.6044   22798773.0384
        -0.000          -0.000
 99  4 13  2 19  0.0020000  0  8 22  6 17  3 23 29 26 21             0.002028636
  -1653737.230 9  -1087262.04646  24794159.062    24794158.5714   24794169.5784
        -0.000          -0.000
  -9459548.375 9  -6765644.35747  23143250.678    23143250.5624   23143260.5144
        -0.000          -0.000
 -19888644.550 9 -15478984.24249  21387708.635    21387708.0484   21387715.5384
        -0.000          -0.000
  -6977034.907 9  -5417106.54346  23758504.297    23758504.1204   23758512.2324
        -0.000          -0.000
 -19495975.108 9 -14937364.46349  21350300.075    21350299.6354   21350306.5974
        -0.000          -0.000
  -4207861.130 9  -3022123.62245  24964358.634    24964358.1754   24964373.4264
        -0.000          -0.000
  -2550854.914 9  -1976804.79346  23305935.650    23305935.6464   23305943.1434
        -0.000          -0.000
 -14717180.496 9 -11450156.37748  22790529.571    22790529.2754   22790537.8404
        -0.000          -0.000
 99  4 13  2 19 30.0020000  0  8 22  6 17  3 23 29 26 21             0.002033607
  -1589632.089 9  -1037310.06646  24806358.170    24806357.5264   24806368.3614
        -0.000          -0.000
  -9352434.595 9  -6682179.12847  23163633.556    23163633.5004   23163643.4984
        -0.000          -0.000
 -19874678.615 9 -15468101.68748  21390366.132    21390365.5784   21390373.0914
        -0.000          -0.000
  -7057275.667 9  -5479631.72146  23743235.041    23743234.8404   23743242.8814
        -0.000          -0.000
 -19476101.448 9 -14921878.47149  21354081.998    21354081.5274   21354088.3804
        -0.000          -0.000
  -4308576.505 9  -3100602.62345  24945193.085    24945192.3944   24945208.0214
        -0.000          -0.000
  -2470191.550 9  -1913950.25546  23321285.291    23321285.3804   23321292.7454
        -0.000          -0.000
 -14760204.543 9 -11483681.54348  22782342.405    22782342.0734   22782350.4944
        -0.000          -0.000
 99  4 13  2 20  0.0020000  0  8 22  6 17  3 23 29 26 21             0.002038601
  -1525254.365 9   -987145.67246  24818608.773    24818608.2154   24818619.0884
        -0.000          -0.000
  -9245006.336 9  -6598468.86147  23184076.410    23184076.4674   23184086.3534
        -0.000          -0.000
 -19860496.766 9 -15457050.87149  21393064.840    21393064.2904   21393071.6834
        -0.000          -0.000
  -7137195.667 9  -5541906.94946  23728026.646    23728026.4394   23728034.6164
        -0.000          -0.000
 -19455931.227 9 -14906161.38949  21357920.410    21357919.8504   21357926.5774
        -0.000          -0.000
  -4409248.497 9  -3179047.84345  24926035.408    24926034.7364   24926050.3984
        -0.000          -0.000
  -2389060.959 9  -1850731.63846  23336723.820    23336723.9124   23336731.1984
        -0.000          -0.000
 -14802959.078 9 -11516996.69347  22774206.405    22774206.1154   22774214.3634
        -0.000          -0.000
 99  4 13  2 20 30.0020000  0  8 22  6 17  3 23 29 26 21             0.002043600
  -1460640.619 9   -936797.34346  24830904.302    24830903.8134   24830914.8324
        -0.000          -0.000
  -9137300.091 9  -6514542.00047  23204572.415    23204572.3994   23204582.2374
        -0.000          -0.000
 -19846145.683 9 -15445868.19649  21395795.749    21395795.1494   21395802.4584
        -0.000          -0.000
  -7216821.543 9  -5603953.01047  23712874.101    23712874.1194   23712882.3544
        -0.000          -0.000
 -19435488.095 9 -14890231.64849  21361810.642    21361810.0674   21361816.7544
        -0.000          -0.000
  -4509913.884 9  -3257487.93945  24906878.705    24906878.2684   24906893.9844
        -0.000          -0.000
  -2307488.714 9  -1787168.83946  23352246.360    23352246.4664   23352253.7874
        -0.000          -0.000
 -14845485.234 9 -11550133.88647  22766114.159    22766113.6684   22766121.9474
        -0.000          -0.000
 99  4 13  2 21  0.0020000  0  8 22  6 17  3 23 29 26 21             0.002048608
  -1395788.677 9   -886263.45146  24843245.497    24843244.8194   24843255.7034
        -0.000          -0.000
  -9029335.738 9  -6430414.00147  23225117.492    23225117.3964   23225127.1744
        -0.000          -0.000
 -19831608.538 9 -15434540.54948  21398562.023    21398561.4344   21398568.7474
        -0.000          -0.000
  -7296142.742 9  -5665761.64947  23697780.048    23697779.8994   23697788.2224
        -0.000          -0.000
 -19414758.519 9 -14874078.71149  21365755.249    21365754.7064   21365761.4414
        -0.000          -0.000
  -4610569.975 9  -3335920.78345  24887723.950    24887723.6894   24887739.1464
        -0.000          -0.000
  -2225465.260 9  -1723254.48146  23367854.784    23367854.9314   23367862.3304
        -0.000          -0.000
 -14887771.300 9 -11583084.01148  22758067.202    22758066.7084   22758075.1514
        -0.000          -0.000
 99  4 13  2 21 30.0020000  0  8 22  6 17  3 23 29 26 21             0.002053627
  -1330713.629 9   -835555.68746  24855629.115    24855628.3464   24855639.0304
        -0.000          -0.000
  -8921122.863 9  -6346092.33547  23245709.804    23245709.6694   23245719.1914
        -0.000          -0.000
 -19816873.315 9 -15423058.53548  21401365.988    21401365.3934   21401372.7164
        -0.000          -0.000
  -7375147.554 9  -5727323.75447  23682746.056    23682745.8064   23682754.2194
        -0.000          -0.000
 -19393746.806 9 -14857705.91749  21369753.617    21369753.1084   21369759.7904
        -0.000          -0.000
  -4711209.062 9  -3414340.39445  24868572.532    24868572.2474   24868587.4974
        -0.000          -0.000
  -2142987.800 9  -1658986.34046  23383549.479    23383549.6664   23383557.2464
        -0.000          -0.000
 -14929837.950 9 -11615863.14048  22750062.075    22750061.6904   22750070.0624
        -0.000          -0.000
 99  4 13  2 22  0.0020000  0  8 22  6 17  3 23 29 26 21             0.002058660
  -1265415.004 9   -784673.71346  24868054.712    24868054.1154   24868064.9504
        -0.000          -0.000
  -8812632.402 9  -6261554.38547  23266354.881    23266354.7874   23266364.0424
        -0.000          -0.000
 -19801884.317 9 -15411378.77348  21404218.368    21404217.7684   21404224.9744
        -0.000          -0.000
  -7453819.554 9  -5788626.52647  23667775.385    23667775.0204   23667783.5264
        -0.000          -0.000
 -19372414.958 9 -14841083.67049  21373812.877    21373812.3584   21373819.0244
        -0.000          -0.000
  -4811808.639 9  -3492729.24845  24849428.445    24849428.4094   24849443.5824
        -0.000          -0.000
  -2060033.196 9  -1594346.38746  23399334.961    23399335.1874   23399343.0534
        -0.000          -0.000
 -14971660.115 9 -11648451.75548  22742103.606    22742103.1304   22742111.6154
        -0.000          -0.000
 99  4 13  2 22 30.0020000  0  8 22  6 17  3 23 29 26 21             0.002063678
  -1199933.289 9   -733649.08745  24880515.500    24880514.7884   24880525.7304
        -0.000          -0.000
  -8703901.316 9  -6176828.94147  23287046.053    23287045.8944   23287054.9484
        -0.000          -0.000
 -19786638.970 9 -15399499.26949  21407119.654    21407119.0404   21407126.1124
        -0.000          -0.000
  -7532201.051 9  -5849702.94447  23652859.870    23652859.4964   23652868.0794
        -0.000          -0.000
 -19350790.207 9 -14824233.19549  21377927.864    21377927.3894   21377934.0764
        -0.000          -0.000
  -4912394.829 9  -3571107.70045  24830286.836    24830286.9624   24830302.4244
        -0.000          -0.000
  -1976635.532 9  -1529361.19846  23415205.025    23415205.2404   23415212.9954
        -0.000          -0.000
 -15013251.337 9 -11680860.43048  22734189.019    22734188.6284   22734197.1294
        -0.000          -0.000
 99  4 13  2 23  0.0020000  0  8 22  6 17  3 23 29 26 21             0.002068699
  -1134230.954 9   -682452.54146  24893018.682    24893017.7824   24893028.5354
        -0.000          -0.000
  -8594896.414 9  -6091890.14347  23307789.217    23307788.9244   23307798.0414
        -0.000          -0.000
 -19771090.404 9 -15387383.48849  21410078.577    21410077.9414   21410084.9134
        -0.000          -0.000
  -7610259.179 9  -5910527.38747  23638005.686    23638005.4694   23638014.0544
        -0.000          -0.000
 -19328842.860 9 -14807131.33949  21382104.367    21382103.8674   21382110.5254
        -0.000          -0.000
  -5012932.991 9  -3649448.73145  24811154.895    24811154.7954   24811170.5334
        -0.000          -0.000
  -1892773.362 9  -1464014.07046  23431163.730    23431163.8524   23431171.4214
        -0.000          -0.000
 -15054580.140 9 -11713064.61248  22726324.628    22726324.1234   22726332.3454
        -0.000          -0.000
 99  4 13  2 23 30.0020000  0  8 22  6 17  3 23 29 26 21             0.002073696
  -1068343.512 9   -631111.75046  24905556.843    24905555.7734   24905566.5884
        -0.000          -0.000
  -8485641.809 9  -6006756.75947  23328579.596    23328579.3914   23328588.5094
        -0.000          -0.000
 -19755285.535 9 -15375067.98549  21413086.230    21413085.5794   21413092.5104
        -0.000          -0.000
  -7688028.367 9  -5971126.69047  23623206.471    23623206.4254   23623214.9394
        -0.000          -0.000
 -19306605.685 9 -14789803.64049  21386336.030    21386335.5184   21386342.0964
        -0.000          -0.000
  -5113449.113 9  -3727772.58745  24792027.372    24792026.8674   24792042.7004
        -0.000          -0.000
  -1808500.090 9  -1398346.57346  23447200.541    23447200.6804   23447208.1744
        -0.000          -0.000
 -15095686.015 9 -11745095.06648  22718502.324    22718501.8094   22718509.9544
        -0.000          -0.000
 99  4 13  2 24  0.0020000  0  8 22  6 17  3 23 29 26 21             0.002078674
  -1002249.679 9   -579610.14446  24918133.690    24918132.8554   24918143.6964
        -0.000          -0.000
  -8376135.177 9  -5921427.00947  23349418.081    23349417.8344   23349427.1004
        -0.000          -0.000
 -19739210.867 9 -15362542.25349  21416145.142    21416144.4924   21416151.4794
        -0.000          -0.000
  -7765493.736 9  -6031489.24147  23608465.519    23608465.3004   23608473.7034
        -0.000          -0.000
 -19284067.352 9 -14772241.27249  21390624.949    21390624.4094   21390630.9744
        -0.000          -0.000
  -5213921.405 9  -3806062.29045  24772907.922    24772907.3544   24772922.8644
        -0.000          -0.000
  -1723809.974 9  -1332354.29546  23463316.638    23463316.7044   23463324.1514
        -0.000          -0.000
 -15136530.206 9 -11776921.62848  22710729.695    22710729.3004   22710737.5174
        -0.000          -0.000
 99  4 13  2 24 30.0020000  0  8 22  6 17  3 23 29 26 21             0.002083647
   -935943.625 9   -527943.16246  24930751.297    24930750.4314   24930761.3424
        -0.000          -0.000
  -8266379.935 9  -5835903.50547  23370303.868    23370303.6364   23370312.8984
        -0.000          -0.000
 -19722898.025 9 -15349830.93549  21419249.341    21419248.6834   21419255.7524
        -0.000          -0.000
  -7842641.224 9  -6091604.09647  23593785.020    23593784.7634   23593793.0194
        -0.000          -0.000
 -19261245.351 9 -14754457.87249  21394967.783    21394967.2824   21394973.8274
        -0.000          -0.000
  -5314338.451 8  -3884308.92345  24753798.797    24753798.3534   24753813.2594
        -0.000          -0.000
  -1638701.924 9  -1266036.32246  23479511.941    23479512.0624   23479519.8334
        -0.000          -0.000
 -15177107.520 9 -11808540.23948  22703008.074    22703007.6354   22703015.9034
        -0.000          -0.000
 99  4 13  2 25  0.0020000  0  8 22  6 17  3 23 29 26 21             0.002088617
   -869441.016 9   -476123.04546  24943406.373    24943405.5394   24943416.5654
        -0.000          -0.000
  -8156376.230 9  -5750186.38446  23391236.840    23391236.6344   23391246.0124
        -0.000          -0.000
 -19706368.674 9 -15336950.89749  21422394.839    21422394.2054   21422401.2164
        -0.000          -0.000
  -7919470.926 9  -6151471.31147  23579165.031    23579164.6844   23579172.8714
        -0.000          -0.000
 -19238165.109 9 -14736473.23949  21399359.762    21399359.2824   21399365.7684
        -0.000          -0.000
  -5414703.364 8  -3962514.96445  24734699.322    24734699.3154   24734713.6894
        -0.000          -0.000
  -1553184.107 9  -1199399.05146  23495785.381    23495785.5174   23495793.4764
        -0.000          -0.000
 -15217426.524 9 -11839957.56248  22695335.570    22695335.1764   22695343.3154
        -0.000          -0.000
 99  4 13  2 25 30.0020000  0  8 22  6 17  3 23 29 26 21             0.002093591
   -802741.194 9   -424149.23046  24956099.282    24956098.3534   24956109.3814
        -0.000          -0.000
  -8046114.448 9  -5664268.19246  23412218.671    23412218.5494   23412228.0994
        -0.000          -0.000
 -19689614.324 9 -15323895.54348  21425583.002    21425582.2984   21425589.3664
        -0.000          -0.000
  -7995976.632 9  -6211086.07447  23564606.573    23564606.1734   23564614.2814
        -0.000          -0.000
 -19214835.538 9 -14718294.33349  21403799.113    21403798.6494   21403805.1644
        -0.000          -0.000
  -5514997.363 8  -4040665.71545  24715613.354    24715613.6674   24715627.5744
        -0.000          -0.000
  -1467258.944 9  -1132444.38546  23512136.385    23512136.4674   23512144.7164
        -0.000          -0.000
 -15257474.564 9 -11871163.76848  22687714.787    22687714.3524   22687722.3844
        -0.000          -0.000
 99  4 13  2 26  0.0020000  0  8 22  6 17  3 23 29 26 21             0.002098580
   -735835.808 9   -372015.27646  24968831.447    24968830.3784   24968841.1004
        -0.000          -0.000
  -7935589.516 9  -5578144.92346  23433250.497    23433250.6084   23433260.3114
        -0.000          -0.000
 -19672623.521 9 -15310655.94948  21428816.001    21428815.3604   21428822.5364
        -0.000          -0.000
  -8072139.532 9  -6270433.71347  23550113.213    23550112.7774   23550120.8774
        -0.000          -0.000
 -19191252.104 9 -14699917.60449  21408286.746    21408286.3224   21408292.8204
        -0.000          -0.000
  -5615203.333 9  -4118747.84245  24696544.483    24696544.8184   24696558.4944
        -0.000          -0.000
  -1380910.174 9  -1065159.62346  23528567.626    23528567.8314   23528576.2984
        -0.000          -0.000
 -15297241.343 9 -11902150.81748  22680147.540    22680146.9914   22680154.9014
        -0.000          -0.000
 99  4 13  2 26 30.0020000  0  8 22  6 17  3 23 29 26 21             0.002103580
   -668737.554 9   -319730.99946  24981600.106    24981598.8894   24981609.3544
        -0.000          -0.000
  -7824797.245 9  -5491813.32646  23454333.680    23454333.7824   23454343.7404
        -0.000          -0.000
 -19655400.180 9 -15297235.15048  21432093.500    21432092.8514   21432100.0514
        -0.000          -0.000
  -8147957.302 9  -6329512.43647  23535685.320    23535684.9654   23535693.1144
        -0.000          -0.000
 -19167416.860 9 -14681344.66049  21412822.383    21412821.9324   21412828.5184
        -0.000          -0.000
  -5715334.935 9  -4196772.02845  24677489.906    24677490.0504   24677503.9034
        -0.000          -0.000
  -1294152.194 9   -997556.00846  23545077.098    23545077.2424   23545085.6714
        -0.000          -0.000
 -15336750.015 9 -11932936.72748  22672629.247    22672628.6264   22672636.4224
        -0.000          -0.000
 99  4 13  2 27  0.0020000  0  8 22  6 17  3 23 29 26 21             0.002108575
   -601458.162 9   -267305.56746  24994402.760    24994401.6274   24994412.2444
        -0.000          -0.000
  -7713759.390 9  -5405290.39047  23475464.101    23475464.0534   23475473.8364
        -0.000          -0.000
 -19637926.850 9 -15283619.55148  21435418.571    21435417.9394   21435425.0594
        -0.000          -0.000
  -8223438.880 9  -6388329.18647  23521321.461    23521321.2284   23521329.3584
        -0.000          -0.000
 -19143338.085 9 -14662581.95849  21417404.262    21417403.8804   21417410.5284
        -0.000          -0.000
  -5815408.464 9  -4274750.93546  24658446.285    24658446.3344   24658460.1484
        -0.000          -0.000
  -1207003.603 9   -929648.03046  23561660.902    23561661.1114   23561669.7174
        -0.000          -0.000
 -15376013.090 9 -11963531.26448  22665157.579    22665157.0084   22665164.6924
        -0.000          -0.000
 99  4 13  2 27 30.0020000  0  8 22  6 17  3 23 29 26 21             0.002113569
   -533986.098 9   -214730.03346  25007242.254    25007240.9784   25007251.8774
        -0.000          -0.000
  -7602500.189 9  -5318594.97347  23496636.259    23496636.2864   23496645.8304
        -0.000          -0.000
 -19620208.616 9 -15269813.11248  21438790.145    21438789.5154   21438796.7334
        -0.000          -0.000
  -8298578.919 9  -6446879.80447  23507022.732    23507022.5174   23507030.5784
        -0.000          -0.000
 -19119000.498 9 -14643617.58149  21422035.551    21422035.1644   21422041.7634
        -0.000          -0.000
  -5915420.229 9  -4352681.72146  24639414.444    24639414.3994   24639428.2104
        -0.000          -0.000
  -1119457.677 9   -861430.44746  23578320.541    23578320.7074   23578329.2854
        -0.000          -0.000
 -15415031.239 9 -11993934.95748  22657732.635    22657732.0794   22657739.6904
        -0.000          -0.000
 99  4 13  2 28  0.0020000  0  8 22  6 17  3 23 29 26 21             0.002118547
   -466335.642 9   -162015.46046  25020115.703    25020114.4454   25020125.5134
        -0.000          -0.000
  -7491050.840 9  -5231751.41647  23517844.589    23517844.6154   23517853.8424
        -0.000          -0.000
 -19602251.670 9 -15255820.67148  21442207.115    21442206.5394   21442213.9054
        -0.000          -0.000
  -8373398.693 9  -6505180.85547  23492784.914    23492784.6244   23492792.6734
        -0.000          -0.000
 -19094399.282 9 -14624447.77449  21426717.009    21426716.5634   21426723.2274
        -0.000          -0.000
  -6015398.143 9  -4430586.12146  24620389.068    24620388.9004   24620402.8864
        -0.000          -0.000
  -1031517.502 9   -792905.63946  23595055.019    23595055.3424   23595063.5664
        -0.000          -0.000
 -15453828.703 9 -12024166.69148  22650349.487    22650349.0204   22650356.7844
        -0.000          -0.000
 99  4 13  2 28 30.0020000  0  8 22  6 17  3 23 29 26 21             0.002123508
   -398517.861 8   -109170.52246  25033020.810    25033019.6714   25033031.0594
        -0.000          -0.000
  -7379419.878 9  -5144766.33247  23539087.437    23539087.3894   23539096.4294
        -0.000          -0.000
 -19584044.780 9 -15241633.47449  21445671.834    21445671.2014   21445678.6294
        -0.000          -0.000
  -8447906.793 9  -6563239.04247  23478606.451    23478606.1294   23478614.0794
        -0.000          -0.000
 -19069536.414 9 -14605074.10049  21431448.128    21431447.7574   21431454.6644
        -0.000          -0.000
  -6115347.491 9  -4508468.28046  24601368.911    24601368.8684   24601382.9064
        -0.000          -0.000
   -943177.453 9   -724069.26246  23611865.769    23611866.1054   23611874.0864
        -0.000          -0.000
 -15492412.978 9 -12054232.31548  22643006.987    22643006.6134   22643014.4444
        -0.000          -0.000
 99  4 13  2 29  0.0020000  0  8 22  6 17  3 23 29 26 21             0.002128449
   -330547.245 9    -56206.50146  25045954.793    25045954.0574   25045965.7464
        -0.000          -0.000
  -7267629.887 9  -5057657.33947  23560360.166    23560360.1724   23560369.4954
        -0.000          -0.000
 -19565597.087 9 -15227258.63248  21449182.278    21449181.6614   21449188.9824
        -0.000          -0.000
  -8522120.055 9  -6621067.49947  23464484.212    23464483.8854   23464491.5954
        -0.000          -0.000
 -19044416.698 9 -14585500.27949  21436228.336    21436227.9384   21436234.8584
        -0.000          -0.000
  -6215265.740 9  -4586326.22046  24582354.955    24582354.8814   24582368.7494
        -0.000          -0.000
   -854426.890 9   -654912.99846  23628754.356    23628754.5854   23628762.5854
        -0.000          -0.000
 -15530785.748 9 -12084133.12148  22635704.956    22635704.5084   22635712.2644
        -0.000          -0.000
 99  4 13  2 29 30.0020000  0  8 22  6 17  3 23 29 26 21             0.002133393
   -262407.900 9     -3111.03046  25058921.585    25058920.6904   25058932.4604
        -0.000          -0.000
  -7155646.116 9  -4970397.33246  23581669.723    23581669.7504   23581679.4534
        -0.000          -0.000
 -19546890.510 9 -15212682.06048  21452741.943    21452741.3264   21452748.6184
        -0.000          -0.000
  -8596011.894 9  -6678645.48847  23450423.094    23450422.7204   23450430.2654
        -0.000          -0.000
 -19019013.598 9 -14565705.62749  21441062.518    21441062.0414   21441068.8774
        -0.000          -0.000
  -6315122.849 9  -4664136.49946  24563352.806    24563352.5654   24563366.3924
        -0.000          -0.000
   -765236.118 9   -585413.68546  23645726.382    23645726.6244   23645734.9484
        -0.000          -0.000
 -15568935.646 9 -12113860.27248  22628445.152    22628444.7344   22628452.4964
        -0.000          -0.000
 99  4 13  2 30  0.0020000  0  8 22  6 17  3 23 29 26 21             0.002138335
   -194119.389 9     50100.69846  25071916.728    25071915.7634   25071927.5754
        -0.000          -0.000
  -7043445.105 9  -4882968.03246  23603020.577    23603020.5794   23603030.6584
        -0.000          -0.000
 -19527921.580 9 -15197901.05348  21456351.548    21456350.9774   21456358.2734
        -0.000          -0.000
  -8669576.052 9  -6735968.13747  23436424.374    23436423.9014   23436431.3794
        -0.000          -0.000
 -18993338.957 9 -14545699.39949  21445948.354    21445947.8194   21445954.7144
        -0.000          -0.000
  -6414923.418 9  -4741902.74046  24544360.986    24544360.9034   24544374.6764
        -0.000          -0.000
   -675618.857 9   -515582.04446  23662779.975    23662780.1784   23662788.3704
        -0.000          -0.000
 -15606862.282 9 -12143413.44548  22621227.696    22621227.3914   22621235.2684
        -0.000          -0.000
 99  4 13  2 30 30.0020000  0  8 22  6 17  3 23 29 26 21             0.002143295
   -125666.367 9    103440.67246  25084942.882    25084942.0264   25084954.0174
        -0.000          -0.000
  -6930986.465 9  -4795338.00546  23624420.598    23624420.7444   23624430.9034
        -0.000          -0.000
 -19508681.725 9 -15182908.94449  21460012.859    21460012.2634   21460019.5614
        -0.000          -0.000
  -8742770.967 9  -6793003.07147  23422495.813    23422495.4444   23422502.7834
        -0.000          -0.000
 -18967391.078 9 -14525480.27749  21450886.008    21450885.5414   21450892.5744
        -0.000          -0.000
  -6514634.479 9  -4819599.24046  24525386.223    24525386.1994   24525399.8274
        -0.000          -0.000
   -585565.620 9   -445410.74045  23679916.628    23679916.7154   23679924.6064
        -0.000          -0.000
 -15644530.417 9 -12172765.19648  22614059.468    22614059.2334   22614067.2384
        -0.000          -0.000
 99  4 13  2 31  0.0020000  0  8 22  6 17  3 23 29 26 21             0.002148258
    -57064.029 9    156896.95946  25097997.542    25097996.6494   25098008.6864
        -0.000          -0.000
  -6818282.277 9  -4707516.62846  23645867.589    23645867.6674   23645877.9704
        -0.000          -0.000
 -19489200.997 9 -15167729.13348  21463719.936    21463719.3174   21463726.6204
        -0.000          -0.000
  -8815621.165 9  -6849769.39047  23408632.968    23408632.4824   23408639.7474
        -0.000          -0.000
 -18941200.345 9 -14505071.90249  21455869.961    21455869.4814   21455876.4734
        -0.000          -0.000
  -6614275.435 9  -4897241.07046  24506424.998    24506424.7164   24506438.3724
        -0.000          -0.000
   -495114.106 9   -374929.08145  23697129.196    23697129.2094   23697136.5174
        -0.000          -0.000
 -15681961.910 9 -12201932.54848  22606936.544    22606936.2344   22606944.1334
        -0.000          -0.000
 99  4 13  2 31 30.0020000  0  8 22  6 17  3 23 29 26 21             0.002153231
     11705.645 9    210483.62246  25111083.980    25111082.9804   25111094.9694
        -0.000          -0.000
  -6705305.910 9  -4619483.15046  23667366.469    23667366.5224   23667376.7914
        -0.000          -0.000
 -19469467.929 9 -15152352.68948  21467474.942    21467474.3074   21467481.5084
        -0.000          -0.000
  -8888101.015 9  -6906247.12747  23394840.204    23394839.8994   23394847.1814
        -0.000          -0.000
 -18914763.877 9 -14484472.03249  21460900.631    21460900.1384   21460907.0794
        -0.000          -0.000
  -6713833.959 9  -4974818.69345  24487479.306    24487478.8924   24487492.4944
        -0.000          -0.000
   -404272.793 9   -304143.64145  23714415.755    23714415.7724   23714422.8454
        -0.000          -0.000
 -15719141.707 9 -12230903.77048  22599861.470    22599861.1124   22599868.9984
        -0.000          -0.000
 99  4 13  2 32  0.0020000  0  8 22  6 17  3 23 29 26 21             0.002158205
     80636.683 9    264196.01945  25124200.828    25124200.0184   25124211.7154
        -0.000          -0.000
  -6592068.268 9  -4531246.10046  23688915.109    23688915.0954   23688925.1694
        -0.000          -0.000
 -19449484.716 9 -15136781.34348  21471277.525    21471276.9144   21471284.2144
        -0.000          -0.000
  -8960208.711 9  -6962434.87947  23381118.453    23381118.1694   23381125.3574
        -0.000          -0.000
 -18888075.775 9 -14463676.09349  21465979.151    21465978.6924   21465985.6814
        -0.000          -0.000
  -6813313.468 9  -5052334.76945  24468548.471    24468548.0084   24468561.6474
        -0.000          -0.000
   -313051.485 9   -233062.13045  23731774.657    23731774.6534   23731781.8224
        -0.000          -0.000
 -15756056.566 9 -12259668.54348  22592836.634    22592836.4154   22592844.3944
        -0.000          -0.000
 99  4 13  2 32 30.0020000  0  8 22  6 17  3 23 29 26 21             0.002163165
    149706.386 9    318016.49745  25137344.084    25137343.4504   25137354.9544
        -0.000          -0.000
  -6478608.698 9  -4442836.11246  23710505.967    23710505.9084   23710515.7734
        -0.000          -0.000
 -19429262.973 9 -15121024.13748  21475125.488    21475124.9004   21475132.3114
        -0.000          -0.000
  -9031973.293 9  -7018355.25547  23367462.063    23367461.7734   23367468.8374
        -0.000          -0.000
 -18861141.519 9 -14442688.35549  21471104.505    21471104.0744   21471111.1394
        -0.000          -0.000
  -6912720.253 9  -5129794.16445  24449631.198    24449630.8444   24449644.6284
        -0.000          -0.000
   -221464.081 9   -161695.32945  23749203.578    23749203.5474   23749210.7634
        -0.000          -0.000
 -15792727.406 9 -12288243.16648  22585858.482    22585858.2064   22585866.1444
        -0.000          -0.000
 99  4 13  2 33  0.0020000  0  8 22  6 17  3 23 29 26 21             0.002168108
    218915.128 9    371945.32545  25150514.069    25150513.5824   25150524.8844
        -0.000          -0.000
  -6364955.099 9  -4354274.94746  23732133.647    23732133.5654   23732143.3634
        -0.000          -0.000
 -19408799.232 9 -15105078.34148  21479019.635    21479019.0544   21479026.4584
        -0.000          -0.000
  -9103400.018 9  -7074012.39147  23353870.096    23353869.7924   23353876.5974
        -0.000          -0.000
 -18833947.598 9 -14421498.27349  21476279.324    21476278.8524   21476285.8974
        -0.000          -0.000
  -7012045.722 8  -5207190.18745  24430729.669    24430729.1694   24430742.9154
        -0.000          -0.000
   -129507.466 8    -90040.83645  23766702.572    23766702.6434   23766709.6884
        -0.000          -0.000
 -15829161.553 9 -12316633.33848  22578925.369    22578925.0264   22578932.8804
        -0.000          -0.000
 99  4 13  2 33 30.0020000  0  8 22  6 17  3 23 29 26 21             0.002173045
    288271.068 9    425988.82545  25163712.434    25163711.6654   25163723.0904
        -0.000          -0.000
  -6251098.728 9  -4265555.74746  23753799.894    23753799.8074   23753809.7344
        -0.000          -0.000
 -19388068.953 9 -15088924.86449  21482964.505    21482963.9134   21482971.3144
        -0.000          -0.000
  -9174446.737 9  -7129373.41347  23340350.256    23340349.9824   23340356.5894
        -0.000          -0.000
 -18806457.017 9 -14400077.02649  21481510.619    21481510.1504   21481517.0484
        -0.000          -0.000
  -7111260.092 9  -5284499.67845  24411848.922    24411848.6314   24411862.3374
        -0.000          -0.000
    -37160.177 8    -18081.91645  23784276.019    23784276.1774   23784283.0884
        -0.000          -0.000
 -15865329.898 9 -12344816.40848  22572042.730    22572042.3604   22572050.1294
        -0.000          -0.000
 99  4 13  2 34  0.0020000  0  8 22  6 17  3 23 29 26 21             0.002177967
    357763.740 9    480138.89145  25176936.183    25176935.5814   25176947.3944
        -0.000          -0.000
  -6137053.253 9  -4176689.21246  23775502.007    23775501.9834   23775511.8614
        -0.000          -0.000
 -19367061.911 9 -15072555.72949  21486962.085    21486961.5164   21486968.8104
        -0.000          -0.000
  -9245120.608 9  -7184443.89347  23326901.193    23326901.0034   23326907.7434
        -0.000          -0.000
 -18778672.667 9 -14378426.85749  21486797.897    21486797.3904   21486804.0754
        -0.000          -0.000
  -7210357.901 9  -5361718.33545  24392990.357    24392990.5654   24393004.0184
        -0.000          -0.000
     55575.254 8     54179.47045  23801922.875    23801922.8024   23801930.4384
        -0.000          -0.000
 -15901234.634 9 -12372794.04148  22565210.223    22565209.8604   22565217.5694
        -0.000          -0.000
 99  4 13  2 34 30.0020000  0  8 22  6 17  3 23 29 26 21             0.002182898
    427407.384 9    534406.58345  25190188.864    25190188.3154   25190200.0784
        -0.000          -0.000
  -6022810.575 9  -4087669.03846  23797241.850    23797241.8324   23797251.4664
        -0.000          -0.000
 -19345775.052 9 -15055968.55949  21491013.103    21491012.4914   21491019.5854
        -0.000          -0.000
  -9315411.708 9  -7239216.10647  23313525.020    23313524.8434   23313531.6454
        -0.000          -0.000
 -18750607.924 9 -14356558.21149  21492138.447    21492137.9434   21492144.5494
        -0.000          -0.000
  -7309319.310 9  -5438830.67446  24374158.480    24374158.6314   24374171.9064
        -0.000          -0.000
    148710.924 8    126752.73645  23819645.952    23819645.7824   23819654.1594
        -0.000          -0.000
 -15936881.808 9 -12400570.99048  22558426.900    22558426.5264   22558434.0544
        -0.000          -0.000
 99  4 13  2 35  0.0020000  0  8 22  6 17  3 23 29 26 21             0.002187847
    497220.090 9    588805.99845  25203474.036    25203473.3184   25203484.8014
        -0.000          -0.000
  -5908354.822 9  -3998482.83246  23819022.039    23819021.9554   23819031.5514
        -0.000          -0.000
 -19324210.696 9 -15039165.13849  21495116.748    21495116.0814   21495123.1294
        -0.000          -0.000
  -9385293.311 9  -7293669.24647  23300226.798    23300226.6794   23300233.4204
        -0.000          -0.000
 -18722278.222 9 -14334483.10449  21497529.336    21497528.8704   21497535.5604
        -0.000          -0.000
  -7408142.469 9  -5515835.31146  24355353.369    24355353.1404   24355365.9584
        -0.000          -0.000
    242237.052 8    199630.29445  23837443.355    23837443.0724   23837451.8884
        -0.000          -0.000
 -15972265.771 9 -12428142.85548  22551693.918    22551693.3284   22551700.7874
        -0.000          -0.000
 99  4 13  2 35 30.0020000  0  8 22  6 17  3 23 29 26 21             0.002192786
    567151.995 9    643298.27046  25216782.279    25216781.4344   25216792.6154
        -0.000          -0.000
  -5793720.598 9  -3909157.51346  23840835.944    23840835.9434   23840845.6254
        -0.000          -0.000
 -19302410.652 9 -15022178.07349  21499265.093    21499264.4694   21499271.5734
        -0.000          -0.000
  -9454810.031 9  -7347838.05247  23286997.973    23286997.9174   23287004.7334
        -0.000          -0.000
 -18693754.383 9 -14312256.71949  21502957.189    21502956.7234   21502963.4474
        -0.000          -0.000
  -7506887.302 9  -5592778.92046  24336562.748    24336562.5884   24336575.0754
        -0.000          -0.000
    336094.503 8    272765.97445  23855303.542    23855303.6464   23855312.4914
        -0.000          -0.000
 -16007435.268 9 -12455547.61948  22545001.280    22545000.8014   22545008.3334
        -0.000          -0.000
 99  4 13  2 36  0.0020000  0  8 22  6 17  3 23 29 26 21             0.002197726
    637219.804 9    697896.51146  25230116.450    25230115.5344   25230126.1594
        -0.000          -0.000
  -5678902.188 9  -3819688.70446  23862684.967    23862685.0074   23862695.0054
        -0.000          -0.000
 -19280374.736 9 -15005007.22749  21503458.393    21503457.7464   21503464.8484
        -0.000          -0.000
  -9523961.940 9  -7401722.58847  23273838.649    23273838.6374   23273845.5824
        -0.000          -0.000
 -18665048.786 9 -14289888.70549  21508419.692    21508419.2114   21508425.8714
        -0.000          -0.000
  -7605548.565 9  -5669657.40146  24317788.003    24317787.7474   24317800.1844
        -0.000          -0.000
    430286.551 8    346162.36945  23873227.558    23873227.6284   23873236.5624
        -0.000          -0.000
 -16042396.666 9 -12482790.18448  22538348.374    22538347.8774   22538355.3714
        -0.000          -0.000
 99  4 13  2 36 30.0020000  0  8 22  6 17  3 23 29 26 21             0.002202681
    707450.936 8    752621.97646  25243481.120    25243480.0644   25243490.9274
        -0.000          -0.000
  -5563884.126 9  -3730064.29246  23884572.335    23884572.4044   23884582.6034
        -0.000          -0.000
 -19258087.508 9 -14987640.55648  21507699.319    21507698.6914   21507705.8384
        -0.000          -0.000
  -9592718.091 9  -7455298.73447  23260754.642    23260754.6054   23260761.8674
        -0.000          -0.000
 -18636128.048 9 -14267353.05249  21513923.152    21513922.6914   21513929.2984
        -0.000          -0.000
  -7704101.633 9  -5746451.60146  24299033.360    24299033.3204   24299045.8824
        -0.000          -0.000
    524831.524 8    419833.70245  23891219.078    23891219.2744   23891227.5924
        -0.000          -0.000
 -16077127.327 9 -12509852.97548  22531739.140    22531738.6824   22531746.2874
        -0.000          -0.000
 99  4 13  2 37  0.0020000  0  8 22  6 17  3 23 29 26 21             0.002207598
    777779.620 9    807423.47146  25256863.422    25256862.7984   25256874.4274
        -0.000          -0.000
  -5448721.935 9  -3640327.60646  23906487.318    23906487.2634   23906497.3954
        -0.000          -0.000
 -19235588.670 9 -14970108.97648  21511980.493    21511979.9374   21511987.1384
        -0.000          -0.000
  -9661130.995 9  -7508607.41347  23247735.878    23247735.8584   23247743.3464
        -0.000          -0.000
 -18607033.981 9 -14244682.33749  21519459.704    21519459.2084   21519465.7704
        -0.000          -0.000
  -7802605.323 9  -5823207.32346  24280288.225    24280288.3274   24280300.8154
        -0.000          -0.000
    619657.726 8    493724.16745  23909263.873    23909264.1304   23909272.1544
        -0.000          -0.000
 -16111669.203 9 -12536768.65848  22525165.836    22525165.4724   22525173.1924
        -0.000          -0.000
 99  4 13  2 37 30.0020000  0  8 22  6 17  3 23 29 26 21             0.002212506
    848232.428 8    862321.67045  25270269.717    25270269.4374   25270281.2454
        -0.000          -0.000
  -5333376.255 9  -3550447.93746  23928436.993    23928436.9084   23928447.2974
        -0.000          -0.000
 -19212823.478 9 -14952369.84848  21516312.530    21516311.9874   21516319.1824
        -0.000          -0.000
  -9729168.368 9  -7561623.48247  23234788.684    23234788.6914   23234796.2604
        -0.000          -0.000
 -18577704.387 9 -14221828.09349  21525041.066    21525040.5244   21525047.0504
        -0.000          -0.000
  -7901014.126 9  -5899889.12346  24261561.421    24261561.4314   24261573.5934
        -0.000          -0.000
    714829.184 8    567883.69445  23927374.323    23927374.6234   23927382.3384
        -0.000          -0.000
 -16145984.258 9 -12563507.59448  22518635.927    22518635.5634   22518643.3284
        -0.000          -0.000
 99  4 13  2 38  0.0020000  0  8 22  6 17  3 23 29 26 21             0.002217409
    918818.453 9    917323.67945  25283701.538    25283701.3674   25283713.3104
        -0.000          -0.000
  -5217841.165 9  -3460420.65946  23950422.632    23950422.6274   23950433.1974
        -0.000          -0.000
 -19189780.058 9 -14934413.92348  21520697.657    21520697.0524   21520704.1924
        -0.000          -0.000
  -9796820.446 9  -7614339.30447  23221914.884    23221914.8234   23221922.4064
        -0.000          -0.000
 -18548102.028 9 -14198761.30049  21530674.171    21530673.6454   21530680.2134
        -0.000          -0.000
  -7999312.480 9  -5976484.88046  24242855.726    24242855.5914   24242867.3614
        -0.000          -0.000
    810360.321 8    642323.46245  23945553.775    23945553.9184   23945561.0854
        -0.000          -0.000
 -16180059.667 9 -12590059.79648  22512151.859    22512151.3024   22512159.0254
        -0.000          -0.000
 99  4 13  2 38 30.0020000  0  8 22  6 17  3 23 29 26 21             0.002222317
    989547.055 8    972436.78445  25297160.666    25297160.5804   25297172.6614
        -0.000          -0.000
  -5102096.421 9  -3370230.03546  23972448.369    23972448.3894   23972458.8234
        -0.000          -0.000
 -19166428.999 9 -14916218.28148  21525141.191    21525140.5654   21525147.7414
        -0.000          -0.000
  -9864058.162 9  -7666732.25247  23209119.930    23209119.7914   23209127.3064
        -0.000          -0.000
 -18518210.617 9 -14175469.28149  21536362.258    21536361.7574   21536368.4284
        -0.000          -0.000
  -8097484.585 9  -6052982.28946  24224173.765    24224173.7044   24224185.4344
        -0.000          -0.000
    906273.542 8    717061.01244  23963805.297    23963805.3444   23963812.6144
        -0.000          -0.000
 -16213865.111 9 -12616401.63848  22505718.728    22505718.1564   22505725.9404
        -0.000          -0.000
 99  4 13  2 39  0.0020000  0  8 22  6 17  3 23 29 26 21             0.002227232
   1060392.044 8   1027640.56245  25310642.064    25310641.9674   25310654.0614
        -0.000          -0.000
  -4986152.683 9  -3279884.36046  23994512.205    23994512.0554   23994522.1964
        -0.000          -0.000
 -19142802.274 9 -14897807.83448  21529637.044    21529636.4634   21529643.6724
        -0.000          -0.000
  -9930899.970 9  -7718816.69947  23196400.395    23196400.1764   23196407.5344
        -0.000          -0.000
 -18488068.039 9 -14151981.54249  21542098.102    21542097.5764   21542104.3224
        -0.000          -0.000
  -8195551.876 9  -6129398.03246  24205511.699    24205511.8344   24205523.6164
        -0.000          -0.000
   1002563.321 8    792092.00044  23982128.417    23982128.5564   23982135.6314
        -0.000          -0.000
 -16247432.477 9 -12642557.96448  22499330.739    22499330.3584   22499338.2054
        -0.000          -0.000
 99  4 13  2 39 30.0020000  0  8 22  6 17  3 23 29 26 21             0.002232159
   1131347.022 9   1082930.06245  25324144.686    25324144.5194   25324156.3134
        -0.000          -0.000
  -4870034.360 9  -3189402.62546  24016608.860    24016608.7584   24016618.5464
        -0.000          -0.000
 -19118921.288 9 -14879199.25948  21534181.394    21534180.8674   21534188.0044
        -0.000          -0.000
  -9997355.844 9  -7770600.42747  23183754.303    23183754.0214   23183761.3084
        -0.000          -0.000
 -18457693.193 9 -14128312.81249  21547878.172    21547877.6354   21547884.4004
        -0.000          -0.000
  -8293516.763 9  -6205734.00746  24186869.181    24186869.3394   24186881.2694
        -0.000          -0.000
   1099233.329 8    867419.29144  24000524.443    24000524.5224   24000531.0094
        -0.000          -0.000
 -16280771.198 9 -12668536.12448  22492986.928    22492986.3294   22492993.9634
        -0.000          -0.000
 99  4 13  2 40  0.0020000  0  8 22  6 17  3 23 29 26 21             0.002237092
   1202411.000 9   1138304.50645  25337668.072    25337667.6074   25337679.4894
        -0.000          -0.000
  -4753753.896 9  -3098794.54946  24038736.211    24038736.2304   24038745.9144
        -0.000          -0.000
 -19094781.296 9 -14860388.84548  21538775.119    21538774.5774   21538781.6354
        -0.000          -0.000
 -10063417.059 9  -7822076.62647  23171183.146    23171182.9044   23171190.1964
        -0.000          -0.000
 -18427102.532 9 -14104475.91849  21553699.204    21553698.7454   21553705.5074
        -0.000          -0.000
  -8391363.898 9  -6281978.20746  24168249.303    24168249.5194   24168261.1064
        -0.000          -0.000
   1196266.234 8    943029.32444  24018989.252    24018989.8684   24018996.5494
        -0.000          -0.000
 -16313866.341 9 -12694324.48948  22486689.330    22486688.5604   22486695.9144
        -0.000          -0.000
 99  4 13  2 40 30.0020000  0  8 22  6 17  3 23 29 26 21             0.002242038
   1273575.396 9   1193757.17146  25351209.992    25351209.7334   25351222.0094
        -0.000          -0.000
  -4637318.728 9  -3008065.90846  24060893.168    24060893.0704   24060902.6064
        -0.000          -0.000
 -19070379.907 9 -14841374.75448  21543418.622    21543418.0824   21543425.0714
        -0.000          -0.000
 -10129072.358 9  -7873236.51947  23158689.404    23158689.0344   23158696.4484
        -0.000          -0.000
 -18396311.321 9 -14080482.74649  21559558.509    21559558.0694   21559564.8204
        -0.000          -0.000
  -8489066.429 9  -6358109.74946  24149657.153    24149657.2814   24149668.3894
        -0.000          -0.000
   1293669.050 8   1018927.60145  24037524.557    24037524.9584   24037532.0184
        -0.000          -0.000
 -16346720.205 9 -12719924.86448  22480437.316    22480436.6174   22480443.8674
        -0.000          -0.000
 99  4 13  2 41  0.0020000  0  8 22  6 17  3 23 29 26 21             0.002246995
   1344837.686 8   1249286.17446  25364771.058    25364770.5354   25364783.0124
        -0.000          -0.000
  -4520734.337 9  -2917220.98746  24083078.536    24083078.3824   24083087.8564
        -0.000          -0.000
 -19045708.944 9 -14822150.60748  21548113.548    21548112.9624   21548119.8014
        -0.000          -0.000
 -10194331.106 9  -7924087.43147  23146270.843    23146270.6014   23146278.0244
        -0.000          -0.000
 -18365301.139 9 -14056318.95349  21565459.519    21565459.0634   21565465.8294
        -0.000          -0.000
  -8586611.943 9  -6434118.95746  24131094.663    24131094.8114   24131105.7914
        -0.000          -0.000
   1391440.641 8   1095113.28945  24056129.743    24056130.4084   24056136.8794
        -0.000          -0.000
 -16379331.780 9 -12745336.43048  22474231.591    22474230.8444   22474238.1254
        -0.000          -0.000
 99  4 13  2 41 30.0020000  0  8 22  6 17  3 23 29 26 21             0.002251940
   1416195.607 8   1304889.68045  25378350.186    25378349.5944   25378362.0514
        -0.000          -0.000
  -4403996.729 9  -2826256.69546  24105292.909    24105292.7834   24105302.3794
        -0.000          -0.000
 -19020739.740 9 -14802694.05948  21552865.065    21552864.4524   21552871.3044
        -0.000          -0.000
 -10259185.705 9  -7974623.41047  23133929.128    23133929.0454   23133936.5064
        -0.000          -0.000
 -18334051.876 9 -14031968.85249  21571406.100    21571405.6674   21571412.4114
        -0.000          -0.000
  -8683995.749 9  -6510002.15846  24112562.707    24112562.9814   24112574.1464
        -0.000          -0.000
   1489553.983 8   1171565.26245  24074799.659    24074800.2134   24074807.2064
        -0.000          -0.000
 -16411678.156 9 -12770541.33248  22468076.209    22468075.5154   22468082.5764
        -0.000          -0.000
 99  4 13  2 42  0.0020000  0  8 22  6 17  3 23 29 26 21             0.002256867
   1487637.903 9   1360558.88245  25391945.155    25391944.6224   25391956.6704
        -0.000          -0.000
  -4287100.952 9  -2735169.13246  24127537.198    24127537.1644   24127547.0284
        -0.000          -0.000
 -18995475.312 9 -14783007.45949  21557672.778    21557672.1244   21557679.0784
        -0.000          -0.000
 -10323631.100 9  -8024840.54347  23121665.365    23121665.4244   23121672.8144
        -0.000          -0.000
 -18302561.781 9 -14007431.10049  21577398.482    21577397.9884   21577404.8024
        -0.000          -0.000
  -8781232.850 9  -6585771.05646  24094058.843    24094059.0514   24094070.4974
        -0.000          -0.000
   1587987.722 8   1248266.90745  24093530.966    24093531.5164   24093538.2574
        -0.000          -0.000
 -16443778.697 9 -12795554.67148  22461967.593    22461966.9244   22461973.8464
        -0.000          -0.000
 99  4 13  2 42 30.0020000  0  8 22  6 17  3 23 29 26 21             0.002261781
   1559169.686 9   1416297.82645  25405557.860    25405556.8084   25405568.3244
        -0.000          -0.000
  -4170034.357 9  -2643948.50746  24149814.431    24149814.3314   24149824.2044
        -0.000          -0.000
 -18969924.918 9 -14763098.04148  21562534.762    21562534.1194   21562541.1354
        -0.000          -0.000
 -10387664.729 9  -8074736.81947  23109480.100    23109480.1604   23109487.5724
        -0.000          -0.000
 -18270811.828 9 -13982690.86649  21583440.134    21583439.7354   21583446.6114
        -0.000          -0.000
  -8878331.415 9  -6661432.01246  24075581.533    24075581.5724   24075593.1934
        -0.000          -0.000
   1686740.985 8   1325217.53145  24112323.389    24112323.8454   24112330.1934
        -0.000          -0.000
 -16475642.409 9 -12820383.48948  22455904.107    22455903.4924   22455910.3564
        -0.000          -0.000
 99  4 13  2 43  0.0020000  0  8 22  6 17  3 23 29 26 21             0.002266674
   1630803.434 9   1472116.23245  25419189.986    25419188.9014   25419199.3344
        -0.000          -0.000
  -4052778.217 9  -2552580.14846  24172127.875    24172127.6534   24172137.3824
        -0.000          -0.000
 -18944078.427 9 -14742957.91248  21567452.964    21567452.3844   21567459.4064
        -0.000          -0.000
 -10451286.382 9  -8124312.07547  23097373.268    23097373.4414   23097380.8684
        -0.000          -0.000
 -18238789.412 9 -13957738.31149  21589533.837    21589533.4174   21589540.2184
        -0.000          -0.000
  -8975301.703 9  -6736993.00846  24057128.267    24057128.4474   24057140.1924
        -0.000          -0.000
   1785800.209 8   1402406.53645  24131173.876    24131174.0374   24131179.8904
        -0.000          -0.000
 -16507259.960 9 -12845020.48548  22449887.455    22449886.8174   22449893.6084
        -0.000          -0.000
 99  4 13  2 43 30.0020000  0  8 22  6 17  3 23 29 26 21             0.002271565
   1702555.615 8   1528026.96245  25432844.158    25432843.1584   25432853.4564
        -0.000          -0.000
  -3935327.235 9  -2461060.01746  24194478.282    24194478.0814   24194487.6904
        -0.000          -0.000
 -18917931.828 9 -14722583.91948  21572428.486    21572427.8994   21572434.9324
        -0.000          -0.000
 -10514473.136 9  -8173548.45747  23085349.257    23085349.3654   23085357.0324
        -0.000          -0.000
 -18206503.047 9 -13932580.08949  21595677.761    21595677.3044   21595684.0454
        -0.000          -0.000
  -9072126.629 9  -6812440.73246  24038702.935    24038702.8934   24038714.6364
        -0.000          -0.000
   1885173.704 7   1479840.44444  24150083.664    24150083.7854   24150089.9334
        -0.000          -0.000
 -16538634.640 9 -12869468.23048  22443916.688    22443916.1714   22443923.0904
        -0.000          -0.000
 99  4 13  2 44  0.0020000  0  8 22  6 17  3 23 29 26 21             0.002276469
   1774436.149 8   1584037.70045  25446522.969    25446521.5114   25446532.3034
        -0.000          -0.000
  -3817705.072 9  -2369406.47846  24216861.011    24216860.9164   24216870.5434
        -0.000          -0.000
 -18891485.214 9 -14701976.12848  21577461.185    21577460.5654   21577467.6644
        -0.000          -0.000
 -10577217.482 9  -8222440.09647  23073409.286    23073409.4814   23073417.4004
        -0.000          -0.000
 -18173962.486 9 -13907223.79649  21601869.938    21601869.5074   21601876.3254
        -0.000          -0.000
  -9168785.048 9  -6887758.70346  24020309.086    24020309.0074   24020320.6914
        -0.000          -0.000
   1984882.975 7   1557536.02654  24169056.784    24169056.8314          0.0005
        -0.000          -0.000
 -16569782.518 9 -12893739.24548  22437989.011    22437988.7244   22437995.8654
        -0.000          -0.000
 99  4 13  2 44 30.0020000  0  8 22  6 17  3 23 29 26 21             0.002281369
   1846414.046 8   1640124.32745  25460219.136    25460218.0794   25460229.9394
        -0.000          -0.000
  -3699943.519 9  -2277644.31546  24239269.994    24239270.0134   24239279.8974
        -0.000          -0.000
 -18864767.315 9 -14681156.96249  21582545.438    21582544.8554   21582552.0174
        -0.000          -0.000
 -10639560.849 9  -8271019.30447  23061545.691    23061545.9244   23061553.8884
        -0.000          -0.000
 -18141212.723 9 -13881704.48149  21608101.959    21608101.5034   21608108.3554
        -0.000          -0.000
  -9265298.828 9  -6962963.96146  24001942.798    24001942.7714   24001954.2424
        -0.000          -0.000
   2084898.629 7   1635470.25654  24188088.321    24188088.9064          0.0005
        -0.000          -0.000
 -16600720.114 9 -12917846.42148  22432101.669    22432101.3894   22432108.6824
        -0.000          -0.000
